GFSNE_prec_precacc_015.txt.gz
Total_Precipitation_Accumulation
0.09 0.12 0.15 0.15 0.18 0.17 0.20 0.26 0.34 0.26 0.12 0.06 0.04 0.05 0.04 0.03 0.03 0.06 0.06 0.04 0.03 0.02 0.02 0.02 0.01 0.02 0.04 0.04 0.06 0.09 0.12 0.14 0.13 0.07 0.03 0.01 0.01 0.01
0.07 0.09 0.10 0.13 0.15 0.16 0.18 0.17 0.23 0.27 0.16 0.05 0.04 0.08 0.10 0.10 0.11 0.10 0.08 0.11 0.10 0.08 0.09 0.07 0.04 0.03 0.02 0.02 0.04 0.05 0.07 0.09 0.08 0.06 0.03 0.02 0.01 0.00
0.04 0.08 0.09 0.10 0.10 0.10 0.10 0.11 0.15 0.22 0.22 0.05 0.08 0.11 0.11 0.10 0.08 0.09 0.07 0.04 0.04 0.04 0.05 0.07 0.09 0.09 0.07 0.05 0.04 0.03 0.04 0.05 0.05 0.05 0.04 0.03 0.02 0.01
0.01 0.05 0.07 0.09 0.11 0.11 0.10 0.10 0.13 0.15 0.22 0.12 0.10 0.13 0.12 0.11 0.10 0.11 0.11 0.11 0.12 0.10 0.10 0.10 0.11 0.15 0.18 0.17 0.14 0.11 0.09 0.09 0.10 0.11 0.09 0.06 0.04 0.05
0.00 0.02 0.03 0.06 0.07 0.06 0.07 0.08 0.13 0.20 0.26 0.31 0.19 0.14 0.09 0.10 0.14 0.19 0.19 0.17 0.17 0.20 0.24 0.23 0.25 0.30 0.33 0.32 0.25 0.24 0.28 0.28 0.26 0.24 0.21 0.17 0.13 0.07
0.00 0.00 0.01 0.01 0.02 0.02 0.04 0.11 0.18 0.28 0.30 0.28 0.22 0.13 0.13 0.15 0.21 0.24 0.24 0.25 0.28 0.29 0.32 0.31 0.31 0.30 0.31 0.36 0.38 0.35 0.31 0.33 0.35 0.31 0.24 0.18 0.13 0.06
0.00 0.00 0.00 0.00 0.00 0.03 0.08 0.12 0.27 0.32 0.32 0.33 0.33 0.34 0.38 0.39 0.38 0.39 0.44 0.36 0.31 0.23 0.19 0.21 0.25 0.30 0.32 0.34 0.38 0.35 0.33 0.37 0.39 0.33 0.24 0.17 0.11 0.05
0.00 0.00 0.00 0.00 0.00 0.03 0.07 0.14 0.28 0.44 0.44 0.44 0.46 0.49 0.41 0.41 0.37 0.39 0.45 0.55 0.48 0.27 0.23 0.32 0.36 0.45 0.45 0.46 0.44 0.41 0.39 0.33 0.31 0.28 0.22 0.15 0.10 0.05
0.00 0.00 0.00 0.00 0.01 0.02 0.07 0.11 0.19 0.32 0.39 0.42 0.43 0.39 0.35 0.30 0.28 0.32 0.37 0.42 0.39 0.30 0.34 0.43 0.35 0.38 0.40 0.45 0.52 0.45 0.43 0.35 0.29 0.23 0.16 0.10 0.07 0.05
0.00 0.00 0.00 0.00 0.01 0.02 0.05 0.11 0.13 0.14 0.19 0.25 0.30 0.31 0.33 0.41 0.54 0.61 0.67 0.76 0.61 0.43 0.37 0.36 0.26 0.32 0.36 0.43 0.55 0.42 0.33 0.30 0.26 0.20 0.14 0.11 0.09 0.06
0.00 0.00 0.01 0.01 0.01 0.04 0.09 0.14 0.14 0.13 0.19 0.25 0.31 0.36 0.35 0.33 0.38 0.49 0.55 0.50 0.49 0.35 0.28 0.29 0.27 0.30 0.36 0.38 0.43 0.36 0.26 0.23 0.23 0.20 0.16 0.11 0.06 0.02
0.00 0.00 0.02 0.02 0.03 0.06 0.12 0.20 0.21 0.15 0.19 0.26 0.32 0.38 0.39 0.38 0.43 0.37 0.41 0.58 0.61 0.50 0.34 0.39 0.40 0.36 0.39 0.33 0.37 0.41 0.33 0.26 0.21 0.17 0.11 0.05 0.02 0.00
0.03 0.02 0.03 0.06 0.09 0.10 0.12 0.18 0.20 0.21 0.25 0.28 0.32 0.36 0.38 0.39 0.42 0.53 0.71 0.92 0.90 0.75 0.50 0.51 0.50 0.43 0.45 0.37 0.35 0.37 0.29 0.22 0.16 0.10 0.06 0.03 0.01 0.00
0.02 0.01 0.01 0.03 0.04 0.05 0.08 0.15 0.28 0.27 0.24 0.31 0.44 0.50 0.48 0.48 0.55 0.62 0.65 0.67 0.62 0.59 0.55 0.52 0.49 0.43 0.40 0.37 0.33 0.32 0.26 0.16 0.07 0.03 0.01 0.00 0.00 0.00
0.01 0.02 0.02 0.02 0.03 0.04 0.10 0.16 0.16 0.14 0.28 0.51 0.71 0.76 0.70 0.75 0.78 0.69 0.62 0.57 0.51 0.53 0.53 0.45 0.38 0.40 0.31 0.22 0.17 0.15 0.12 0.08 0.03 0.01 0.00 0.00 0.00 0.00
0.02 0.01 0.02 0.03 0.05 0.06 0.08 0.07 0.07 0.15 0.26 0.34 0.43 0.51 0.65 0.67 0.62 0.68 0.73 0.70 0.66 0.61 0.48 0.31 0.23 0.16 0.09 0.07 0.06 0.06 0.04 0.03 0.01 0.00 0.00 0.00 0.00 0.00
0.02 0.01 0.01 0.02 0.02 0.02 0.03 0.06 0.11 0.21 0.29 0.27 0.37 0.44 0.62 0.70 0.70 0.73 0.77 0.68 0.50 0.40 0.33 0.20 0.09 0.04 0.02 0.01 0.01 0.01 0.01 0.00 0.00 0.00 0.00 0.00 0.00 0.00
0.04 0.03 0.03 0.04 0.06 0.08 0.09 0.12 0.18 0.26 0.25 0.34 0.43 0.48 0.55 0.65 0.78 0.91 0.86 0.58 0.36 0.25 0.16 0.09 0.04 0.01 0.00 0.00 0.00 0.00 0.00 0.00 0.00 0.00 0.00 0.00 0.00 0.00
0.07 0.10 0.12 0.13 0.13 0.14 0.18 0.27 0.36 0.42 0.56 0.63 0.62 0.58 0.58 0.68 0.80 0.79 0.61 0.34 0.18 0.09 0.03 0.01 0.00 0.00 0.00 0.00 0.00 0.00 0.00 0.00 0.00 0.00 0.00 0.00 0.00 0.00
0.18 0.21 0.24 0.22 0.20 0.24 0.28 0.39 0.49 0.56 0.59 0.61 0.63 0.69 0.76 0.83 0.82 0.65 0.42 0.19 0.06 0.01 0.00 0.00 0.00 0.00 0.00 0.00 0.00 0.00 0.00 0.00 0.00 0.00 0.00 0.00 0.00 0.00
0.18 0.26 0.33 0.31 0.28 0.32 0.35 0.41 0.51 0.67 0.81 0.87 0.81 0.88 0.89 0.77 0.57 0.37 0.20 0.04 0.01 0.00 0.00 0.00 0.00 0.00 0.00 0.00 0.00 0.00 0.00 0.00 0.00 0.00 0.01 0.03 0.01 0.01
0.06 0.14 0.22 0.28 0.25 0.26 0.35 0.56 0.75 0.87 0.85 0.80 0.89 0.86 0.70 0.50 0.30 0.10 0.01 0.00 0.00 0.00 0.00 0.00 0.00 0.00 0.00 0.00 0.00 0.00 0.00 0.00 0.00 0.00 0.02 0.07 0.06 0.03
0.02 0.07 0.16 0.25 0.27 0.31 0.42 0.59 0.82 0.88 0.82 0.86 0.82 0.64 0.44 0.20 0.03 0.00 0.00 0.00 0.00 0.00 0.00 0.00 0.00 0.00 0.00 0.00 0.00 0.00 0.00 0.00 0.00 0.01 0.03 0.05 0.06 0.08

GFSNE_prec_precacc_021.txt.gz
Total_Precipitation_Accumulation
0.09 0.12 0.15 0.15 0.18 0.18 0.23 0.28 0.37 0.27 0.12 0.06 0.04 0.05 0.05 0.05 0.05 0.08 0.08 0.05 0.07 0.07 0.09 0.09 0.10 0.12 0.18 0.24 0.32 0.37 0.38 0.39 0.34 0.24 0.22 0.22 0.15 0.13
0.07 0.09 0.10 0.13 0.16 0.17 0.18 0.17 0.23 0.29 0.17 0.05 0.04 0.08 0.10 0.10 0.11 0.11 0.09 0.12 0.11 0.09 0.12 0.12 0.10 0.10 0.12 0.15 0.18 0.22 0.28 0.34 0.37 0.27 0.19 0.16 0.13 0.10
0.04 0.08 0.09 0.11 0.11 0.10 0.10 0.11 0.15 0.22 0.23 0.05 0.08 0.11 0.11 0.10 0.08 0.09 0.08 0.05 0.04 0.05 0.06 0.08 0.11 0.13 0.13 0.13 0.15 0.16 0.19 0.22 0.25 0.28 0.26 0.22 0.22 0.16
0.01 0.05 0.07 0.09 0.11 0.11 0.10 0.10 0.13 0.15 0.24 0.14 0.11 0.13 0.12 0.11 0.10 0.12 0.12 0.12 0.13 0.11 0.13 0.12 0.14 0.17 0.20 0.20 0.20 0.18 0.17 0.18 0.24 0.33 0.36 0.37 0.36 0.33
0.00 0.02 0.03 0.06 0.07 0.06 0.07 0.08 0.13 0.21 0.28 0.33 0.20 0.14 0.09 0.11 0.15 0.19 0.19 0.18 0.18 0.22 0.27 0.26 0.28 0.32 0.35 0.35 0.34 0.37 0.41 0.41 0.40 0.37 0.40 0.47 0.55 0.60
0.00 0.00 0.01 0.01 0.02 0.02 0.04 0.12 0.19 0.29 0.31 0.29 0.23 0.13 0.14 0.15 0.21 0.25 0.25 0.26 0.29 0.30 0.33 0.32 0.31 0.30 0.31 0.36 0.41 0.42 0.43 0.44 0.49 0.56 0.61 0.61 0.59 0.60
0.00 0.00 0.00 0.00 0.00 0.03 0.08 0.13 0.28 0.34 0.33 0.34 0.34 0.35 0.39 0.39 0.38 0.39 0.44 0.36 0.31 0.24 0.20 0.21 0.25 0.31 0.32 0.35 0.39 0.37 0.40 0.48 0.55 0.57 0.56 0.61 0.65 0.69
0.00 0.00 0.00 0.00 0.00 0.04 0.08 0.15 0.28 0.45 0.45 0.46 0.49 0.51 0.42 0.41 0.37 0.40 0.47 0.56 0.49 0.28 0.25 0.33 0.38 0.46 0.45 0.46 0.44 0.41 0.40 0.40 0.41 0.44 0.48 0.47 0.47 0.50
0.00 0.00 0.00 0.00 0.01 0.03 0.07 0.11 0.20 0.34 0.41 0.43 0.45 0.40 0.37 0.31 0.30 0.35 0.42 0.49 0.45 0.31 0.36 0.44 0.36 0.39 0.40 0.45 0.53 0.46 0.46 0.44 0.42 0.42 0.43 0.42 0.40 0.45
0.00 0.00 0.00 0.01 0.02 0.03 0.06 0.15 0.14 0.14 0.19 0.25 0.31 0.33 0.37 0.46 0.62 0.72 0.76 0.80 0.63 0.44 0.39 0.38 0.27 0.33 0.37 0.44 0.56 0.45 0.38 0.37 0.40 0.39 0.38 0.40 0.43 0.46
0.00 0.00 0.02 0.01 0.01 0.06 0.15 0.17 0.15 0.13 0.19 0.26 0.32 0.40 0.40 0.36 0.40 0.53 0.62 0.57 0.55 0.37 0.29 0.32 0.29 0.32 0.38 0.38 0.45 0.45 0.35 0.33 0.36 0.38 0.37 0.39 0.40 0.42
0.01 0.01 0.02 0.02 0.05 0.13 0.14 0.20 0.23 0.16 0.19 0.27 0.33 0.39 0.39 0.38 0.43 0.42 0.58 0.83 0.77 0.59 0.36 0.43 0.44 0.42 0.47 0.35 0.38 0.49 0.46 0.41 0.39 0.37 0.34 0.31 0.33 0.33
0.07 0.02 0.03 0.09 0.16 0.11 0.13 0.18 0.20 0.21 0.28 0.29 0.32 0.36 0.39 0.39 0.43 0.58 0.82 1.13 1.12 0.86 0.52 0.60 0.58 0.46 0.49 0.40 0.41 0.50 0.42 0.44 0.44 0.42 0.37 0.32 0.26 0.22
0.02 0.01 0.06 0.10 0.04 0.05 0.08 0.16 0.29 0.29 0.24 0.32 0.45 0.50 0.49 0.48 0.56 0.63 0.68 0.74 0.75 0.75 0.60 0.60 0.65 0.48 0.47 0.49 0.47 0.54 0.53 0.43 0.31 0.29 0.26 0.28 0.25 0.20
0.02 0.08 0.07 0.02 0.03 0.04 0.10 0.16 0.16 0.14 0.30 0.54 0.74 0.78 0.71 0.76 0.78 0.71 0.64 0.60 0.59 0.63 0.63 0.56 0.55 0.58 0.51 0.43 0.36 0.43 0.47 0.47 0.36 0.27 0.23 0.20 0.15 0.12
0.09 0.05 0.02 0.03 0.05 0.06 0.08 0.07 0.07 0.15 0.29 0.40 0.49 0.54 0.65 0.68 0.64 0.73 0.82 0.80 0.79 0.74 0.60 0.48 0.43 0.39 0.30 0.27 0.26 0.35 0.33 0.31 0.35 0.29 0.21 0.17 0.13 0.09
0.03 0.01 0.01 0.02 0.02 0.02 0.04 0.06 0.11 0.21 0.31 0.31 0.41 0.47 0.63 0.72 0.74 0.82 0.92 0.86 0.68 0.56 0.48 0.38 0.29 0.23 0.19 0.19 0.22 0.27 0.27 0.24 0.24 0.23 0.18 0.16 0.16 0.10
0.04 0.03 0.04 0.04 0.06 0.08 0.10 0.13 0.18 0.26 0.29 0.40 0.47 0.52 0.61 0.73 0.88 1.04 1.05 0.78 0.55 0.43 0.35 0.28 0.23 0.16 0.15 0.14 0.16 0.19 0.17 0.15 0.17 0.14 0.10 0.08 0.10 0.08
0.08 0.10 0.13 0.14 0.14 0.14 0.19 0.28 0.37 0.46 0.63 0.71 0.71 0.69 0.70 0.81 0.94 0.97 0.79 0.54 0.38 0.25 0.14 0.07 0.05 0.05 0.07 0.06 0.06 0.06 0.05 0.06 0.08 0.08 0.06 0.02 0.02 0.02
0.19 0.23 0.25 0.23 0.21 0.25 0.29 0.41 0.56 0.64 0.67 0.71 0.78 0.84 0.93 1.01 1.00 0.86 0.59 0.31 0.13 0.05 0.02 0.01 0.01 0.01 0.01 0.00 0.00 0.00 0.00 0.01 0.01 0.01 0.01 0.00 0.00 0.00
0.19 0.27 0.33 0.31 0.29 0.32 0.36 0.46 0.61 0.80 0.97 1.04 0.97 1.08 1.08 0.94 0.72 0.49 0.28 0.08 0.03 0.01 0.00 0.00 0.01 0.00 0.00 0.00 0.00 0.00 0.00 0.00 0.00 0.00 0.01 0.03 0.01 0.01
0.07 0.16 0.22 0.29 0.25 0.27 0.39 0.65 0.87 0.99 1.00 0.97 1.07 1.04 0.83 0.59 0.35 0.13 0.03 0.02 0.01 0.00 0.00 0.00 0.00 0.00 0.00 0.00 0.00 0.00 0.00 0.00 0.00 0.00 0.02 0.07 0.06 0.03
0.04 0.08 0.18 0.26 0.28 0.32 0.48 0.69 0.95 1.03 1.01 1.03 0.96 0.72 0.47 0.22 0.04 0.01 0.00 0.00 0.00 0.00 0.00 0.00 0.00 0.00 0.00 0.00 0.00 0.00 0.00 0.01 0.01 0.02 0.05 0.07 0.08 0.12

GFSNE_prec_precacc_024.txt.gz
Total_Precipitation_Accumulation
0.09 0.12 0.15 0.15 0.18 0.18 0.23 0.28 0.37 0.27 0.12 0.06 0.04 0.05 0.05 0.05 0.05 0.08 0.08 0.05 0.07 0.07 0.09 0.09 0.10 0.12 0.18 0.25 0.35 0.43 0.48 0.52 0.54 0.53 0.60 0.70 0.52 0.36
0.07 0.09 0.10 0.13 0.16 0.17 0.18 0.17 0.23 0.29 0.17 0.05 0.04 0.08 0.10 0.10 0.11 0.11 0.09 0.12 0.11 0.09 0.12 0.12 0.10 0.10 0.12 0.15 0.19 0.23 0.29 0.38 0.46 0.50 0.48 0.44 0.36 0.32
0.04 0.08 0.09 0.11 0.11 0.10 0.10 0.11 0.15 0.22 0.23 0.05 0.08 0.11 0.11 0.10 0.08 0.09 0.08 0.05 0.04 0.05 0.06 0.08 0.11 0.13 0.14 0.13 0.15 0.16 0.19 0.24 0.28 0.33 0.40 0.48 0.54 0.51
0.01 0.05 0.07 0.09 0.11 0.11 0.10 0.10 0.13 0.15 0.25 0.15 0.11 0.14 0.12 0.11 0.10 0.12 0.12 0.12 0.13 0.11 0.13 0.12 0.14 0.17 0.20 0.21 0.20 0.19 0.17 0.19 0.26 0.35 0.41 0.44 0.49 0.56
0.00 0.02 0.03 0.06 0.07 0.06 0.07 0.08 0.13 0.21 0.29 0.35 0.20 0.14 0.09 0.11 0.15 0.19 0.19 0.18 0.18 0.22 0.27 0.26 0.28 0.32 0.35 0.35 0.34 0.37 0.41 0.42 0.40 0.38 0.41 0.49 0.58 0.65
0.00 0.00 0.01 0.01 0.02 0.02 0.04 0.12 0.20 0.30 0.33 0.31 0.25 0.14 0.14 0.15 0.21 0.26 0.25 0.26 0.29 0.30 0.33 0.32 0.31 0.30 0.31 0.36 0.41 0.42 0.43 0.44 0.49 0.57 0.62 0.62 0.60 0.61
0.00 0.00 0.00 0.00 0.00 0.04 0.09 0.14 0.29 0.35 0.35 0.37 0.37 0.37 0.39 0.39 0.39 0.39 0.45 0.37 0.31 0.24 0.20 0.22 0.26 0.31 0.32 0.35 0.39 0.37 0.40 0.49 0.56 0.58 0.56 0.61 0.66 0.69
0.00 0.00 0.00 0.00 0.00 0.04 0.09 0.15 0.29 0.47 0.50 0.51 0.52 0.53 0.43 0.41 0.37 0.40 0.48 0.58 0.51 0.28 0.26 0.34 0.39 0.47 0.46 0.46 0.44 0.41 0.40 0.40 0.41 0.44 0.49 0.48 0.47 0.51
0.00 0.00 0.00 0.00 0.01 0.03 0.07 0.11 0.21 0.38 0.44 0.44 0.46 0.42 0.39 0.31 0.31 0.37 0.45 0.54 0.49 0.32 0.37 0.45 0.37 0.40 0.40 0.45 0.53 0.46 0.46 0.44 0.43 0.43 0.43 0.42 0.40 0.45
0.00 0.00 0.01 0.02 0.02 0.03 0.07 0.17 0.17 0.14 0.19 0.26 0.32 0.34 0.37 0.47 0.65 0.78 0.83 0.84 0.65 0.45 0.40 0.44 0.28 0.33 0.37 0.44 0.56 0.45 0.38 0.38 0.40 0.39 0.39 0.40 0.43 0.46
0.00 0.01 0.03 0.02 0.01 0.07 0.19 0.21 0.15 0.13 0.19 0.26 0.33 0.41 0.41 0.37 0.40 0.56 0.68 0.62 0.59 0.38 0.30 0.35 0.31 0.34 0.40 0.39 0.45 0.45 0.36 0.34 0.37 0.38 0.38 0.39 0.40 0.42
0.01 0.02 0.02 0.02 0.06 0.18 0.16 0.21 0.24 0.16 0.20 0.28 0.33 0.39 0.39 0.38 0.43 0.44 0.69 0.95 0.83 0.63 0.37 0.48 0.47 0.44 0.51 0.35 0.39 0.50 0.46 0.42 0.39 0.37 0.34 0.32 0.34 0.34
0.08 0.02 0.03 0.10 0.19 0.12 0.13 0.18 0.21 0.22 0.28 0.30 0.32 0.37 0.39 0.39 0.44 0.59 0.86 1.24 1.23 0.92 0.53 0.65 0.64 0.47 0.56 0.42 0.41 0.50 0.42 0.44 0.44 0.42 0.39 0.35 0.28 0.23
0.03 0.01 0.07 0.11 0.05 0.05 0.08 0.16 0.29 0.29 0.24 0.32 0.45 0.51 0.49 0.49 0.57 0.63 0.69 0.75 0.78 0.81 0.62 0.65 0.74 0.49 0.50 0.51 0.48 0.55 0.54 0.47 0.35 0.32 0.28 0.34 0.37 0.34
0.02 0.10 0.07 0.02 0.03 0.04 0.10 0.16 0.16 0.14 0.31 0.56 0.75 0.78 0.72 0.76 0.79 0.71 0.65 0.61 0.62 0.65 0.67 0.62 0.60 0.61 0.56 0.46 0.38 0.45 0.52 0.60 0.46 0.30 0.26 0.23 0.21 0.23
0.11 0.06 0.02 0.03 0.05 0.06 0.08 0.07 0.07 0.15 0.30 0.43 0.53 0.55 0.66 0.69 0.65 0.74 0.87 0.84 0.85 0.79 0.65 0.53 0.48 0.46 0.35 0.32 0.32 0.40 0.42 0.48 0.51 0.38 0.28 0.27 0.28 0.25
0.04 0.01 0.01 0.02 0.02 0.02 0.04 0.06 0.11 0.22 0.33 0.33 0.44 0.49 0.65 0.74 0.76 0.85 1.00 0.93 0.75 0.62 0.53 0.43 0.33 0.30 0.28 0.26 0.28 0.34 0.38 0.40 0.41 0.37 0.25 0.23 0.27 0.19
0.04 0.03 0.04 0.05 0.07 0.09 0.10 0.13 0.19 0.28 0.32 0.43 0.51 0.56 0.67 0.78 0.94 1.10 1.13 0.85 0.62 0.49 0.42 0.35 0.28 0.23 0.22 0.19 0.23 0.28 0.30 0.34 0.34 0.27 0.16 0.11 0.17 0.18
0.08 0.11 0.14 0.14 0.14 0.15 0.19 0.29 0.40 0.48 0.67 0.77 0.77 0.77 0.77 0.89 1.03 1.05 0.85 0.60 0.42 0.27 0.15 0.09 0.08 0.12 0.16 0.14 0.16 0.18 0.16 0.20 0.18 0.18 0.14 0.06 0.07 0.10
0.20 0.23 0.26 0.24 0.22 0.25 0.30 0.45 0.60 0.67 0.71 0.77 0.85 0.89 0.99 1.08 1.05 0.90 0.61 0.32 0.13 0.05 0.03 0.02 0.01 0.03 0.05 0.06 0.05 0.08 0.10 0.11 0.08 0.06 0.08 0.07 0.05 0.04
0.19 0.27 0.34 0.32 0.30 0.33 0.38 0.51 0.66 0.87 1.05 1.10 1.01 1.10 1.09 0.95 0.72 0.50 0.28 0.08 0.03 0.01 0.00 0.00 0.01 0.00 0.00 0.00 0.01 0.02 0.04 0.05 0.03 0.02 0.03 0.05 0.03 0.02
0.08 0.16 0.23 0.29 0.26 0.29 0.44 0.70 0.92 1.02 1.03 0.99 1.08 1.05 0.84 0.60 0.35 0.13 0.04 0.03 0.02 0.01 0.01 0.01 0.00 0.00 0.00 0.00 0.00 0.00 0.00 0.01 0.00 0.00 0.02 0.07 0.06 0.03
0.05 0.09 0.18 0.27 0.29 0.35 0.53 0.74 0.99 1.06 1.03 1.05 0.97 0.73 0.48 0.23 0.05 0.01 0.01 0.02 0.02 0.02 0.01 0.01 0.00 0.00 0.00 0.00 0.00 0.00 0.00 0.01 0.01 0.02 0.05 0.07 0.09 0.12

GFSNE_prec_precacc_027.txt.gz
Total_Precipitation_Accumulation
0.09 0.12 0.15 0.15 0.18 0.18 0.23 0.28 0.37 0.27 0.12 0.06 0.04 0.05 0.05 0.05 0.05 0.08 0.08 0.05 0.07 0.07 0.09 0.09 0.10 0.12 0.18 0.25 0.35 0.43 0.48 0.52 0.56 0.58 0.69 0.86 0.95 0.95
0.07 0.09 0.10 0.13 0.16 0.17 0.18 0.17 0.23 0.29 0.17 0.05 0.04 0.08 0.10 0.10 0.11 0.11 0.09 0.12 0.11 0.09 0.12 0.12 0.10 0.10 0.12 0.15 0.19 0.23 0.30 0.38 0.46 0.51 0.51 0.51 0.53 0.62
0.04 0.08 0.09 0.11 0.11 0.10 0.10 0.11 0.15 0.22 0.23 0.05 0.08 0.11 0.11 0.10 0.08 0.09 0.08 0.05 0.04 0.05 0.06 0.08 0.11 0.13 0.14 0.13 0.15 0.16 0.19 0.24 0.29 0.34 0.42 0.51 0.61 0.63
0.01 0.05 0.07 0.09 0.11 0.11 0.10 0.10 0.13 0.15 0.26 0.15 0.11 0.14 0.12 0.11 0.10 0.12 0.12 0.12 0.13 0.11 0.13 0.12 0.14 0.17 0.20 0.21 0.20 0.19 0.17 0.19 0.26 0.35 0.41 0.45 0.51 0.61
0.00 0.02 0.03 0.06 0.07 0.06 0.07 0.08 0.13 0.22 0.30 0.36 0.21 0.14 0.09 0.11 0.15 0.19 0.19 0.18 0.18 0.22 0.27 0.26 0.28 0.32 0.35 0.35 0.34 0.37 0.41 0.42 0.41 0.38 0.41 0.49 0.58 0.66
0.00 0.00 0.01 0.01 0.02 0.02 0.04 0.12 0.21 0.31 0.34 0.31 0.25 0.15 0.14 0.15 0.21 0.26 0.25 0.26 0.29 0.30 0.33 0.32 0.31 0.30 0.31 0.36 0.41 0.43 0.43 0.45 0.50 0.57 0.62 0.62 0.60 0.61
0.00 0.00 0.00 0.00 0.00 0.04 0.09 0.14 0.30 0.37 0.36 0.38 0.39 0.40 0.41 0.40 0.39 0.40 0.45 0.37 0.31 0.24 0.20 0.22 0.26 0.31 0.32 0.35 0.40 0.37 0.40 0.49 0.56 0.58 0.57 0.62 0.66 0.70
0.00 0.00 0.00 0.00 0.00 0.04 0.09 0.15 0.29 0.47 0.52 0.58 0.59 0.56 0.43 0.41 0.38 0.41 0.48 0.58 0.51 0.29 0.27 0.35 0.40 0.47 0.46 0.46 0.44 0.41 0.40 0.40 0.41 0.44 0.49 0.48 0.47 0.51
0.00 0.00 0.00 0.00 0.01 0.03 0.08 0.11 0.21 0.40 0.49 0.47 0.47 0.42 0.39 0.31 0.31 0.38 0.47 0.56 0.51 0.32 0.38 0.46 0.37 0.40 0.40 0.46 0.53 0.46 0.46 0.45 0.43 0.43 0.43 0.43 0.41 0.45
0.00 0.00 0.01 0.02 0.03 0.03 0.07 0.19 0.20 0.16 0.19 0.26 0.32 0.34 0.38 0.47 0.67 0.82 0.86 0.86 0.66 0.45 0.41 0.47 0.30 0.34 0.37 0.44 0.56 0.46 0.39 0.38 0.41 0.40 0.39 0.40 0.43 0.46
0.00 0.01 0.03 0.02 0.02 0.07 0.21 0.25 0.16 0.13 0.19 0.26 0.33 0.41 0.41 0.37 0.40 0.56 0.71 0.65 0.61 0.38 0.31 0.38 0.33 0.36 0.41 0.39 0.45 0.46 0.37 0.36 0.40 0.41 0.40 0.41 0.41 0.43
0.01 0.02 0.02 0.03 0.06 0.19 0.17 0.21 0.24 0.16 0.20 0.28 0.33 0.39 0.39 0.38 0.44 0.45 0.73 1.06 0.87 0.65 0.38 0.52 0.50 0.46 0.53 0.36 0.39 0.51 0.47 0.43 0.41 0.38 0.35 0.33 0.35 0.34
0.09 0.03 0.03 0.10 0.21 0.13 0.13 0.18 0.21 0.22 0.28 0.30 0.32 0.37 0.39 0.39 0.44 0.59 0.87 1.30 1.32 0.98 0.53 0.68 0.71 0.49 0.59 0.44 0.41 0.50 0.42 0.44 0.44 0.42 0.39 0.35 0.28 0.23
0.04 0.02 0.07 0.13 0.05 0.05 0.08 0.16 0.29 0.29 0.24 0.32 0.46 0.51 0.50 0.49 0.57 0.64 0.69 0.76 0.81 0.87 0.64 0.68 0.84 0.54 0.54 0.52 0.48 0.55 0.54 0.47 0.36 0.34 0.29 0.34 0.39 0.40
0.03 0.11 0.10 0.02 0.03 0.04 0.10 0.16 0.16 0.14 0.31 0.58 0.76 0.79 0.72 0.77 0.80 0.72 0.66 0.62 0.63 0.67 0.71 0.70 0.69 0.65 0.59 0.48 0.39 0.45 0.53 0.64 0.53 0.35 0.29 0.24 0.21 0.25
0.14 0.09 0.02 0.03 0.05 0.06 0.08 0.07 0.07 0.16 0.31 0.47 0.56 0.57 0.67 0.71 0.68 0.78 0.93 0.88 0.91 0.82 0.69 0.58 0.54 0.51 0.39 0.35 0.35 0.42 0.45 0.55 0.64 0.50 0.36 0.34 0.33 0.29
0.05 0.01 0.01 0.02 0.02 0.02 0.04 0.06 0.11 0.22 0.34 0.35 0.47 0.52 0.68 0.77 0.79 0.90 1.09 1.00 0.80 0.66 0.56 0.46 0.36 0.34 0.34 0.32 0.32 0.39 0.41 0.47 0.59 0.56 0.35 0.40 0.48 0.41
0.04 0.03 0.04 0.05 0.07 0.09 0.10 0.13 0.19 0.29 0.34 0.47 0.54 0.61 0.73 0.83 1.00 1.16 1.17 0.88 0.64 0.51 0.44 0.37 0.31 0.26 0.28 0.25 0.29 0.34 0.36 0.44 0.56 0.50 0.34 0.19 0.32 0.39
0.08 0.11 0.14 0.15 0.15 0.15 0.19 0.30 0.42 0.50 0.71 0.81 0.82 0.80 0.80 0.92 1.06 1.07 0.86 0.61 0.43 0.27 0.16 0.10 0.12 0.19 0.22 0.18 0.22 0.26 0.24 0.32 0.32 0.30 0.23 0.11 0.12 0.22
0.20 0.24 0.26 0.24 0.22 0.26 0.31 0.47 0.63 0.69 0.74 0.79 0.86 0.90 1.00 1.10 1.07 0.91 0.62 0.34 0.14 0.05 0.03 0.02 0.03 0.09 0.13 0.13 0.11 0.21 0.21 0.21 0.15 0.11 0.12 0.11 0.13 0.15
0.20 0.28 0.34 0.32 0.30 0.35 0.41 0.54 0.70 0.90 1.07 1.11 1.03 1.11 1.11 0.98 0.74 0.52 0.31 0.11 0.06 0.03 0.01 0.00 0.01 0.01 0.02 0.05 0.07 0.12 0.20 0.18 0.10 0.05 0.06 0.07 0.07 0.12
0.09 0.17 0.23 0.30 0.27 0.32 0.47 0.73 0.94 1.03 1.04 1.01 1.09 1.07 0.86 0.62 0.37 0.15 0.05 0.05 0.05 0.05 0.04 0.04 0.01 0.00 0.00 0.01 0.03 0.05 0.08 0.11 0.08 0.05 0.04 0.08 0.08 0.07
0.05 0.10 0.19 0.28 0.31 0.38 0.56 0.76 1.00 1.07 1.04 1.07 1.00 0.75 0.50 0.25 0.06 0.02 0.02 0.03 0.04 0.03 0.02 0.02 0.01 0.00 0.00 0.00 0.00 0.01 0.02 0.03 0.04 0.05 0.07 0.07 0.09 0.13

GFSNE_prec_precacc_030.txt.gz
Total_Precipitation_Accumulation
0.09 0.12 0.15 0.15 0.18 0.18 0.23 0.28 0.37 0.27 0.12 0.06 0.04 0.05 0.05 0.05 0.05 0.08 0.08 0.05 0.07 0.07 0.09 0.09 0.10 0.12 0.18 0.25 0.35 0.43 0.48 0.53 0.56 0.58 0.70 0.87 0.97 0.99
0.07 0.09 0.10 0.13 0.16 0.17 0.18 0.17 0.23 0.29 0.17 0.05 0.04 0.08 0.10 0.10 0.11 0.11 0.09 0.12 0.11 0.09 0.12 0.12 0.10 0.10 0.12 0.15 0.19 0.23 0.30 0.38 0.46 0.51 0.51 0.52 0.55 0.64
0.04 0.08 0.09 0.11 0.11 0.10 0.10 0.11 0.15 0.22 0.23 0.05 0.08 0.11 0.11 0.10 0.08 0.09 0.08 0.05 0.04 0.05 0.06 0.08 0.11 0.13 0.14 0.13 0.15 0.16 0.19 0.24 0.29 0.34 0.42 0.51 0.62 0.66
0.01 0.05 0.07 0.09 0.11 0.11 0.10 0.10 0.13 0.15 0.26 0.16 0.11 0.14 0.12 0.11 0.10 0.12 0.12 0.12 0.13 0.11 0.13 0.12 0.14 0.17 0.20 0.21 0.20 0.19 0.18 0.19 0.26 0.36 0.41 0.45 0.51 0.61
0.00 0.02 0.03 0.06 0.07 0.06 0.07 0.08 0.13 0.22 0.30 0.37 0.21 0.14 0.09 0.11 0.15 0.19 0.20 0.18 0.18 0.22 0.27 0.26 0.28 0.32 0.35 0.35 0.34 0.38 0.42 0.43 0.41 0.39 0.42 0.49 0.58 0.66
0.00 0.00 0.01 0.01 0.02 0.02 0.04 0.12 0.21 0.32 0.34 0.32 0.26 0.15 0.15 0.16 0.23 0.27 0.25 0.26 0.29 0.30 0.33 0.32 0.31 0.30 0.32 0.37 0.43 0.44 0.44 0.46 0.51 0.59 0.64 0.64 0.61 0.62
0.00 0.00 0.00 0.00 0.00 0.04 0.09 0.14 0.31 0.37 0.40 0.42 0.40 0.44 0.46 0.42 0.39 0.40 0.45 0.37 0.31 0.24 0.20 0.22 0.26 0.31 0.32 0.35 0.40 0.37 0.40 0.50 0.57 0.60 0.59 0.64 0.68 0.70
0.00 0.00 0.00 0.00 0.00 0.04 0.09 0.16 0.30 0.49 0.53 0.62 0.67 0.61 0.44 0.41 0.38 0.41 0.48 0.59 0.52 0.29 0.28 0.35 0.40 0.47 0.46 0.46 0.44 0.42 0.42 0.43 0.44 0.46 0.49 0.49 0.48 0.51
0.00 0.00 0.00 0.00 0.01 0.03 0.08 0.12 0.22 0.43 0.52 0.49 0.48 0.43 0.39 0.31 0.31 0.40 0.48 0.58 0.52 0.33 0.39 0.46 0.38 0.40 0.41 0.46 0.53 0.47 0.47 0.46 0.44 0.45 0.45 0.44 0.42 0.45
0.00 0.00 0.01 0.02 0.03 0.04 0.08 0.19 0.21 0.16 0.19 0.26 0.32 0.34 0.38 0.47 0.68 0.85 0.89 0.88 0.66 0.45 0.41 0.48 0.30 0.35 0.37 0.44 0.57 0.47 0.40 0.39 0.42 0.41 0.40 0.41 0.44 0.47
0.00 0.01 0.03 0.02 0.02 0.08 0.22 0.28 0.16 0.13 0.19 0.26 0.33 0.41 0.41 0.37 0.40 0.57 0.73 0.67 0.63 0.39 0.31 0.38 0.33 0.36 0.41 0.39 0.45 0.46 0.41 0.41 0.44 0.44 0.42 0.42 0.42 0.44
0.02 0.02 0.03 0.03 0.07 0.22 0.19 0.22 0.25 0.16 0.20 0.28 0.34 0.39 0.39 0.38 0.44 0.45 0.75 1.14 0.91 0.68 0.38 0.53 0.52 0.46 0.56 0.36 0.39 0.53 0.49 0.43 0.41 0.39 0.36 0.34 0.37 0.36
0.10 0.03 0.03 0.11 0.24 0.16 0.14 0.18 0.21 0.22 0.29 0.30 0.32 0.37 0.39 0.40 0.44 0.59 0.88 1.37 1.42 1.04 0.54 0.73 0.79 0.51 0.63 0.45 0.41 0.50 0.42 0.44 0.44 0.42 0.39 0.35 0.28 0.24
0.04 0.02 0.08 0.16 0.07 0.05 0.09 0.16 0.30 0.29 0.24 0.33 0.46 0.52 0.50 0.50 0.57 0.64 0.70 0.78 0.85 0.95 0.68 0.74 0.97 0.59 0.62 0.56 0.49 0.55 0.54 0.47 0.37 0.35 0.29 0.35 0.39 0.40
0.03 0.12 0.11 0.02 0.03 0.04 0.10 0.16 0.16 0.15 0.32 0.61 0.78 0.80 0.73 0.78 0.81 0.74 0.67 0.63 0.66 0.69 0.77 0.76 0.77 0.69 0.61 0.50 0.40 0.45 0.55 0.65 0.60 0.47 0.35 0.24 0.22 0.25
0.15 0.11 0.02 0.03 0.05 0.06 0.08 0.07 0.07 0.16 0.35 0.52 0.60 0.58 0.68 0.72 0.70 0.80 0.97 0.92 0.94 0.83 0.70 0.59 0.56 0.53 0.40 0.36 0.38 0.44 0.47 0.58 0.70 0.63 0.47 0.37 0.35 0.29
0.06 0.01 0.01 0.02 0.02 0.02 0.04 0.06 0.11 0.24 0.37 0.38 0.49 0.54 0.69 0.78 0.81 0.91 1.12 1.02 0.84 0.68 0.58 0.46 0.37 0.35 0.35 0.38 0.37 0.43 0.45 0.52 0.69 0.75 0.55 0.55 0.58 0.48
0.04 0.03 0.04 0.05 0.07 0.09 0.10 0.14 0.20 0.31 0.36 0.48 0.56 0.62 0.74 0.85 1.02 1.18 1.18 0.91 0.69 0.54 0.46 0.38 0.33 0.27 0.29 0.28 0.34 0.40 0.43 0.50 0.67 0.68 0.57 0.33 0.49 0.61
0.08 0.11 0.15 0.15 0.15 0.15 0.20 0.32 0.45 0.51 0.73 0.82 0.83 0.83 0.83 0.94 1.08 1.09 0.88 0.63 0.45 0.30 0.18 0.11 0.16 0.23 0.25 0.21 0.26 0.35 0.31 0.38 0.39 0.40 0.35 0.16 0.21 0.46
0.20 0.24 0.27 0.24 0.22 0.27 0.33 0.50 0.64 0.70 0.74 0.80 0.88 0.93 1.04 1.14 1.11 0.94 0.64 0.37 0.17 0.08 0.04 0.02 0.05 0.14 0.18 0.18 0.16 0.35 0.32 0.30 0.19 0.18 0.20 0.18 0.24 0.33
0.20 0.28 0.35 0.33 0.31 0.37 0.44 0.56 0.71 0.91 1.09 1.13 1.05 1.14 1.14 1.02 0.76 0.53 0.32 0.13 0.09 0.06 0.04 0.01 0.01 0.03 0.07 0.09 0.12 0.19 0.34 0.26 0.12 0.08 0.10 0.09 0.14 0.19
0.09 0.17 0.23 0.30 0.29 0.34 0.49 0.74 0.95 1.04 1.05 1.02 1.11 1.09 0.90 0.64 0.38 0.16 0.07 0.07 0.06 0.07 0.07 0.05 0.01 0.01 0.02 0.04 0.08 0.11 0.15 0.19 0.14 0.08 0.07 0.10 0.09 0.10
0.05 0.10 0.19 0.29 0.33 0.40 0.57 0.77 1.01 1.08 1.06 1.09 1.01 0.78 0.53 0.27 0.08 0.04 0.04 0.04 0.06 0.05 0.03 0.02 0.01 0.00 0.01 0.02 0.03 0.06 0.08 0.10 0.10 0.08 0.11 0.11 0.13 0.16

GFSNE_prec_precacc_033.txt.gz
Total_Precipitation_Accumulation
0.09 0.12 0.15 0.15 0.18 0.18 0.23 0.28 0.37 0.27 0.12 0.06 0.04 0.05 0.05 0.05 0.05 0.08 0.08 0.05 0.07 0.07 0.09 0.09 0.10 0.13 0.18 0.26 0.35 0.43 0.48 0.53 0.56 0.58 0.70 0.87 0.97 1.00
0.07 0.09 0.10 0.13 0.16 0.17 0.18 0.17 0.23 0.29 0.17 0.05 0.04 0.08 0.10 0.10 0.11 0.11 0.09 0.12 0.11 0.09 0.12 0.12 0.10 0.10 0.12 0.16 0.19 0.23 0.30 0.39 0.47 0.51 0.52 0.52 0.55 0.64
0.04 0.08 0.09 0.11 0.11 0.10 0.10 0.11 0.15 0.22 0.23 0.05 0.08 0.11 0.11 0.10 0.08 0.09 0.08 0.05 0.04 0.05 0.07 0.09 0.12 0.14 0.14 0.13 0.15 0.17 0.20 0.25 0.30 0.35 0.43 0.52 0.63 0.67
0.01 0.05 0.07 0.09 0.11 0.11 0.10 0.10 0.13 0.15 0.26 0.16 0.11 0.14 0.12 0.11 0.10 0.12 0.12 0.12 0.13 0.12 0.13 0.12 0.14 0.17 0.20 0.21 0.21 0.19 0.18 0.20 0.27 0.37 0.43 0.47 0.53 0.63
0.00 0.02 0.03 0.06 0.07 0.06 0.07 0.08 0.13 0.22 0.30 0.38 0.22 0.14 0.09 0.11 0.15 0.20 0.20 0.18 0.18 0.22 0.27 0.26 0.28 0.32 0.35 0.35 0.35 0.38 0.43 0.45 0.44 0.42 0.45 0.52 0.61 0.68
0.00 0.00 0.01 0.01 0.02 0.02 0.04 0.12 0.21 0.32 0.34 0.32 0.31 0.18 0.15 0.17 0.24 0.28 0.25 0.26 0.29 0.30 0.33 0.32 0.31 0.30 0.32 0.37 0.43 0.45 0.45 0.46 0.51 0.59 0.65 0.65 0.63 0.64
0.00 0.00 0.00 0.00 0.00 0.04 0.09 0.14 0.31 0.38 0.44 0.48 0.43 0.46 0.49 0.42 0.39 0.40 0.45 0.37 0.31 0.24 0.20 0.22 0.27 0.31 0.32 0.35 0.40 0.37 0.40 0.50 0.58 0.61 0.61 0.67 0.71 0.73
0.00 0.00 0.00 0.00 0.00 0.04 0.09 0.16 0.31 0.52 0.56 0.66 0.74 0.63 0.44 0.41 0.38 0.41 0.49 0.60 0.54 0.29 0.28 0.35 0.40 0.47 0.46 0.46 0.45 0.42 0.43 0.44 0.47 0.49 0.54 0.52 0.50 0.53
0.00 0.00 0.00 0.00 0.01 0.03 0.08 0.13 0.23 0.46 0.56 0.51 0.48 0.43 0.39 0.31 0.33 0.45 0.52 0.63 0.55 0.33 0.39 0.46 0.38 0.40 0.41 0.46 0.54 0.47 0.48 0.47 0.46 0.47 0.47 0.46 0.43 0.46
0.00 0.00 0.01 0.02 0.03 0.04 0.08 0.20 0.23 0.18 0.20 0.26 0.33 0.34 0.38 0.49 0.70 0.87 0.91 0.90 0.67 0.45 0.42 0.49 0.31 0.35 0.37 0.44 0.57 0.47 0.40 0.40 0.44 0.44 0.42 0.43 0.45 0.48
0.00 0.01 0.04 0.02 0.02 0.09 0.24 0.32 0.18 0.13 0.19 0.26 0.34 0.42 0.41 0.37 0.41 0.60 0.78 0.70 0.64 0.39 0.31 0.39 0.34 0.36 0.41 0.39 0.45 0.46 0.41 0.44 0.48 0.48 0.45 0.45 0.45 0.45
0.02 0.02 0.03 0.03 0.07 0.26 0.22 0.23 0.25 0.16 0.21 0.29 0.34 0.39 0.39 0.38 0.44 0.46 0.80 1.23 0.95 0.71 0.38 0.57 0.55 0.47 0.61 0.37 0.39 0.53 0.49 0.43 0.41 0.39 0.36 0.35 0.37 0.37
0.10 0.03 0.03 0.11 0.28 0.18 0.14 0.18 0.21 0.23 0.29 0.30 0.32 0.37 0.39 0.40 0.44 0.60 0.92 1.47 1.54 1.11 0.54 0.80 0.87 0.54 0.68 0.47 0.41 0.50 0.42 0.44 0.44 0.42 0.39 0.35 0.28 0.24
0.04 0.02 0.08 0.18 0.07 0.05 0.09 0.17 0.30 0.29 0.24 0.33 0.46 0.52 0.51 0.51 0.58 0.65 0.71 0.81 0.89 1.04 0.72 0.80 1.06 0.64 0.67 0.57 0.49 0.55 0.54 0.47 0.38 0.35 0.29 0.35 0.40 0.41
0.03 0.14 0.13 0.03 0.03 0.04 0.10 0.16 0.16 0.15 0.34 0.62 0.78 0.81 0.74 0.79 0.82 0.75 0.67 0.63 0.66 0.71 0.79 0.80 0.83 0.73 0.64 0.51 0.41 0.46 0.57 0.66 0.65 0.56 0.38 0.25 0.22 0.25
0.16 0.13 0.02 0.03 0.05 0.06 0.08 0.07 0.07 0.17 0.39 0.56 0.62 0.59 0.69 0.73 0.71 0.82 1.00 0.93 0.96 0.84 0.70 0.62 0.63 0.57 0.41 0.36 0.42 0.47 0.52 0.65 0.75 0.74 0.60 0.41 0.35 0.29
0.07 0.01 0.01 0.02 0.02 0.02 0.04 0.06 0.11 0.24 0.39 0.39 0.51 0.56 0.70 0.79 0.81 0.92 1.16 1.05 0.86 0.71 0.60 0.47 0.39 0.36 0.35 0.39 0.41 0.48 0.52 0.59 0.77 0.95 0.75 0.61 0.63 0.51
0.04 0.03 0.04 0.05 0.07 0.09 0.11 0.14 0.20 0.31 0.37 0.50 0.57 0.64 0.76 0.87 1.04 1.18 1.19 0.93 0.72 0.56 0.48 0.39 0.34 0.27 0.30 0.29 0.42 0.51 0.52 0.60 0.79 0.84 0.86 0.42 0.59 0.74
0.08 0.11 0.15 0.15 0.15 0.15 0.21 0.33 0.46 0.52 0.74 0.84 0.86 0.85 0.84 0.95 1.09 1.10 0.89 0.64 0.46 0.32 0.19 0.11 0.18 0.24 0.27 0.22 0.28 0.48 0.39 0.50 0.49 0.50 0.53 0.29 0.38 0.69
0.20 0.25 0.27 0.24 0.23 0.28 0.35 0.51 0.66 0.71 0.75 0.82 0.90 0.94 1.05 1.15 1.13 0.95 0.65 0.39 0.20 0.09 0.04 0.02 0.07 0.16 0.21 0.21 0.20 0.51 0.44 0.36 0.25 0.27 0.27 0.25 0.38 0.50
0.20 0.28 0.35 0.33 0.32 0.38 0.45 0.57 0.72 0.93 1.11 1.15 1.06 1.15 1.15 1.05 0.78 0.54 0.33 0.14 0.10 0.07 0.04 0.01 0.03 0.07 0.11 0.10 0.15 0.23 0.44 0.33 0.14 0.13 0.16 0.11 0.20 0.24
0.09 0.17 0.24 0.31 0.30 0.36 0.50 0.75 0.97 1.05 1.06 1.04 1.13 1.10 0.91 0.67 0.42 0.18 0.08 0.08 0.08 0.09 0.07 0.05 0.01 0.03 0.04 0.05 0.11 0.14 0.20 0.24 0.18 0.11 0.09 0.11 0.10 0.13
0.06 0.10 0.19 0.30 0.34 0.41 0.58 0.78 1.02 1.09 1.07 1.11 1.02 0.78 0.55 0.30 0.10 0.05 0.05 0.05 0.07 0.06 0.03 0.02 0.01 0.01 0.03 0.05 0.05 0.09 0.10 0.13 0.13 0.12 0.23 0.16 0.17 0.21

GFSNE_prec_precacc_036.txt.gz
Total_Precipitation_Accumulation
0.09 0.12 0.15 0.15 0.18 0.18 0.23 0.28 0.37 0.27 0.12 0.06 0.04 0.05 0.05 0.05 0.05 0.08 0.08 0.05 0.07 0.07 0.09 0.09 0.10 0.13 0.18 0.26 0.36 0.44 0.50 0.55 0.57 0.58 0.70 0.87 0.97 1.00
0.07 0.09 0.10 0.13 0.16 0.17 0.18 0.17 0.23 0.29 0.17 0.05 0.04 0.08 0.10 0.10 0.11 0.11 0.09 0.12 0.11 0.09 0.12 0.12 0.11 0.12 0.14 0.17 0.21 0.24 0.31 0.39 0.47 0.53 0.52 0.54 0.56 0.65
0.04 0.08 0.09 0.11 0.11 0.10 0.10 0.11 0.15 0.22 0.23 0.05 0.08 0.11 0.11 0.10 0.08 0.09 0.08 0.05 0.04 0.05 0.07 0.10 0.13 0.14 0.14 0.14 0.16 0.17 0.21 0.25 0.31 0.36 0.45 0.54 0.66 0.69
0.01 0.05 0.07 0.09 0.11 0.11 0.10 0.10 0.13 0.15 0.26 0.16 0.11 0.14 0.12 0.11 0.10 0.12 0.12 0.13 0.14 0.12 0.13 0.12 0.14 0.17 0.20 0.21 0.21 0.19 0.18 0.20 0.27 0.37 0.43 0.48 0.54 0.64
0.00 0.02 0.03 0.06 0.07 0.06 0.07 0.08 0.13 0.22 0.30 0.39 0.22 0.14 0.09 0.11 0.15 0.20 0.20 0.19 0.18 0.22 0.27 0.26 0.28 0.32 0.35 0.35 0.35 0.39 0.44 0.47 0.46 0.43 0.46 0.55 0.64 0.72
0.00 0.00 0.01 0.01 0.02 0.02 0.04 0.12 0.21 0.32 0.34 0.32 0.33 0.21 0.16 0.17 0.25 0.28 0.25 0.26 0.29 0.30 0.33 0.32 0.31 0.30 0.32 0.37 0.43 0.45 0.45 0.46 0.52 0.59 0.65 0.65 0.63 0.64
0.00 0.00 0.00 0.00 0.00 0.04 0.10 0.15 0.31 0.39 0.48 0.55 0.46 0.49 0.53 0.43 0.39 0.40 0.45 0.37 0.31 0.24 0.21 0.22 0.27 0.32 0.33 0.35 0.40 0.37 0.41 0.50 0.58 0.61 0.62 0.69 0.73 0.75
0.00 0.00 0.00 0.00 0.00 0.04 0.09 0.16 0.31 0.54 0.59 0.73 0.84 0.68 0.44 0.41 0.38 0.41 0.51 0.64 0.56 0.29 0.28 0.35 0.40 0.47 0.46 0.46 0.45 0.42 0.43 0.45 0.47 0.50 0.56 0.55 0.54 0.56
0.00 0.00 0.00 0.00 0.01 0.03 0.08 0.14 0.24 0.49 0.63 0.55 0.49 0.43 0.39 0.32 0.39 0.51 0.55 0.64 0.56 0.33 0.39 0.47 0.38 0.40 0.41 0.46 0.54 0.47 0.48 0.47 0.47 0.47 0.48 0.47 0.45 0.48
0.00 0.00 0.01 0.02 0.03 0.05 0.08 0.23 0.29 0.21 0.20 0.26 0.33 0.35 0.39 0.51 0.72 0.88 0.94 0.92 0.67 0.45 0.42 0.52 0.31 0.35 0.37 0.44 0.57 0.47 0.40 0.41 0.44 0.45 0.44 0.45 0.46 0.49
0.00 0.01 0.04 0.03 0.02 0.09 0.28 0.37 0.18 0.13 0.19 0.26 0.36 0.43 0.41 0.37 0.41 0.65 0.82 0.73 0.66 0.39 0.31 0.41 0.35 0.36 0.41 0.39 0.45 0.46 0.41 0.44 0.49 0.50 0.49 0.51 0.52 0.50
0.02 0.02 0.03 0.03 0.08 0.29 0.24 0.23 0.25 0.16 0.23 0.30 0.34 0.39 0.39 0.38 0.44 0.47 0.86 1.30 0.98 0.73 0.38 0.61 0.57 0.49 0.65 0.37 0.39 0.53 0.49 0.43 0.42 0.40 0.37 0.36 0.39 0.38
0.11 0.03 0.03 0.12 0.31 0.19 0.14 0.19 0.22 0.23 0.30 0.30 0.32 0.37 0.39 0.40 0.45 0.61 0.95 1.55 1.64 1.17 0.54 0.88 0.95 0.56 0.72 0.49 0.41 0.50 0.42 0.44 0.45 0.43 0.39 0.35 0.28 0.24
0.04 0.02 0.09 0.20 0.08 0.05 0.09 0.17 0.31 0.30 0.24 0.33 0.46 0.52 0.51 0.51 0.58 0.65 0.72 0.83 0.94 1.15 0.77 0.86 1.17 0.69 0.72 0.59 0.49 0.55 0.54 0.47 0.41 0.38 0.32 0.37 0.41 0.41
0.04 0.15 0.14 0.03 0.03 0.04 0.10 0.16 0.16 0.15 0.35 0.63 0.79 0.81 0.75 0.80 0.83 0.75 0.67 0.64 0.68 0.73 0.83 0.84 0.90 0.79 0.68 0.53 0.42 0.46 0.60 0.67 0.71 0.65 0.45 0.28 0.23 0.25
0.17 0.13 0.02 0.03 0.05 0.06 0.08 0.07 0.07 0.17 0.41 0.58 0.64 0.60 0.70 0.73 0.72 0.83 1.02 0.94 0.97 0.84 0.70 0.62 0.68 0.62 0.43 0.37 0.46 0.50 0.54 0.76 0.85 0.87 0.73 0.45 0.35 0.30
0.07 0.01 0.01 0.02 0.02 0.02 0.04 0.06 0.11 0.24 0.40 0.40 0.52 0.57 0.70 0.79 0.82 0.93 1.17 1.06 0.88 0.73 0.60 0.47 0.39 0.37 0.36 0.42 0.45 0.54 0.61 0.66 0.86 1.10 0.92 0.67 0.64 0.51
0.05 0.03 0.04 0.05 0.07 0.09 0.11 0.14 0.20 0.31 0.37 0.51 0.58 0.64 0.78 0.87 1.04 1.19 1.20 0.94 0.73 0.57 0.49 0.40 0.35 0.28 0.30 0.29 0.47 0.64 0.61 0.67 0.89 0.98 1.00 0.44 0.62 0.77
0.08 0.12 0.15 0.15 0.15 0.16 0.21 0.34 0.46 0.52 0.74 0.85 0.87 0.87 0.86 0.96 1.09 1.11 0.91 0.64 0.47 0.34 0.19 0.13 0.20 0.26 0.29 0.23 0.29 0.60 0.51 0.60 0.60 0.63 0.66 0.37 0.45 0.79
0.20 0.25 0.27 0.25 0.23 0.29 0.35 0.52 0.67 0.71 0.75 0.83 0.92 0.95 1.06 1.17 1.14 0.97 0.67 0.41 0.22 0.10 0.04 0.03 0.08 0.19 0.25 0.24 0.24 0.64 0.56 0.44 0.31 0.38 0.39 0.31 0.50 0.61
0.20 0.28 0.35 0.33 0.33 0.39 0.46 0.58 0.73 0.94 1.12 1.17 1.08 1.17 1.16 1.07 0.79 0.55 0.35 0.15 0.11 0.08 0.04 0.02 0.06 0.12 0.16 0.12 0.17 0.27 0.55 0.47 0.23 0.24 0.23 0.15 0.26 0.27
0.09 0.17 0.24 0.31 0.31 0.37 0.51 0.77 0.98 1.06 1.08 1.05 1.14 1.11 0.93 0.68 0.44 0.21 0.10 0.10 0.09 0.10 0.07 0.05 0.03 0.06 0.06 0.06 0.14 0.18 0.28 0.33 0.26 0.22 0.21 0.19 0.15 0.22
0.06 0.11 0.20 0.30 0.35 0.42 0.58 0.78 1.03 1.09 1.08 1.14 1.04 0.80 0.57 0.31 0.11 0.07 0.07 0.07 0.09 0.07 0.03 0.02 0.03 0.03 0.04 0.07 0.06 0.12 0.14 0.19 0.15 0.17 0.42 0.32 0.31 0.34

GFSNE_prec_precacc_039.txt.gz
Total_Precipitation_Accumulation
0.09 0.12 0.15 0.15 0.18 0.18 0.23 0.28 0.37 0.27 0.12 0.06 0.04 0.05 0.05 0.05 0.05 0.08 0.08 0.05 0.07 0.07 0.09 0.09 0.10 0.13 0.19 0.26 0.36 0.46 0.52 0.58 0.59 0.61 0.73 0.90 1.00 1.02
0.07 0.09 0.10 0.13 0.16 0.17 0.18 0.17 0.23 0.29 0.17 0.05 0.04 0.08 0.10 0.10 0.11 0.11 0.09 0.12 0.11 0.09 0.12 0.12 0.11 0.12 0.15 0.18 0.22 0.27 0.33 0.42 0.50 0.56 0.55 0.56 0.58 0.67
0.04 0.08 0.09 0.11 0.11 0.10 0.10 0.11 0.15 0.22 0.23 0.05 0.08 0.11 0.11 0.10 0.08 0.09 0.08 0.05 0.04 0.05 0.07 0.10 0.13 0.14 0.14 0.14 0.16 0.18 0.21 0.26 0.31 0.37 0.47 0.57 0.69 0.73
0.01 0.05 0.07 0.09 0.11 0.11 0.10 0.10 0.13 0.15 0.26 0.16 0.11 0.14 0.12 0.11 0.10 0.12 0.12 0.13 0.14 0.12 0.13 0.12 0.14 0.17 0.20 0.21 0.21 0.20 0.18 0.20 0.27 0.38 0.44 0.49 0.56 0.66
0.00 0.02 0.03 0.06 0.07 0.06 0.07 0.08 0.13 0.22 0.30 0.39 0.22 0.14 0.09 0.11 0.15 0.20 0.20 0.19 0.18 0.22 0.27 0.26 0.28 0.32 0.35 0.35 0.35 0.40 0.47 0.50 0.49 0.46 0.49 0.57 0.66 0.75
0.00 0.00 0.01 0.01 0.02 0.02 0.04 0.12 0.21 0.32 0.34 0.33 0.34 0.21 0.16 0.18 0.26 0.28 0.25 0.26 0.29 0.30 0.33 0.32 0.31 0.30 0.32 0.37 0.43 0.45 0.45 0.47 0.53 0.60 0.66 0.66 0.64 0.66
0.00 0.00 0.00 0.00 0.00 0.04 0.10 0.15 0.31 0.39 0.49 0.57 0.49 0.54 0.55 0.44 0.39 0.40 0.45 0.37 0.32 0.25 0.21 0.22 0.27 0.32 0.33 0.35 0.40 0.37 0.41 0.50 0.58 0.62 0.62 0.70 0.75 0.77
0.00 0.00 0.00 0.00 0.00 0.04 0.10 0.17 0.31 0.54 0.64 0.82 0.88 0.69 0.44 0.41 0.38 0.42 0.54 0.66 0.57 0.29 0.28 0.35 0.40 0.47 0.46 0.46 0.45 0.42 0.43 0.45 0.48 0.52 0.58 0.58 0.56 0.59
0.00 0.00 0.00 0.00 0.01 0.03 0.08 0.14 0.26 0.54 0.66 0.56 0.49 0.43 0.39 0.33 0.44 0.55 0.56 0.64 0.57 0.33 0.40 0.48 0.38 0.40 0.41 0.46 0.54 0.47 0.48 0.48 0.47 0.48 0.49 0.49 0.47 0.50
0.00 0.00 0.01 0.02 0.03 0.05 0.10 0.29 0.32 0.21 0.20 0.26 0.33 0.35 0.41 0.53 0.73 0.90 0.97 0.94 0.68 0.45 0.42 0.54 0.31 0.35 0.37 0.44 0.57 0.47 0.40 0.41 0.45 0.46 0.46 0.47 0.48 0.51
0.00 0.01 0.04 0.03 0.03 0.11 0.31 0.38 0.18 0.13 0.19 0.27 0.37 0.43 0.41 0.37 0.41 0.71 0.85 0.75 0.67 0.39 0.31 0.42 0.36 0.36 0.41 0.39 0.45 0.46 0.42 0.44 0.50 0.51 0.50 0.53 0.55 0.54
0.02 0.02 0.03 0.03 0.09 0.31 0.24 0.23 0.25 0.17 0.27 0.31 0.34 0.39 0.39 0.38 0.44 0.49 0.91 1.37 1.00 0.75 0.38 0.65 0.59 0.50 0.71 0.37 0.39 0.53 0.49 0.43 0.42 0.40 0.37 0.36 0.40 0.41
0.11 0.03 0.03 0.13 0.32 0.19 0.15 0.19 0.22 0.25 0.31 0.30 0.32 0.37 0.39 0.40 0.45 0.61 0.97 1.63 1.74 1.23 0.55 0.96 1.02 0.57 0.75 0.50 0.41 0.50 0.42 0.44 0.45 0.43 0.40 0.36 0.29 0.26
0.04 0.02 0.09 0.21 0.08 0.05 0.09 0.17 0.31 0.30 0.24 0.33 0.47 0.52 0.51 0.51 0.58 0.65 0.72 0.84 0.99 1.25 0.82 0.91 1.26 0.74 0.79 0.62 0.49 0.55 0.54 0.49 0.48 0.42 0.35 0.39 0.43 0.42
0.04 0.16 0.14 0.03 0.03 0.04 0.10 0.16 0.16 0.15 0.35 0.64 0.79 0.81 0.75 0.80 0.83 0.75 0.67 0.64 0.68 0.74 0.86 0.85 0.95 0.84 0.74 0.59 0.44 0.47 0.65 0.69 0.75 0.75 0.53 0.33 0.26 0.27
0.17 0.13 0.02 0.03 0.05 0.06 0.08 0.07 0.07 0.17 0.41 0.59 0.65 0.60 0.70 0.73 0.72 0.83 1.02 0.94 0.98 0.84 0.70 0.62 0.70 0.67 0.47 0.40 0.54 0.54 0.58 0.88 0.91 0.98 0.87 0.52 0.39 0.31
0.07 0.01 0.01 0.02 0.02 0.02 0.04 0.06 0.11 0.24 0.40 0.40 0.52 0.57 0.70 0.79 0.82 0.93 1.17 1.07 0.89 0.74 0.61 0.47 0.39 0.37 0.38 0.46 0.50 0.59 0.70 0.72 0.96 1.28 1.08 0.70 0.65 0.51
0.05 0.03 0.04 0.05 0.07 0.09 0.11 0.15 0.20 0.31 0.38 0.51 0.58 0.65 0.78 0.88 1.05 1.19 1.20 0.95 0.74 0.58 0.50 0.41 0.35 0.28 0.30 0.29 0.53 0.75 0.69 0.76 1.04 1.18 1.14 0.46 0.63 0.78
0.08 0.12 0.15 0.15 0.15 0.16 0.21 0.34 0.47 0.52 0.75 0.85 0.87 0.88 0.88 0.97 1.09 1.11 0.91 0.65 0.47 0.34 0.19 0.14 0.22 0.27 0.30 0.23 0.29 0.65 0.67 0.73 0.69 0.74 0.75 0.43 0.52 0.84
0.20 0.25 0.27 0.25 0.23 0.29 0.36 0.53 0.68 0.71 0.76 0.83 0.93 0.95 1.07 1.19 1.14 0.97 0.67 0.43 0.24 0.11 0.04 0.04 0.09 0.21 0.31 0.30 0.30 0.70 0.67 0.60 0.38 0.42 0.47 0.36 0.57 0.65
0.20 0.28 0.35 0.34 0.33 0.40 0.46 0.58 0.74 0.96 1.14 1.20 1.09 1.18 1.17 1.09 0.80 0.56 0.35 0.15 0.12 0.08 0.05 0.03 0.08 0.17 0.19 0.13 0.19 0.32 0.64 0.63 0.38 0.37 0.31 0.21 0.34 0.30
0.09 0.18 0.24 0.31 0.31 0.37 0.52 0.77 0.99 1.06 1.09 1.06 1.15 1.13 0.94 0.70 0.46 0.23 0.11 0.12 0.10 0.12 0.08 0.06 0.04 0.07 0.06 0.07 0.17 0.24 0.35 0.41 0.36 0.34 0.35 0.25 0.20 0.32
0.07 0.11 0.20 0.31 0.35 0.42 0.59 0.79 1.04 1.11 1.10 1.16 1.06 0.82 0.58 0.33 0.12 0.09 0.09 0.08 0.10 0.08 0.03 0.02 0.04 0.04 0.05 0.08 0.08 0.16 0.17 0.23 0.17 0.23 0.61 0.46 0.40 0.41

GFSNE_prec_precacc_045.txt.gz
Total_Precipitation_Accumulation
0.09 0.12 0.15 0.15 0.18 0.18 0.23 0.28 0.37 0.27 0.12 0.06 0.04 0.05 0.05 0.05 0.05 0.08 0.08 0.05 0.07 0.07 0.09 0.09 0.10 0.13 0.19 0.28 0.39 0.51 0.58 0.63 0.65 0.68 0.79 0.96 1.06 1.07
0.07 0.09 0.10 0.13 0.16 0.17 0.18 0.17 0.23 0.29 0.17 0.05 0.04 0.08 0.10 0.10 0.11 0.11 0.09 0.12 0.11 0.09 0.12 0.12 0.11 0.13 0.16 0.19 0.23 0.28 0.35 0.46 0.56 0.62 0.62 0.64 0.67 0.75
0.04 0.08 0.09 0.11 0.11 0.10 0.10 0.11 0.15 0.22 0.23 0.05 0.08 0.11 0.11 0.10 0.08 0.09 0.08 0.05 0.04 0.05 0.08 0.10 0.13 0.14 0.14 0.14 0.16 0.20 0.25 0.32 0.38 0.45 0.54 0.64 0.77 0.81
0.01 0.05 0.07 0.09 0.11 0.11 0.10 0.10 0.13 0.15 0.26 0.18 0.11 0.14 0.12 0.11 0.10 0.12 0.12 0.13 0.14 0.12 0.13 0.12 0.14 0.18 0.21 0.21 0.22 0.23 0.21 0.23 0.31 0.44 0.51 0.55 0.62 0.73
0.00 0.02 0.03 0.06 0.07 0.06 0.07 0.08 0.13 0.22 0.31 0.40 0.22 0.14 0.10 0.11 0.15 0.20 0.20 0.19 0.18 0.22 0.27 0.26 0.28 0.32 0.36 0.36 0.36 0.42 0.50 0.53 0.53 0.49 0.53 0.63 0.74 0.83
0.00 0.00 0.01 0.01 0.02 0.02 0.04 0.12 0.21 0.32 0.34 0.33 0.38 0.26 0.19 0.18 0.26 0.28 0.25 0.26 0.29 0.30 0.33 0.32 0.31 0.31 0.32 0.37 0.43 0.45 0.45 0.47 0.53 0.61 0.67 0.68 0.67 0.70
0.00 0.00 0.00 0.00 0.00 0.04 0.10 0.15 0.31 0.39 0.53 0.69 0.58 0.57 0.55 0.44 0.39 0.40 0.46 0.38 0.32 0.25 0.21 0.22 0.27 0.32 0.33 0.35 0.40 0.37 0.41 0.51 0.59 0.62 0.64 0.72 0.77 0.79
0.00 0.00 0.00 0.00 0.00 0.04 0.10 0.18 0.32 0.62 0.76 0.85 0.89 0.69 0.44 0.41 0.38 0.44 0.57 0.67 0.58 0.29 0.28 0.36 0.40 0.47 0.46 0.46 0.45 0.43 0.44 0.46 0.48 0.53 0.61 0.62 0.62 0.64
0.00 0.00 0.00 0.00 0.01 0.03 0.08 0.16 0.31 0.58 0.67 0.56 0.49 0.43 0.40 0.36 0.50 0.58 0.58 0.67 0.60 0.33 0.40 0.48 0.38 0.40 0.41 0.46 0.54 0.47 0.48 0.48 0.48 0.50 0.52 0.54 0.52 0.55
0.00 0.00 0.01 0.02 0.03 0.06 0.13 0.37 0.33 0.21 0.20 0.26 0.33 0.36 0.45 0.56 0.73 0.92 1.01 0.96 0.69 0.45 0.42 0.55 0.31 0.35 0.37 0.44 0.57 0.47 0.40 0.42 0.46 0.48 0.49 0.50 0.52 0.55
0.00 0.01 0.05 0.03 0.03 0.13 0.34 0.39 0.18 0.13 0.19 0.27 0.38 0.44 0.41 0.37 0.41 0.75 0.88 0.78 0.68 0.39 0.31 0.43 0.36 0.37 0.41 0.39 0.45 0.46 0.42 0.45 0.51 0.52 0.52 0.56 0.58 0.58
0.02 0.02 0.03 0.04 0.10 0.35 0.25 0.23 0.25 0.17 0.32 0.33 0.34 0.39 0.39 0.38 0.44 0.49 0.94 1.46 1.04 0.79 0.38 0.72 0.61 0.52 0.77 0.38 0.39 0.53 0.49 0.43 0.42 0.41 0.39 0.40 0.43 0.44
0.11 0.03 0.03 0.14 0.34 0.20 0.15 0.19 0.22 0.27 0.32 0.30 0.32 0.37 0.39 0.40 0.45 0.61 0.98 1.71 1.85 1.30 0.55 1.09 1.12 0.58 0.81 0.52 0.41 0.50 0.42 0.45 0.47 0.45 0.41 0.39 0.35 0.32
0.04 0.02 0.09 0.22 0.08 0.05 0.09 0.18 0.32 0.31 0.24 0.33 0.47 0.52 0.51 0.51 0.58 0.65 0.72 0.85 1.01 1.31 0.84 0.97 1.42 0.81 0.90 0.67 0.51 0.55 0.54 0.49 0.53 0.46 0.38 0.42 0.49 0.53
0.05 0.16 0.15 0.03 0.03 0.04 0.10 0.17 0.16 0.15 0.35 0.65 0.80 0.81 0.75 0.80 0.83 0.75 0.67 0.64 0.68 0.74 0.86 0.86 1.04 0.91 0.83 0.73 0.59 0.49 0.68 0.70 0.76 0.80 0.63 0.46 0.38 0.36
0.17 0.14 0.02 0.03 0.05 0.06 0.08 0.07 0.07 0.17 0.42 0.61 0.66 0.60 0.70 0.73 0.72 0.83 1.03 0.94 0.99 0.84 0.70 0.63 0.76 0.78 0.58 0.45 0.69 0.60 0.60 1.01 1.01 1.07 1.03 0.59 0.45 0.34
0.07 0.01 0.01 0.02 0.02 0.02 0.04 0.06 0.11 0.24 0.40 0.41 0.54 0.59 0.71 0.80 0.82 0.93 1.18 1.08 0.91 0.74 0.61 0.47 0.39 0.38 0.40 0.49 0.51 0.62 0.84 0.81 1.07 1.44 1.18 0.75 0.67 0.53
0.05 0.03 0.04 0.05 0.08 0.09 0.11 0.15 0.20 0.31 0.38 0.52 0.59 0.66 0.80 0.89 1.06 1.19 1.20 0.96 0.76 0.58 0.51 0.41 0.35 0.29 0.30 0.29 0.58 0.86 0.75 0.87 1.16 1.32 1.27 0.54 0.67 0.80
0.08 0.12 0.15 0.16 0.15 0.16 0.22 0.35 0.47 0.52 0.75 0.86 0.88 0.90 0.92 0.99 1.10 1.12 0.92 0.66 0.47 0.35 0.20 0.15 0.23 0.30 0.32 0.23 0.29 0.67 0.84 0.87 0.76 0.82 0.85 0.54 0.58 0.86
0.20 0.25 0.28 0.25 0.24 0.30 0.37 0.54 0.69 0.72 0.76 0.84 0.95 0.98 1.10 1.23 1.16 0.99 0.68 0.46 0.27 0.13 0.05 0.04 0.10 0.25 0.44 0.48 0.44 0.78 0.77 0.78 0.55 0.58 0.60 0.48 0.65 0.70
0.21 0.28 0.35 0.34 0.34 0.41 0.47 0.60 0.75 0.98 1.18 1.25 1.11 1.20 1.20 1.14 0.82 0.57 0.37 0.16 0.14 0.10 0.06 0.03 0.10 0.25 0.28 0.16 0.22 0.37 0.71 0.72 0.52 0.55 0.46 0.27 0.39 0.32
0.09 0.18 0.24 0.31 0.32 0.38 0.53 0.78 1.00 1.07 1.12 1.08 1.17 1.15 0.97 0.73 0.50 0.25 0.13 0.15 0.11 0.14 0.09 0.06 0.04 0.07 0.06 0.09 0.22 0.32 0.45 0.47 0.41 0.37 0.44 0.38 0.33 0.49
0.07 0.12 0.20 0.31 0.36 0.43 0.60 0.80 1.05 1.12 1.13 1.20 1.09 0.84 0.61 0.36 0.14 0.11 0.12 0.11 0.13 0.09 0.03 0.02 0.04 0.04 0.06 0.10 0.11 0.19 0.21 0.30 0.24 0.27 0.68 0.61 0.58 0.63

GFSNE_prec_precacc_048.txt.gz
Total_Precipitation_Accumulation
0.09 0.12 0.15 0.15 0.18 0.18 0.23 0.28 0.37 0.27 0.12 0.06 0.04 0.05 0.05 0.05 0.05 0.08 0.08 0.05 0.07 0.07 0.09 0.09 0.10 0.13 0.19 0.28 0.40 0.52 0.60 0.65 0.67 0.70 0.82 0.98 1.09 1.09
0.07 0.09 0.10 0.13 0.16 0.17 0.18 0.17 0.23 0.29 0.17 0.05 0.04 0.08 0.10 0.10 0.11 0.11 0.09 0.12 0.11 0.09 0.12 0.12 0.11 0.13 0.16 0.19 0.23 0.28 0.36 0.48 0.58 0.65 0.65 0.67 0.70 0.78
0.04 0.08 0.09 0.11 0.11 0.10 0.10 0.11 0.15 0.22 0.23 0.05 0.08 0.11 0.11 0.10 0.08 0.09 0.08 0.05 0.04 0.05 0.08 0.10 0.13 0.14 0.14 0.14 0.17 0.20 0.27 0.33 0.40 0.48 0.58 0.69 0.82 0.86
0.01 0.05 0.07 0.09 0.11 0.11 0.10 0.10 0.13 0.15 0.26 0.19 0.11 0.14 0.12 0.11 0.10 0.12 0.12 0.13 0.14 0.12 0.13 0.12 0.14 0.18 0.21 0.22 0.23 0.23 0.22 0.24 0.32 0.45 0.54 0.59 0.66 0.77
0.00 0.02 0.03 0.06 0.07 0.06 0.07 0.08 0.13 0.22 0.31 0.40 0.22 0.14 0.10 0.12 0.15 0.20 0.20 0.19 0.18 0.22 0.27 0.26 0.28 0.32 0.36 0.36 0.36 0.42 0.51 0.54 0.53 0.50 0.54 0.64 0.75 0.85
0.00 0.00 0.01 0.01 0.02 0.02 0.04 0.13 0.21 0.32 0.34 0.33 0.39 0.28 0.20 0.18 0.26 0.28 0.25 0.26 0.29 0.30 0.33 0.32 0.31 0.31 0.32 0.37 0.43 0.45 0.46 0.48 0.54 0.61 0.67 0.69 0.68 0.71
0.00 0.00 0.00 0.00 0.00 0.04 0.10 0.15 0.31 0.40 0.54 0.72 0.63 0.58 0.55 0.44 0.39 0.40 0.46 0.38 0.32 0.25 0.21 0.22 0.27 0.32 0.33 0.35 0.40 0.37 0.41 0.51 0.59 0.63 0.65 0.73 0.78 0.81
0.00 0.00 0.00 0.00 0.00 0.04 0.10 0.18 0.33 0.63 0.82 0.88 0.90 0.69 0.44 0.41 0.38 0.44 0.59 0.68 0.59 0.29 0.28 0.36 0.40 0.47 0.46 0.46 0.45 0.43 0.44 0.46 0.49 0.54 0.62 0.64 0.63 0.66
0.00 0.00 0.00 0.00 0.01 0.03 0.08 0.16 0.32 0.60 0.68 0.57 0.49 0.43 0.40 0.36 0.53 0.60 0.59 0.68 0.61 0.34 0.40 0.48 0.38 0.40 0.41 0.46 0.54 0.47 0.48 0.48 0.48 0.51 0.53 0.55 0.53 0.57
0.00 0.00 0.01 0.02 0.03 0.06 0.13 0.39 0.34 0.21 0.20 0.26 0.33 0.36 0.45 0.57 0.74 0.93 1.02 0.97 0.69 0.45 0.42 0.55 0.31 0.35 0.37 0.44 0.57 0.47 0.40 0.42 0.46 0.48 0.49 0.51 0.54 0.58
0.00 0.01 0.05 0.03 0.03 0.13 0.36 0.40 0.19 0.13 0.19 0.27 0.39 0.44 0.42 0.37 0.41 0.76 0.89 0.79 0.68 0.39 0.31 0.43 0.36 0.37 0.41 0.39 0.45 0.46 0.42 0.45 0.51 0.53 0.53 0.57 0.60 0.60
0.02 0.02 0.03 0.04 0.10 0.36 0.26 0.23 0.26 0.17 0.33 0.34 0.34 0.39 0.39 0.38 0.44 0.50 0.94 1.49 1.05 0.80 0.38 0.73 0.61 0.52 0.79 0.38 0.39 0.53 0.49 0.43 0.42 0.41 0.40 0.41 0.45 0.47
0.11 0.03 0.03 0.14 0.34 0.20 0.15 0.19 0.22 0.27 0.33 0.30 0.32 0.37 0.39 0.40 0.45 0.61 0.98 1.74 1.89 1.32 0.55 1.13 1.15 0.59 0.83 0.52 0.41 0.50 0.42 0.45 0.47 0.45 0.41 0.39 0.36 0.36
0.05 0.02 0.09 0.23 0.08 0.05 0.09 0.18 0.32 0.31 0.24 0.33 0.47 0.52 0.51 0.51 0.59 0.65 0.72 0.85 1.01 1.32 0.84 0.98 1.48 0.83 0.94 0.69 0.51 0.55 0.54 0.49 0.53 0.46 0.38 0.42 0.50 0.55
0.05 0.16 0.15 0.03 0.03 0.04 0.10 0.17 0.16 0.15 0.35 0.65 0.81 0.82 0.75 0.80 0.84 0.76 0.68 0.64 0.68 0.74 0.86 0.86 1.06 0.94 0.86 0.77 0.63 0.50 0.68 0.70 0.76 0.81 0.63 0.46 0.41 0.40
0.17 0.14 0.02 0.03 0.05 0.06 0.08 0.07 0.07 0.17 0.42 0.61 0.66 0.61 0.70 0.74 0.73 0.83 1.04 0.95 1.00 0.84 0.70 0.63 0.77 0.83 0.63 0.46 0.72 0.61 0.60 1.04 1.03 1.09 1.03 0.61 0.48 0.37
0.07 0.01 0.01 0.02 0.02 0.02 0.04 0.06 0.11 0.24 0.40 0.41 0.54 0.59 0.71 0.80 0.82 0.93 1.19 1.09 0.91 0.74 0.61 0.47 0.39 0.39 0.42 0.49 0.52 0.62 0.86 0.83 1.09 1.47 1.22 0.78 0.68 0.55
0.05 0.03 0.04 0.05 0.08 0.09 0.11 0.15 0.20 0.31 0.38 0.53 0.59 0.66 0.80 0.89 1.07 1.19 1.21 0.96 0.76 0.59 0.51 0.41 0.36 0.29 0.30 0.29 0.58 0.87 0.77 0.89 1.18 1.35 1.32 0.58 0.68 0.81
0.08 0.12 0.15 0.16 0.15 0.16 0.22 0.35 0.47 0.52 0.76 0.87 0.89 0.90 0.94 1.00 1.10 1.12 0.92 0.66 0.48 0.35 0.20 0.15 0.24 0.32 0.34 0.24 0.29 0.68 0.89 0.90 0.79 0.85 0.90 0.58 0.60 0.87
0.20 0.25 0.28 0.25 0.24 0.30 0.37 0.54 0.69 0.72 0.77 0.85 0.96 0.99 1.12 1.24 1.17 0.99 0.69 0.46 0.28 0.13 0.05 0.04 0.10 0.27 0.48 0.54 0.49 0.78 0.79 0.84 0.59 0.62 0.64 0.52 0.69 0.72
0.21 0.28 0.35 0.34 0.34 0.41 0.48 0.60 0.76 0.99 1.20 1.27 1.12 1.21 1.21 1.16 0.83 0.57 0.37 0.17 0.15 0.10 0.07 0.03 0.10 0.26 0.28 0.16 0.23 0.37 0.71 0.73 0.55 0.62 0.49 0.29 0.41 0.35
0.09 0.18 0.24 0.31 0.32 0.39 0.54 0.79 1.01 1.08 1.12 1.09 1.18 1.17 0.98 0.75 0.53 0.27 0.14 0.16 0.12 0.15 0.10 0.06 0.04 0.07 0.07 0.09 0.22 0.32 0.45 0.47 0.41 0.37 0.45 0.42 0.40 0.57
0.07 0.12 0.20 0.31 0.37 0.44 0.61 0.80 1.06 1.13 1.14 1.21 1.10 0.86 0.63 0.39 0.16 0.13 0.13 0.12 0.14 0.10 0.04 0.03 0.04 0.04 0.06 0.10 0.11 0.19 0.21 0.30 0.24 0.27 0.68 0.61 0.60 0.70

GFSNE_prec_precacc_051.txt.gz
Total_Precipitation_Accumulation
0.09 0.12 0.15 0.15 0.18 0.18 0.23 0.28 0.37 0.27 0.12 0.06 0.04 0.05 0.05 0.05 0.05 0.08 0.08 0.05 0.07 0.07 0.09 0.09 0.10 0.13 0.19 0.28 0.40 0.52 0.61 0.66 0.69 0.73 0.85 1.01 1.10 1.11
0.07 0.09 0.10 0.13 0.16 0.17 0.18 0.17 0.23 0.29 0.17 0.05 0.04 0.08 0.10 0.10 0.11 0.11 0.09 0.12 0.11 0.09 0.12 0.12 0.11 0.13 0.16 0.19 0.23 0.29 0.36 0.48 0.59 0.66 0.69 0.72 0.74 0.82
0.04 0.08 0.09 0.11 0.11 0.10 0.10 0.11 0.15 0.22 0.23 0.05 0.08 0.11 0.11 0.10 0.08 0.09 0.08 0.05 0.04 0.05 0.08 0.10 0.13 0.14 0.15 0.14 0.17 0.21 0.27 0.34 0.41 0.49 0.60 0.72 0.86 0.91
0.01 0.05 0.07 0.09 0.11 0.11 0.10 0.10 0.13 0.15 0.26 0.19 0.11 0.14 0.12 0.11 0.10 0.12 0.12 0.13 0.14 0.12 0.13 0.12 0.14 0.18 0.21 0.22 0.23 0.24 0.22 0.24 0.32 0.46 0.55 0.61 0.68 0.79
0.00 0.02 0.03 0.06 0.07 0.06 0.07 0.08 0.13 0.22 0.31 0.40 0.22 0.14 0.10 0.12 0.16 0.20 0.20 0.19 0.18 0.22 0.27 0.26 0.28 0.32 0.36 0.36 0.36 0.42 0.51 0.54 0.53 0.50 0.55 0.64 0.76 0.85
0.00 0.00 0.01 0.01 0.02 0.02 0.04 0.13 0.21 0.32 0.34 0.33 0.39 0.28 0.21 0.19 0.26 0.28 0.25 0.26 0.29 0.30 0.33 0.32 0.31 0.31 0.32 0.37 0.43 0.45 0.46 0.48 0.54 0.61 0.68 0.69 0.69 0.71
0.00 0.00 0.00 0.00 0.00 0.04 0.10 0.15 0.32 0.40 0.55 0.73 0.65 0.59 0.56 0.44 0.39 0.40 0.46 0.38 0.32 0.25 0.21 0.22 0.27 0.32 0.33 0.35 0.40 0.37 0.41 0.51 0.59 0.63 0.65 0.74 0.79 0.82
0.00 0.00 0.00 0.00 0.00 0.04 0.10 0.18 0.33 0.64 0.84 0.92 0.92 0.70 0.44 0.41 0.38 0.45 0.59 0.69 0.59 0.29 0.28 0.36 0.40 0.47 0.46 0.46 0.45 0.43 0.44 0.46 0.49 0.54 0.62 0.64 0.64 0.67
0.00 0.00 0.00 0.00 0.01 0.03 0.08 0.16 0.33 0.61 0.69 0.57 0.50 0.43 0.40 0.36 0.53 0.62 0.60 0.69 0.61 0.34 0.40 0.48 0.38 0.40 0.41 0.46 0.54 0.47 0.48 0.48 0.48 0.51 0.54 0.56 0.54 0.58
0.00 0.00 0.01 0.02 0.03 0.06 0.14 0.39 0.35 0.21 0.20 0.26 0.33 0.36 0.45 0.57 0.76 0.95 1.03 0.97 0.69 0.45 0.42 0.55 0.31 0.35 0.37 0.44 0.57 0.47 0.40 0.42 0.46 0.48 0.49 0.51 0.55 0.60
0.00 0.01 0.05 0.03 0.03 0.13 0.36 0.41 0.19 0.13 0.19 0.27 0.39 0.44 0.42 0.37 0.41 0.77 0.90 0.79 0.69 0.39 0.31 0.43 0.36 0.37 0.41 0.39 0.45 0.46 0.42 0.45 0.51 0.53 0.53 0.58 0.61 0.62
0.02 0.02 0.03 0.04 0.10 0.36 0.26 0.23 0.26 0.17 0.33 0.34 0.35 0.39 0.39 0.38 0.44 0.50 0.95 1.53 1.05 0.81 0.38 0.75 0.62 0.52 0.81 0.38 0.39 0.53 0.49 0.43 0.42 0.41 0.40 0.41 0.46 0.48
0.11 0.03 0.03 0.14 0.34 0.20 0.16 0.19 0.22 0.27 0.33 0.30 0.32 0.37 0.39 0.40 0.45 0.61 0.98 1.76 1.91 1.35 0.55 1.15 1.19 0.59 0.85 0.53 0.41 0.50 0.42 0.45 0.47 0.45 0.41 0.39 0.36 0.37
0.05 0.02 0.09 0.23 0.08 0.05 0.09 0.18 0.32 0.31 0.24 0.33 0.47 0.52 0.51 0.52 0.59 0.65 0.72 0.85 1.02 1.34 0.84 0.99 1.52 0.85 0.98 0.71 0.52 0.55 0.54 0.49 0.53 0.46 0.39 0.44 0.52 0.57
0.05 0.16 0.15 0.03 0.03 0.04 0.10 0.17 0.16 0.15 0.35 0.66 0.81 0.82 0.75 0.80 0.84 0.76 0.68 0.64 0.68 0.74 0.86 0.86 1.08 0.96 0.90 0.80 0.66 0.50 0.68 0.70 0.76 0.81 0.64 0.47 0.42 0.42
0.17 0.14 0.02 0.03 0.05 0.06 0.08 0.07 0.07 0.17 0.42 0.62 0.67 0.61 0.70 0.74 0.73 0.83 1.04 0.95 1.00 0.84 0.70 0.63 0.77 0.85 0.69 0.47 0.74 0.62 0.60 1.04 1.04 1.09 1.04 0.61 0.49 0.40
0.07 0.01 0.01 0.02 0.02 0.02 0.04 0.06 0.11 0.24 0.41 0.41 0.55 0.60 0.71 0.80 0.82 0.93 1.19 1.10 0.92 0.75 0.61 0.47 0.39 0.39 0.44 0.52 0.53 0.62 0.86 0.84 1.10 1.48 1.24 0.79 0.68 0.55
0.05 0.03 0.04 0.05 0.08 0.09 0.11 0.15 0.20 0.31 0.38 0.54 0.60 0.66 0.81 0.90 1.08 1.20 1.21 0.97 0.78 0.59 0.52 0.41 0.36 0.29 0.30 0.29 0.59 0.88 0.77 0.89 1.18 1.35 1.33 0.62 0.69 0.81
0.08 0.12 0.15 0.16 0.15 0.16 0.22 0.35 0.47 0.52 0.76 0.88 0.90 0.91 0.94 1.01 1.11 1.13 0.92 0.67 0.48 0.35 0.20 0.15 0.24 0.34 0.37 0.24 0.29 0.68 0.91 0.91 0.80 0.85 0.90 0.60 0.64 0.88
0.20 0.25 0.28 0.25 0.24 0.31 0.37 0.55 0.70 0.73 0.77 0.85 0.97 1.00 1.13 1.26 1.17 1.00 0.69 0.47 0.29 0.14 0.05 0.04 0.11 0.28 0.53 0.58 0.51 0.78 0.80 0.89 0.64 0.65 0.65 0.52 0.71 0.73
0.21 0.28 0.35 0.34 0.34 0.41 0.48 0.61 0.76 1.00 1.21 1.29 1.14 1.23 1.23 1.19 0.85 0.57 0.37 0.17 0.15 0.11 0.08 0.03 0.10 0.26 0.30 0.17 0.23 0.37 0.71 0.73 0.57 0.67 0.53 0.32 0.42 0.35
0.09 0.18 0.24 0.31 0.32 0.40 0.55 0.79 1.02 1.08 1.13 1.11 1.20 1.19 1.01 0.78 0.55 0.29 0.15 0.17 0.12 0.16 0.11 0.07 0.04 0.07 0.07 0.10 0.22 0.32 0.45 0.47 0.41 0.37 0.47 0.48 0.48 0.64
0.07 0.12 0.20 0.31 0.37 0.45 0.62 0.81 1.06 1.13 1.15 1.24 1.12 0.88 0.67 0.43 0.17 0.15 0.14 0.13 0.15 0.12 0.05 0.03 0.04 0.04 0.06 0.11 0.11 0.19 0.21 0.30 0.24 0.27 0.68 0.61 0.61 0.72

GFSNE_prec_precacc_054.txt.gz
Total_Precipitation_Accumulation
0.09 0.12 0.15 0.15 0.18 0.18 0.23 0.28 0.37 0.27 0.12 0.06 0.04 0.05 0.05 0.05 0.05 0.08 0.08 0.05 0.07 0.07 0.09 0.09 0.10 0.13 0.19 0.28 0.40 0.53 0.62 0.67 0.70 0.75 0.91 1.06 1.15 1.16
0.07 0.09 0.10 0.13 0.16 0.17 0.18 0.17 0.23 0.29 0.17 0.05 0.04 0.08 0.10 0.10 0.11 0.11 0.09 0.12 0.11 0.09 0.12 0.12 0.11 0.13 0.16 0.19 0.24 0.29 0.37 0.49 0.60 0.67 0.71 0.78 0.80 0.87
0.04 0.08 0.09 0.11 0.11 0.10 0.10 0.11 0.15 0.22 0.23 0.05 0.08 0.11 0.11 0.10 0.08 0.09 0.08 0.05 0.04 0.05 0.08 0.10 0.13 0.14 0.15 0.15 0.17 0.21 0.27 0.34 0.42 0.50 0.61 0.73 0.90 0.95
0.01 0.05 0.07 0.09 0.11 0.11 0.10 0.10 0.13 0.15 0.26 0.19 0.11 0.14 0.12 0.11 0.10 0.12 0.12 0.13 0.14 0.12 0.13 0.12 0.14 0.18 0.21 0.22 0.23 0.24 0.22 0.25 0.32 0.46 0.56 0.62 0.69 0.80
0.00 0.02 0.03 0.06 0.07 0.06 0.07 0.08 0.13 0.22 0.31 0.40 0.22 0.14 0.10 0.12 0.16 0.20 0.20 0.19 0.18 0.22 0.27 0.26 0.28 0.32 0.36 0.36 0.36 0.43 0.51 0.54 0.53 0.50 0.55 0.64 0.76 0.86
0.00 0.00 0.01 0.01 0.02 0.02 0.04 0.13 0.21 0.32 0.34 0.33 0.39 0.28 0.21 0.19 0.26 0.28 0.25 0.26 0.29 0.30 0.33 0.32 0.31 0.31 0.32 0.37 0.43 0.45 0.46 0.48 0.54 0.61 0.68 0.69 0.69 0.72
0.00 0.00 0.00 0.00 0.00 0.04 0.10 0.15 0.32 0.40 0.55 0.73 0.66 0.60 0.56 0.44 0.39 0.40 0.46 0.38 0.32 0.25 0.21 0.22 0.27 0.32 0.33 0.35 0.40 0.37 0.41 0.51 0.59 0.63 0.65 0.74 0.79 0.83
0.00 0.00 0.00 0.00 0.00 0.04 0.10 0.18 0.33 0.64 0.84 0.93 0.93 0.71 0.44 0.41 0.38 0.45 0.59 0.70 0.61 0.29 0.28 0.36 0.40 0.47 0.46 0.46 0.45 0.43 0.44 0.46 0.49 0.54 0.62 0.65 0.65 0.68
0.00 0.00 0.00 0.00 0.01 0.03 0.08 0.16 0.33 0.61 0.70 0.58 0.50 0.43 0.40 0.36 0.53 0.63 0.61 0.70 0.61 0.34 0.40 0.48 0.38 0.40 0.41 0.46 0.54 0.47 0.48 0.48 0.48 0.51 0.54 0.56 0.55 0.59
0.00 0.00 0.01 0.02 0.03 0.06 0.14 0.39 0.35 0.21 0.20 0.26 0.33 0.36 0.46 0.57 0.78 0.99 1.04 0.97 0.69 0.45 0.42 0.55 0.31 0.35 0.37 0.44 0.57 0.47 0.40 0.42 0.46 0.48 0.49 0.51 0.56 0.61
0.00 0.01 0.05 0.03 0.03 0.13 0.36 0.41 0.19 0.13 0.19 0.27 0.39 0.45 0.42 0.37 0.41 0.77 0.90 0.80 0.69 0.39 0.31 0.43 0.36 0.37 0.41 0.39 0.45 0.46 0.42 0.45 0.51 0.53 0.53 0.58 0.62 0.63
0.02 0.02 0.03 0.04 0.10 0.36 0.27 0.24 0.26 0.17 0.33 0.34 0.35 0.39 0.39 0.38 0.44 0.50 0.95 1.57 1.07 0.83 0.38 0.77 0.63 0.53 0.82 0.38 0.39 0.53 0.49 0.43 0.42 0.41 0.40 0.41 0.46 0.49
0.11 0.03 0.03 0.14 0.35 0.21 0.16 0.19 0.22 0.27 0.33 0.30 0.32 0.37 0.39 0.40 0.45 0.61 0.98 1.78 1.95 1.37 0.55 1.19 1.25 0.60 0.88 0.54 0.41 0.50 0.42 0.45 0.47 0.45 0.41 0.39 0.37 0.39
0.05 0.02 0.09 0.23 0.08 0.05 0.09 0.18 0.32 0.31 0.24 0.33 0.47 0.52 0.51 0.52 0.59 0.66 0.72 0.85 1.02 1.36 0.84 1.00 1.59 0.87 1.01 0.73 0.52 0.55 0.54 0.49 0.53 0.46 0.39 0.44 0.53 0.59
0.05 0.16 0.15 0.03 0.03 0.04 0.10 0.17 0.16 0.15 0.35 0.66 0.81 0.82 0.75 0.80 0.84 0.76 0.68 0.64 0.68 0.74 0.86 0.86 1.09 0.98 0.94 0.84 0.67 0.51 0.68 0.70 0.76 0.81 0.64 0.47 0.42 0.42
0.17 0.14 0.02 0.03 0.05 0.06 0.08 0.07 0.07 0.17 0.42 0.62 0.67 0.61 0.70 0.74 0.73 0.84 1.05 0.95 1.01 0.84 0.70 0.63 0.77 0.87 0.73 0.49 0.76 0.64 0.60 1.05 1.04 1.09 1.04 0.61 0.49 0.40
0.07 0.01 0.01 0.02 0.02 0.02 0.04 0.06 0.11 0.24 0.41 0.41 0.55 0.60 0.71 0.80 0.83 0.93 1.20 1.11 0.94 0.75 0.62 0.47 0.39 0.39 0.45 0.54 0.57 0.63 0.86 0.84 1.10 1.48 1.25 0.81 0.69 0.55
0.05 0.03 0.04 0.05 0.08 0.09 0.11 0.15 0.20 0.32 0.39 0.54 0.60 0.67 0.82 0.90 1.08 1.20 1.21 0.98 0.79 0.60 0.52 0.42 0.36 0.31 0.30 0.29 0.59 0.89 0.78 0.89 1.18 1.36 1.34 0.64 0.70 0.81
0.08 0.12 0.15 0.16 0.15 0.16 0.22 0.35 0.47 0.53 0.76 0.89 0.90 0.92 0.95 1.02 1.11 1.13 0.93 0.67 0.49 0.35 0.21 0.15 0.25 0.36 0.40 0.25 0.29 0.68 0.93 0.91 0.80 0.86 0.91 0.61 0.66 0.88
0.20 0.25 0.28 0.25 0.24 0.31 0.37 0.55 0.70 0.73 0.77 0.85 0.98 1.02 1.14 1.28 1.18 1.00 0.70 0.49 0.31 0.15 0.06 0.04 0.11 0.30 0.59 0.62 0.54 0.78 0.80 0.89 0.68 0.69 0.65 0.53 0.71 0.73
0.21 0.28 0.35 0.34 0.34 0.42 0.48 0.61 0.77 1.00 1.23 1.32 1.16 1.25 1.24 1.22 0.87 0.58 0.38 0.18 0.16 0.13 0.09 0.04 0.11 0.26 0.30 0.17 0.24 0.38 0.71 0.73 0.59 0.73 0.58 0.36 0.43 0.36
0.09 0.18 0.24 0.31 0.32 0.40 0.55 0.80 1.02 1.08 1.14 1.13 1.21 1.21 1.04 0.82 0.59 0.31 0.15 0.19 0.13 0.16 0.12 0.07 0.04 0.07 0.07 0.11 0.24 0.32 0.45 0.47 0.41 0.37 0.47 0.53 0.57 0.72
0.07 0.12 0.20 0.31 0.37 0.45 0.63 0.82 1.07 1.14 1.16 1.26 1.14 0.91 0.72 0.48 0.21 0.17 0.15 0.14 0.17 0.15 0.06 0.03 0.04 0.04 0.06 0.11 0.12 0.20 0.22 0.30 0.24 0.27 0.68 0.61 0.61 0.74

GFSNE_prec_precacc_057.txt.gz
Total_Precipitation_Accumulation
0.09 0.12 0.15 0.15 0.18 0.18 0.23 0.28 0.37 0.27 0.12 0.06 0.04 0.05 0.05 0.05 0.05 0.08 0.08 0.05 0.07 0.07 0.09 0.09 0.10 0.13 0.19 0.28 0.40 0.53 0.63 0.70 0.75 0.81 0.96 1.11 1.20 1.21
0.07 0.09 0.10 0.13 0.16 0.17 0.18 0.17 0.23 0.29 0.17 0.05 0.04 0.08 0.10 0.10 0.11 0.11 0.09 0.12 0.11 0.09 0.12 0.12 0.11 0.13 0.16 0.19 0.24 0.29 0.37 0.50 0.62 0.70 0.76 0.84 0.86 0.93
0.04 0.08 0.09 0.11 0.11 0.10 0.10 0.11 0.15 0.22 0.23 0.05 0.08 0.11 0.11 0.10 0.08 0.09 0.08 0.05 0.04 0.05 0.08 0.10 0.13 0.14 0.15 0.15 0.17 0.21 0.27 0.35 0.42 0.51 0.62 0.76 0.94 1.00
0.01 0.05 0.07 0.09 0.11 0.11 0.10 0.10 0.13 0.15 0.26 0.19 0.11 0.14 0.12 0.11 0.10 0.12 0.12 0.13 0.14 0.12 0.13 0.12 0.14 0.18 0.21 0.22 0.23 0.24 0.23 0.25 0.33 0.47 0.56 0.62 0.69 0.81
0.00 0.02 0.03 0.06 0.07 0.06 0.07 0.08 0.13 0.22 0.31 0.40 0.22 0.14 0.10 0.12 0.16 0.20 0.20 0.19 0.18 0.22 0.27 0.26 0.28 0.32 0.36 0.36 0.36 0.43 0.51 0.54 0.53 0.50 0.55 0.64 0.76 0.86
0.00 0.00 0.01 0.01 0.02 0.02 0.04 0.13 0.21 0.32 0.34 0.33 0.39 0.28 0.21 0.19 0.26 0.28 0.25 0.26 0.29 0.30 0.33 0.32 0.31 0.31 0.32 0.37 0.43 0.45 0.46 0.48 0.54 0.62 0.68 0.70 0.70 0.73
0.00 0.00 0.00 0.00 0.00 0.04 0.10 0.15 0.32 0.40 0.55 0.73 0.66 0.60 0.56 0.44 0.39 0.40 0.46 0.38 0.32 0.25 0.21 0.22 0.27 0.32 0.33 0.35 0.40 0.37 0.41 0.51 0.59 0.64 0.66 0.74 0.80 0.84
0.00 0.00 0.00 0.00 0.00 0.04 0.10 0.18 0.33 0.64 0.84 0.93 0.94 0.71 0.45 0.41 0.38 0.45 0.59 0.70 0.61 0.29 0.28 0.36 0.40 0.47 0.46 0.46 0.45 0.43 0.44 0.46 0.49 0.54 0.63 0.66 0.65 0.69
0.00 0.00 0.00 0.00 0.01 0.03 0.08 0.16 0.33 0.61 0.70 0.58 0.50 0.43 0.40 0.36 0.53 0.64 0.62 0.71 0.62 0.34 0.40 0.48 0.38 0.40 0.41 0.46 0.54 0.47 0.48 0.48 0.48 0.51 0.54 0.56 0.56 0.60
0.00 0.00 0.01 0.02 0.03 0.06 0.14 0.39 0.35 0.21 0.20 0.26 0.33 0.36 0.46 0.57 0.78 1.03 1.05 0.98 0.69 0.45 0.42 0.55 0.31 0.35 0.37 0.44 0.57 0.47 0.40 0.42 0.46 0.48 0.49 0.52 0.56 0.61
0.00 0.01 0.05 0.03 0.03 0.13 0.36 0.41 0.19 0.13 0.19 0.27 0.39 0.45 0.42 0.37 0.41 0.77 0.90 0.81 0.70 0.39 0.31 0.43 0.36 0.37 0.41 0.39 0.45 0.46 0.42 0.45 0.51 0.53 0.53 0.58 0.62 0.64
0.02 0.02 0.03 0.04 0.10 0.36 0.27 0.24 0.26 0.17 0.33 0.34 0.35 0.39 0.39 0.38 0.44 0.50 0.95 1.59 1.09 0.85 0.38 0.78 0.63 0.53 0.84 0.38 0.39 0.53 0.49 0.43 0.42 0.41 0.40 0.41 0.46 0.49
0.11 0.03 0.03 0.14 0.35 0.21 0.16 0.19 0.22 0.27 0.33 0.30 0.32 0.37 0.39 0.40 0.45 0.61 0.98 1.80 1.97 1.39 0.55 1.23 1.29 0.60 0.90 0.54 0.41 0.50 0.42 0.45 0.47 0.45 0.41 0.39 0.37 0.39
0.05 0.02 0.09 0.23 0.08 0.05 0.09 0.18 0.32 0.31 0.24 0.33 0.47 0.52 0.51 0.52 0.59 0.66 0.72 0.85 1.02 1.37 0.84 1.01 1.65 0.89 1.05 0.75 0.52 0.55 0.54 0.49 0.53 0.46 0.39 0.44 0.53 0.59
0.05 0.16 0.15 0.03 0.03 0.04 0.10 0.17 0.16 0.15 0.35 0.66 0.81 0.82 0.75 0.80 0.84 0.76 0.68 0.64 0.68 0.74 0.86 0.86 1.11 1.00 0.96 0.87 0.69 0.51 0.68 0.70 0.76 0.81 0.64 0.47 0.42 0.42
0.17 0.14 0.02 0.03 0.05 0.06 0.08 0.07 0.07 0.17 0.42 0.62 0.67 0.61 0.70 0.74 0.73 0.84 1.05 0.95 1.02 0.84 0.70 0.63 0.77 0.88 0.76 0.50 0.78 0.65 0.60 1.05 1.04 1.09 1.04 0.61 0.49 0.40
0.07 0.01 0.01 0.02 0.02 0.02 0.04 0.06 0.11 0.24 0.41 0.41 0.56 0.61 0.72 0.80 0.83 0.93 1.20 1.13 0.96 0.75 0.62 0.47 0.39 0.39 0.45 0.55 0.58 0.63 0.86 0.84 1.10 1.48 1.25 0.81 0.69 0.55
0.05 0.03 0.04 0.05 0.08 0.09 0.11 0.15 0.20 0.32 0.39 0.54 0.61 0.67 0.83 0.91 1.09 1.20 1.22 0.99 0.80 0.60 0.52 0.42 0.36 0.31 0.30 0.29 0.59 0.89 0.78 0.89 1.18 1.36 1.34 0.67 0.71 0.81
0.08 0.12 0.15 0.16 0.15 0.16 0.22 0.35 0.47 0.53 0.76 0.89 0.91 0.92 0.96 1.04 1.12 1.13 0.93 0.68 0.49 0.35 0.21 0.15 0.27 0.39 0.43 0.26 0.29 0.68 0.93 0.92 0.80 0.86 0.91 0.62 0.68 0.88
0.20 0.25 0.28 0.25 0.24 0.31 0.37 0.55 0.70 0.73 0.77 0.86 0.99 1.04 1.16 1.31 1.19 1.01 0.71 0.50 0.32 0.16 0.07 0.04 0.11 0.32 0.64 0.67 0.57 0.79 0.80 0.89 0.71 0.73 0.65 0.53 0.71 0.73
0.21 0.28 0.35 0.34 0.34 0.42 0.48 0.61 0.77 1.01 1.24 1.33 1.17 1.26 1.26 1.26 0.89 0.58 0.39 0.18 0.18 0.14 0.10 0.04 0.11 0.27 0.31 0.19 0.25 0.38 0.71 0.73 0.60 0.78 0.62 0.39 0.44 0.36
0.09 0.18 0.24 0.31 0.32 0.40 0.56 0.81 1.03 1.09 1.15 1.13 1.22 1.22 1.05 0.84 0.62 0.34 0.17 0.21 0.14 0.16 0.13 0.08 0.04 0.07 0.07 0.13 0.26 0.33 0.45 0.47 0.41 0.37 0.47 0.55 0.63 0.79
0.07 0.12 0.20 0.31 0.37 0.45 0.63 0.83 1.08 1.14 1.17 1.27 1.15 0.92 0.73 0.49 0.22 0.18 0.15 0.14 0.18 0.17 0.08 0.04 0.04 0.04 0.06 0.12 0.15 0.22 0.22 0.30 0.24 0.27 0.68 0.61 0.61 0.74

GFSNE_prec_precacc_060.txt.gz
Total_Precipitation_Accumulation
0.09 0.12 0.15 0.15 0.18 0.18 0.23 0.28 0.37 0.27 0.12 0.06 0.04 0.05 0.05 0.05 0.05 0.08 0.08 0.05 0.07 0.07 0.09 0.09 0.10 0.13 0.19 0.28 0.41 0.53 0.63 0.72 0.77 0.84 1.00 1.16 1.25 1.26
0.07 0.09 0.10 0.13 0.16 0.17 0.18 0.17 0.23 0.29 0.17 0.05 0.04 0.08 0.10 0.10 0.11 0.11 0.09 0.12 0.11 0.09 0.12 0.12 0.11 0.13 0.16 0.19 0.24 0.30 0.38 0.51 0.63 0.73 0.81 0.88 0.90 0.97
0.04 0.08 0.09 0.11 0.11 0.10 0.10 0.11 0.15 0.22 0.23 0.05 0.08 0.11 0.11 0.10 0.08 0.09 0.08 0.05 0.04 0.05 0.08 0.10 0.13 0.14 0.15 0.15 0.17 0.21 0.28 0.36 0.43 0.52 0.64 0.79 0.98 1.05
0.01 0.05 0.07 0.09 0.11 0.11 0.10 0.10 0.13 0.15 0.26 0.19 0.11 0.14 0.12 0.11 0.10 0.12 0.12 0.13 0.14 0.12 0.13 0.12 0.14 0.18 0.21 0.22 0.23 0.24 0.23 0.25 0.33 0.47 0.56 0.62 0.70 0.83
0.00 0.02 0.03 0.06 0.07 0.06 0.07 0.08 0.13 0.22 0.31 0.40 0.22 0.14 0.10 0.12 0.16 0.20 0.20 0.19 0.18 0.22 0.27 0.26 0.28 0.32 0.36 0.36 0.37 0.43 0.51 0.54 0.53 0.50 0.55 0.65 0.77 0.88
0.00 0.00 0.01 0.01 0.02 0.02 0.04 0.13 0.21 0.32 0.34 0.33 0.39 0.28 0.21 0.19 0.26 0.28 0.25 0.26 0.29 0.30 0.33 0.32 0.31 0.31 0.32 0.37 0.43 0.45 0.46 0.48 0.54 0.62 0.68 0.70 0.71 0.74
0.00 0.00 0.00 0.00 0.00 0.04 0.10 0.15 0.32 0.40 0.55 0.73 0.66 0.60 0.56 0.44 0.39 0.40 0.46 0.38 0.32 0.25 0.21 0.22 0.27 0.32 0.33 0.35 0.40 0.37 0.41 0.51 0.59 0.64 0.66 0.75 0.81 0.85
0.00 0.00 0.00 0.00 0.00 0.04 0.10 0.18 0.33 0.64 0.84 0.93 0.94 0.71 0.45 0.41 0.38 0.45 0.59 0.70 0.62 0.29 0.28 0.36 0.40 0.47 0.46 0.46 0.45 0.43 0.44 0.46 0.49 0.55 0.63 0.66 0.67 0.71
0.00 0.00 0.00 0.00 0.01 0.03 0.08 0.16 0.33 0.61 0.70 0.58 0.50 0.43 0.40 0.36 0.53 0.65 0.64 0.73 0.62 0.34 0.40 0.48 0.38 0.40 0.41 0.46 0.54 0.47 0.48 0.48 0.49 0.51 0.54 0.57 0.56 0.61
0.00 0.00 0.01 0.02 0.03 0.06 0.14 0.39 0.35 0.21 0.20 0.26 0.33 0.36 0.46 0.57 0.80 1.06 1.07 0.98 0.69 0.45 0.42 0.56 0.31 0.35 0.37 0.44 0.57 0.47 0.40 0.42 0.46 0.48 0.49 0.52 0.56 0.62
0.00 0.01 0.05 0.03 0.03 0.13 0.37 0.41 0.19 0.13 0.19 0.27 0.39 0.45 0.43 0.37 0.41 0.77 0.90 0.81 0.70 0.39 0.31 0.43 0.36 0.37 0.41 0.39 0.45 0.46 0.42 0.45 0.51 0.53 0.53 0.58 0.62 0.64
0.02 0.02 0.03 0.04 0.10 0.36 0.27 0.24 0.26 0.17 0.33 0.34 0.35 0.39 0.39 0.38 0.44 0.50 0.95 1.60 1.10 0.86 0.38 0.79 0.64 0.53 0.85 0.38 0.39 0.53 0.49 0.43 0.42 0.41 0.40 0.41 0.46 0.49
0.11 0.03 0.03 0.14 0.35 0.21 0.16 0.19 0.22 0.27 0.33 0.30 0.32 0.37 0.39 0.40 0.45 0.61 0.98 1.80 2.00 1.41 0.56 1.25 1.33 0.60 0.92 0.55 0.41 0.50 0.42 0.45 0.47 0.45 0.41 0.39 0.37 0.39
0.05 0.02 0.09 0.23 0.09 0.05 0.09 0.18 0.32 0.31 0.24 0.33 0.47 0.52 0.51 0.52 0.59 0.66 0.72 0.85 1.03 1.38 0.84 1.02 1.70 0.90 1.08 0.77 0.52 0.55 0.54 0.49 0.53 0.46 0.39 0.44 0.53 0.59
0.05 0.16 0.15 0.03 0.03 0.04 0.10 0.17 0.16 0.15 0.35 0.66 0.81 0.82 0.75 0.80 0.84 0.76 0.68 0.64 0.68 0.74 0.86 0.86 1.12 1.01 0.99 0.89 0.70 0.51 0.68 0.70 0.76 0.81 0.64 0.47 0.42 0.43
0.17 0.14 0.02 0.03 0.05 0.06 0.08 0.07 0.07 0.17 0.42 0.62 0.67 0.61 0.70 0.74 0.73 0.84 1.06 0.96 1.02 0.84 0.70 0.63 0.77 0.89 0.79 0.52 0.79 0.67 0.60 1.05 1.04 1.09 1.04 0.61 0.49 0.40
0.07 0.01 0.01 0.02 0.02 0.02 0.04 0.06 0.11 0.24 0.41 0.41 0.56 0.61 0.72 0.81 0.83 0.93 1.20 1.13 0.97 0.75 0.62 0.47 0.39 0.39 0.45 0.55 0.59 0.64 0.86 0.84 1.10 1.48 1.25 0.82 0.69 0.55
0.05 0.03 0.04 0.05 0.08 0.09 0.11 0.15 0.20 0.32 0.39 0.55 0.61 0.68 0.83 0.91 1.09 1.21 1.22 1.00 0.80 0.60 0.52 0.42 0.36 0.32 0.31 0.29 0.59 0.89 0.78 0.89 1.18 1.36 1.34 0.68 0.72 0.81
0.08 0.12 0.15 0.16 0.15 0.16 0.22 0.35 0.48 0.53 0.76 0.90 0.91 0.93 0.98 1.05 1.12 1.14 0.93 0.69 0.50 0.36 0.21 0.15 0.28 0.42 0.47 0.26 0.29 0.68 0.95 0.94 0.81 0.86 0.91 0.62 0.69 0.88
0.20 0.25 0.28 0.25 0.24 0.31 0.38 0.56 0.70 0.73 0.77 0.86 1.00 1.04 1.17 1.32 1.20 1.02 0.71 0.51 0.34 0.18 0.08 0.04 0.11 0.33 0.69 0.70 0.60 0.79 0.80 0.91 0.73 0.75 0.66 0.53 0.72 0.73
0.21 0.28 0.35 0.34 0.34 0.42 0.49 0.61 0.77 1.01 1.24 1.34 1.17 1.26 1.27 1.28 0.91 0.59 0.40 0.19 0.19 0.15 0.11 0.04 0.11 0.27 0.33 0.22 0.27 0.38 0.71 0.73 0.62 0.85 0.69 0.46 0.45 0.36
0.09 0.18 0.24 0.32 0.33 0.41 0.56 0.81 1.03 1.09 1.15 1.13 1.22 1.23 1.07 0.86 0.65 0.36 0.18 0.23 0.15 0.17 0.14 0.08 0.04 0.08 0.09 0.18 0.28 0.33 0.45 0.47 0.41 0.37 0.49 0.61 0.71 0.86
0.07 0.12 0.21 0.32 0.38 0.46 0.64 0.83 1.08 1.14 1.17 1.28 1.15 0.93 0.74 0.51 0.23 0.19 0.16 0.16 0.20 0.19 0.10 0.05 0.04 0.05 0.07 0.15 0.18 0.26 0.24 0.31 0.24 0.27 0.68 0.61 0.61 0.75

GFSNE_prec_precacc_063.txt.gz
Total_Precipitation_Accumulation
0.09 0.12 0.15 0.15 0.18 0.18 0.23 0.28 0.37 0.27 0.12 0.06 0.04 0.05 0.05 0.05 0.05 0.08 0.08 0.05 0.07 0.07 0.09 0.09 0.10 0.13 0.19 0.28 0.41 0.54 0.64 0.73 0.78 0.85 1.02 1.18 1.29 1.31
0.07 0.09 0.10 0.13 0.16 0.17 0.18 0.17 0.23 0.29 0.17 0.05 0.04 0.08 0.10 0.10 0.11 0.11 0.09 0.12 0.11 0.09 0.12 0.12 0.11 0.13 0.16 0.19 0.24 0.30 0.38 0.51 0.64 0.75 0.82 0.90 0.94 1.01
0.04 0.08 0.09 0.11 0.11 0.10 0.10 0.11 0.15 0.22 0.23 0.05 0.08 0.11 0.11 0.10 0.08 0.09 0.08 0.05 0.04 0.05 0.08 0.10 0.13 0.15 0.15 0.15 0.17 0.21 0.28 0.36 0.44 0.53 0.65 0.80 0.99 1.07
0.01 0.05 0.07 0.09 0.11 0.11 0.10 0.10 0.13 0.15 0.26 0.19 0.11 0.14 0.12 0.11 0.10 0.12 0.12 0.13 0.14 0.12 0.13 0.12 0.14 0.18 0.21 0.22 0.23 0.24 0.23 0.25 0.33 0.47 0.56 0.63 0.70 0.84
0.01 0.02 0.03 0.06 0.07 0.06 0.07 0.08 0.13 0.22 0.31 0.40 0.22 0.14 0.10 0.12 0.16 0.20 0.20 0.19 0.18 0.22 0.27 0.26 0.28 0.32 0.36 0.37 0.37 0.43 0.51 0.54 0.54 0.50 0.55 0.65 0.77 0.88
0.00 0.00 0.01 0.01 0.02 0.02 0.04 0.13 0.21 0.32 0.34 0.33 0.39 0.28 0.21 0.19 0.26 0.28 0.25 0.26 0.29 0.30 0.33 0.32 0.31 0.31 0.32 0.37 0.43 0.45 0.46 0.48 0.54 0.62 0.69 0.70 0.71 0.76
0.01 0.01 0.00 0.00 0.00 0.04 0.10 0.15 0.32 0.40 0.55 0.73 0.66 0.60 0.56 0.44 0.39 0.40 0.46 0.38 0.32 0.25 0.21 0.22 0.27 0.32 0.33 0.35 0.40 0.37 0.41 0.51 0.60 0.64 0.67 0.76 0.82 0.87
0.01 0.00 0.00 0.00 0.00 0.04 0.10 0.18 0.33 0.64 0.84 0.93 0.94 0.72 0.45 0.41 0.38 0.45 0.59 0.70 0.62 0.29 0.28 0.36 0.40 0.47 0.46 0.46 0.45 0.43 0.44 0.46 0.49 0.55 0.64 0.67 0.68 0.72
0.00 0.00 0.00 0.00 0.01 0.03 0.08 0.16 0.33 0.61 0.70 0.59 0.50 0.43 0.40 0.36 0.53 0.65 0.65 0.74 0.63 0.34 0.40 0.48 0.38 0.40 0.41 0.46 0.54 0.47 0.48 0.48 0.49 0.51 0.55 0.58 0.57 0.62
0.00 0.00 0.01 0.02 0.03 0.06 0.14 0.39 0.35 0.21 0.20 0.26 0.33 0.36 0.46 0.57 0.81 1.09 1.08 0.98 0.69 0.45 0.42 0.56 0.31 0.35 0.37 0.44 0.57 0.47 0.40 0.42 0.46 0.48 0.50 0.52 0.57 0.62
0.00 0.01 0.05 0.03 0.03 0.13 0.37 0.41 0.19 0.13 0.19 0.27 0.39 0.45 0.43 0.37 0.41 0.77 0.90 0.82 0.71 0.39 0.31 0.43 0.36 0.37 0.41 0.39 0.45 0.46 0.42 0.45 0.51 0.53 0.53 0.58 0.62 0.64
0.02 0.02 0.03 0.04 0.10 0.36 0.27 0.24 0.26 0.17 0.33 0.34 0.35 0.39 0.39 0.38 0.44 0.50 0.95 1.62 1.11 0.87 0.38 0.79 0.64 0.54 0.86 0.38 0.39 0.53 0.49 0.43 0.42 0.41 0.40 0.41 0.46 0.49
0.11 0.03 0.03 0.14 0.35 0.21 0.16 0.19 0.22 0.27 0.33 0.30 0.32 0.37 0.39 0.40 0.45 0.61 0.98 1.81 2.03 1.43 0.56 1.29 1.36 0.61 0.94 0.56 0.41 0.50 0.42 0.45 0.47 0.45 0.41 0.39 0.37 0.39
0.05 0.02 0.09 0.23 0.09 0.05 0.09 0.18 0.32 0.31 0.24 0.33 0.47 0.52 0.51 0.52 0.59 0.66 0.72 0.85 1.04 1.39 0.85 1.04 1.77 0.91 1.10 0.78 0.52 0.55 0.54 0.49 0.53 0.46 0.39 0.44 0.53 0.59
0.05 0.16 0.15 0.03 0.03 0.04 0.10 0.17 0.16 0.15 0.35 0.66 0.81 0.82 0.75 0.80 0.84 0.76 0.68 0.64 0.68 0.74 0.86 0.87 1.17 1.03 1.02 0.92 0.71 0.52 0.68 0.70 0.76 0.81 0.64 0.47 0.42 0.43
0.17 0.14 0.02 0.03 0.05 0.06 0.08 0.07 0.07 0.17 0.42 0.62 0.67 0.61 0.70 0.74 0.73 0.84 1.06 0.96 1.03 0.84 0.70 0.63 0.77 0.90 0.82 0.53 0.80 0.68 0.60 1.05 1.04 1.09 1.04 0.61 0.49 0.40
0.07 0.01 0.01 0.02 0.02 0.02 0.04 0.06 0.11 0.24 0.41 0.41 0.56 0.61 0.72 0.81 0.83 0.93 1.20 1.14 0.98 0.75 0.62 0.47 0.39 0.39 0.46 0.56 0.60 0.64 0.86 0.84 1.10 1.48 1.25 0.82 0.69 0.55
0.05 0.03 0.04 0.05 0.08 0.09 0.11 0.15 0.20 0.32 0.39 0.55 0.61 0.68 0.84 0.91 1.09 1.21 1.22 1.01 0.81 0.60 0.52 0.42 0.36 0.32 0.31 0.29 0.59 0.89 0.78 0.89 1.18 1.36 1.34 0.70 0.73 0.81
0.08 0.12 0.15 0.16 0.15 0.16 0.22 0.35 0.48 0.53 0.76 0.90 0.92 0.93 0.98 1.06 1.12 1.14 0.94 0.69 0.50 0.36 0.21 0.15 0.29 0.46 0.50 0.27 0.29 0.68 0.99 0.98 0.82 0.87 0.91 0.62 0.69 0.88
0.20 0.25 0.28 0.25 0.24 0.31 0.38 0.56 0.71 0.73 0.78 0.86 1.00 1.05 1.18 1.33 1.21 1.02 0.72 0.52 0.36 0.19 0.09 0.04 0.13 0.37 0.75 0.74 0.65 0.79 0.80 0.95 0.78 0.77 0.66 0.53 0.72 0.73
0.21 0.28 0.35 0.34 0.35 0.42 0.49 0.62 0.78 1.02 1.25 1.35 1.18 1.27 1.27 1.30 0.92 0.59 0.40 0.19 0.20 0.17 0.13 0.04 0.11 0.29 0.37 0.28 0.31 0.38 0.71 0.74 0.66 0.95 0.76 0.51 0.47 0.36
0.09 0.18 0.24 0.32 0.33 0.41 0.56 0.81 1.03 1.09 1.15 1.14 1.23 1.24 1.08 0.87 0.66 0.37 0.18 0.24 0.16 0.18 0.16 0.09 0.05 0.09 0.12 0.23 0.31 0.34 0.45 0.47 0.41 0.38 0.53 0.70 0.80 0.94
0.07 0.12 0.21 0.32 0.38 0.46 0.64 0.84 1.08 1.14 1.17 1.29 1.16 0.94 0.74 0.52 0.23 0.20 0.17 0.17 0.22 0.22 0.12 0.08 0.04 0.05 0.09 0.20 0.24 0.30 0.26 0.31 0.24 0.27 0.68 0.62 0.61 0.76

GFSNE_prec_precacc_066.txt.gz
Total_Precipitation_Accumulation
0.09 0.12 0.15 0.15 0.18 0.18 0.23 0.28 0.37 0.27 0.12 0.06 0.04 0.05 0.05 0.05 0.05 0.08 0.08 0.05 0.07 0.07 0.09 0.09 0.10 0.13 0.19 0.28 0.41 0.54 0.64 0.73 0.78 0.86 1.03 1.19 1.30 1.34
0.07 0.09 0.10 0.13 0.16 0.17 0.18 0.17 0.23 0.29 0.17 0.05 0.04 0.08 0.10 0.10 0.11 0.11 0.09 0.12 0.11 0.09 0.12 0.12 0.11 0.13 0.16 0.19 0.24 0.30 0.39 0.52 0.65 0.76 0.84 0.92 0.98 1.05
0.04 0.08 0.09 0.11 0.11 0.10 0.10 0.11 0.15 0.22 0.23 0.05 0.08 0.11 0.11 0.10 0.08 0.09 0.08 0.05 0.04 0.05 0.08 0.10 0.13 0.15 0.15 0.15 0.18 0.21 0.29 0.37 0.45 0.54 0.67 0.82 1.01 1.08
0.01 0.05 0.07 0.09 0.11 0.11 0.10 0.10 0.13 0.15 0.26 0.19 0.11 0.14 0.12 0.11 0.10 0.12 0.12 0.13 0.14 0.12 0.13 0.12 0.14 0.18 0.22 0.22 0.23 0.24 0.24 0.26 0.34 0.47 0.57 0.63 0.71 0.84
0.03 0.06 0.06 0.08 0.09 0.07 0.07 0.08 0.13 0.22 0.31 0.40 0.22 0.14 0.10 0.12 0.16 0.20 0.20 0.19 0.18 0.22 0.27 0.26 0.28 0.32 0.36 0.37 0.37 0.43 0.51 0.54 0.54 0.50 0.55 0.65 0.77 0.88
0.05 0.06 0.06 0.04 0.03 0.02 0.04 0.13 0.21 0.32 0.34 0.33 0.39 0.28 0.21 0.19 0.26 0.28 0.25 0.26 0.29 0.30 0.33 0.32 0.31 0.31 0.32 0.37 0.43 0.45 0.46 0.48 0.54 0.62 0.69 0.71 0.72 0.76
0.05 0.04 0.04 0.02 0.01 0.04 0.10 0.15 0.32 0.40 0.55 0.73 0.66 0.60 0.56 0.44 0.39 0.40 0.46 0.38 0.32 0.25 0.21 0.22 0.27 0.32 0.33 0.35 0.40 0.37 0.41 0.51 0.60 0.64 0.67 0.77 0.83 0.88
0.06 0.04 0.02 0.01 0.01 0.04 0.10 0.18 0.33 0.64 0.84 0.93 0.94 0.72 0.45 0.41 0.38 0.45 0.59 0.71 0.62 0.29 0.28 0.36 0.40 0.47 0.46 0.46 0.45 0.43 0.44 0.46 0.49 0.55 0.64 0.68 0.69 0.73
0.05 0.02 0.00 0.00 0.01 0.03 0.08 0.16 0.33 0.61 0.70 0.59 0.51 0.43 0.40 0.36 0.53 0.66 0.66 0.75 0.64 0.34 0.40 0.48 0.38 0.40 0.41 0.46 0.54 0.47 0.48 0.48 0.49 0.52 0.55 0.58 0.58 0.63
0.00 0.00 0.01 0.02 0.03 0.06 0.14 0.39 0.35 0.21 0.20 0.26 0.33 0.36 0.46 0.57 0.82 1.10 1.09 0.98 0.69 0.45 0.42 0.56 0.31 0.35 0.37 0.44 0.57 0.47 0.40 0.42 0.46 0.48 0.50 0.52 0.57 0.62
0.00 0.01 0.05 0.03 0.03 0.13 0.37 0.41 0.19 0.13 0.19 0.27 0.39 0.45 0.43 0.38 0.41 0.77 0.90 0.82 0.71 0.39 0.31 0.43 0.36 0.37 0.41 0.39 0.45 0.46 0.42 0.45 0.51 0.53 0.53 0.58 0.62 0.64
0.02 0.02 0.03 0.04 0.10 0.37 0.27 0.24 0.26 0.17 0.33 0.34 0.35 0.39 0.39 0.38 0.44 0.50 0.95 1.62 1.12 0.88 0.38 0.80 0.64 0.54 0.87 0.38 0.39 0.53 0.49 0.43 0.42 0.41 0.40 0.41 0.47 0.49
0.11 0.03 0.03 0.14 0.35 0.21 0.16 0.19 0.22 0.27 0.33 0.30 0.32 0.37 0.39 0.40 0.45 0.61 0.98 1.81 2.04 1.44 0.56 1.32 1.39 0.62 0.97 0.56 0.41 0.50 0.42 0.45 0.47 0.45 0.41 0.39 0.37 0.39
0.05 0.02 0.09 0.23 0.09 0.05 0.09 0.18 0.32 0.31 0.24 0.33 0.47 0.52 0.51 0.52 0.59 0.66 0.72 0.85 1.04 1.40 0.85 1.06 1.83 0.92 1.13 0.80 0.52 0.55 0.54 0.49 0.53 0.46 0.39 0.44 0.53 0.59
0.05 0.16 0.15 0.03 0.03 0.04 0.10 0.17 0.16 0.15 0.35 0.66 0.81 0.82 0.75 0.80 0.84 0.76 0.68 0.64 0.68 0.74 0.86 0.87 1.18 1.05 1.05 0.94 0.72 0.52 0.68 0.70 0.76 0.81 0.64 0.47 0.42 0.43
0.17 0.14 0.02 0.03 0.05 0.06 0.08 0.07 0.07 0.17 0.42 0.62 0.68 0.61 0.70 0.74 0.73 0.84 1.06 0.96 1.03 0.84 0.70 0.63 0.77 0.91 0.85 0.54 0.82 0.69 0.60 1.05 1.04 1.09 1.04 0.61 0.49 0.40
0.07 0.01 0.01 0.02 0.02 0.02 0.04 0.06 0.11 0.24 0.41 0.41 0.56 0.62 0.72 0.81 0.83 0.93 1.20 1.15 0.99 0.76 0.62 0.47 0.39 0.39 0.46 0.57 0.63 0.64 0.87 0.84 1.10 1.48 1.26 0.83 0.69 0.55
0.05 0.03 0.04 0.05 0.08 0.09 0.11 0.15 0.20 0.32 0.39 0.55 0.62 0.68 0.84 0.91 1.09 1.21 1.22 1.02 0.82 0.60 0.53 0.42 0.36 0.33 0.31 0.29 0.60 0.90 0.79 0.89 1.18 1.36 1.34 0.73 0.74 0.81
0.08 0.12 0.15 0.16 0.15 0.16 0.22 0.36 0.48 0.53 0.77 0.90 0.92 0.93 0.99 1.06 1.12 1.14 0.94 0.70 0.50 0.36 0.21 0.16 0.32 0.50 0.54 0.27 0.29 0.69 1.09 1.02 0.82 0.87 0.91 0.62 0.70 0.88
0.20 0.25 0.28 0.25 0.24 0.31 0.38 0.56 0.71 0.73 0.78 0.86 1.01 1.06 1.19 1.34 1.21 1.03 0.72 0.53 0.38 0.21 0.09 0.04 0.14 0.43 0.84 0.81 0.70 0.80 0.83 1.07 0.85 0.81 0.66 0.53 0.72 0.73
0.21 0.28 0.35 0.34 0.35 0.42 0.49 0.62 0.78 1.02 1.25 1.35 1.18 1.27 1.28 1.31 0.93 0.60 0.41 0.20 0.22 0.19 0.14 0.04 0.11 0.30 0.42 0.31 0.32 0.38 0.71 0.77 0.77 1.08 0.86 0.58 0.48 0.36
0.09 0.18 0.24 0.32 0.33 0.42 0.57 0.82 1.04 1.09 1.15 1.14 1.23 1.24 1.08 0.88 0.67 0.38 0.19 0.25 0.16 0.19 0.17 0.09 0.05 0.11 0.15 0.28 0.34 0.34 0.45 0.47 0.41 0.40 0.59 0.79 0.90 1.03
0.07 0.12 0.21 0.32 0.38 0.47 0.65 0.84 1.09 1.14 1.17 1.29 1.17 0.94 0.75 0.52 0.24 0.20 0.18 0.18 0.24 0.25 0.14 0.08 0.04 0.05 0.11 0.25 0.28 0.31 0.26 0.31 0.24 0.27 0.68 0.62 0.62 0.77

GFSNE_prec_precacc_072.txt.gz
Total_Precipitation_Accumulation
0.12 0.12 0.15 0.16 0.19 0.22 0.27 0.31 0.40 0.29 0.12 0.06 0.05 0.05 0.05 0.05 0.05 0.08 0.08 0.05 0.07 0.07 0.09 0.09 0.10 0.13 0.19 0.28 0.41 0.54 0.64 0.73 0.79 0.87 1.05 1.22 1.34 1.38
0.11 0.09 0.10 0.13 0.16 0.19 0.20 0.20 0.26 0.32 0.22 0.09 0.09 0.12 0.12 0.11 0.11 0.11 0.09 0.12 0.11 0.09 0.12 0.12 0.11 0.13 0.16 0.19 0.25 0.31 0.39 0.53 0.66 0.78 0.87 0.96 1.02 1.12
0.12 0.16 0.18 0.13 0.13 0.13 0.15 0.20 0.29 0.42 0.45 0.23 0.18 0.16 0.13 0.11 0.08 0.09 0.08 0.05 0.04 0.05 0.08 0.10 0.13 0.15 0.15 0.15 0.18 0.21 0.29 0.38 0.47 0.56 0.70 0.86 1.06 1.13
0.06 0.14 0.19 0.25 0.27 0.30 0.35 0.38 0.38 0.34 0.39 0.24 0.13 0.14 0.12 0.11 0.11 0.12 0.12 0.13 0.14 0.12 0.13 0.12 0.14 0.18 0.22 0.23 0.23 0.25 0.24 0.28 0.36 0.49 0.58 0.64 0.72 0.86
0.09 0.14 0.16 0.20 0.25 0.25 0.24 0.24 0.22 0.26 0.32 0.41 0.22 0.15 0.10 0.12 0.16 0.20 0.20 0.19 0.18 0.22 0.27 0.26 0.28 0.32 0.36 0.37 0.37 0.43 0.51 0.54 0.54 0.51 0.55 0.66 0.77 0.89
0.08 0.12 0.17 0.22 0.20 0.16 0.14 0.18 0.24 0.34 0.36 0.34 0.40 0.28 0.21 0.19 0.26 0.28 0.25 0.26 0.29 0.30 0.33 0.32 0.31 0.31 0.32 0.37 0.43 0.45 0.46 0.48 0.54 0.62 0.69 0.71 0.72 0.77
0.21 0.23 0.21 0.16 0.10 0.09 0.13 0.16 0.32 0.41 0.55 0.73 0.66 0.60 0.56 0.44 0.39 0.40 0.46 0.38 0.32 0.25 0.21 0.22 0.27 0.32 0.33 0.35 0.40 0.37 0.41 0.51 0.60 0.65 0.68 0.78 0.85 0.91
0.20 0.15 0.10 0.08 0.05 0.06 0.11 0.18 0.33 0.65 0.85 0.93 0.94 0.72 0.45 0.41 0.38 0.45 0.59 0.71 0.63 0.29 0.28 0.36 0.40 0.47 0.46 0.46 0.45 0.43 0.44 0.46 0.50 0.56 0.65 0.69 0.71 0.76
0.10 0.07 0.05 0.03 0.03 0.04 0.08 0.16 0.33 0.61 0.70 0.59 0.51 0.43 0.40 0.36 0.53 0.66 0.66 0.76 0.64 0.34 0.40 0.48 0.38 0.40 0.41 0.46 0.54 0.47 0.48 0.48 0.49 0.52 0.55 0.59 0.59 0.65
0.04 0.02 0.02 0.02 0.03 0.06 0.14 0.39 0.35 0.21 0.20 0.26 0.33 0.36 0.46 0.57 0.82 1.11 1.09 0.99 0.69 0.45 0.42 0.56 0.31 0.35 0.37 0.44 0.57 0.47 0.40 0.42 0.46 0.49 0.50 0.52 0.58 0.64
0.01 0.01 0.05 0.03 0.03 0.13 0.37 0.41 0.19 0.13 0.19 0.27 0.39 0.45 0.43 0.38 0.41 0.77 0.90 0.82 0.72 0.39 0.31 0.43 0.36 0.37 0.41 0.39 0.45 0.46 0.42 0.45 0.51 0.53 0.53 0.59 0.63 0.65
0.02 0.02 0.03 0.04 0.10 0.37 0.27 0.24 0.26 0.17 0.33 0.34 0.35 0.39 0.39 0.38 0.44 0.50 0.95 1.63 1.13 0.90 0.38 0.82 0.65 0.55 0.88 0.38 0.39 0.53 0.49 0.43 0.42 0.41 0.40 0.41 0.47 0.49
0.11 0.03 0.03 0.14 0.35 0.21 0.16 0.19 0.22 0.27 0.33 0.30 0.32 0.37 0.39 0.40 0.45 0.61 0.98 1.82 2.06 1.46 0.56 1.38 1.44 0.62 0.99 0.57 0.41 0.50 0.42 0.45 0.47 0.45 0.41 0.39 0.37 0.40
0.05 0.02 0.09 0.23 0.09 0.05 0.09 0.18 0.32 0.31 0.24 0.33 0.47 0.52 0.51 0.52 0.59 0.66 0.72 0.85 1.04 1.41 0.85 1.07 1.89 0.93 1.17 0.82 0.52 0.55 0.54 0.49 0.53 0.46 0.39 0.44 0.53 0.59
0.05 0.16 0.15 0.03 0.03 0.04 0.10 0.17 0.16 0.15 0.35 0.66 0.81 0.82 0.75 0.80 0.84 0.76 0.68 0.64 0.68 0.74 0.86 0.87 1.19 1.06 1.09 0.97 0.73 0.52 0.68 0.70 0.76 0.81 0.64 0.47 0.42 0.43
0.17 0.14 0.02 0.03 0.05 0.06 0.08 0.07 0.07 0.17 0.42 0.62 0.68 0.61 0.70 0.74 0.73 0.84 1.06 0.96 1.04 0.84 0.70 0.63 0.77 0.92 0.88 0.56 0.83 0.70 0.60 1.06 1.04 1.09 1.04 0.62 0.49 0.40
0.07 0.01 0.01 0.02 0.02 0.02 0.04 0.06 0.11 0.24 0.41 0.41 0.57 0.62 0.72 0.81 0.83 0.93 1.21 1.16 1.00 0.76 0.62 0.47 0.39 0.40 0.47 0.58 0.65 0.64 0.87 0.84 1.10 1.48 1.26 0.84 0.69 0.55
0.05 0.03 0.04 0.05 0.08 0.09 0.11 0.15 0.20 0.32 0.39 0.55 0.62 0.68 0.84 0.92 1.10 1.21 1.23 1.03 0.83 0.61 0.53 0.42 0.36 0.34 0.31 0.30 0.60 0.91 0.80 0.90 1.18 1.36 1.36 0.77 0.75 0.81
0.08 0.12 0.15 0.16 0.15 0.16 0.22 0.36 0.48 0.53 0.77 0.90 0.92 0.94 1.00 1.07 1.13 1.15 0.94 0.70 0.51 0.36 0.21 0.16 0.33 0.54 0.58 0.28 0.29 0.70 1.20 1.06 0.83 0.88 0.91 0.63 0.71 0.88
0.20 0.25 0.28 0.25 0.24 0.31 0.38 0.56 0.71 0.73 0.78 0.86 1.01 1.07 1.20 1.36 1.22 1.03 0.73 0.54 0.39 0.22 0.10 0.04 0.14 0.47 0.96 0.89 0.76 0.80 0.85 1.14 0.89 0.83 0.67 0.53 0.72 0.73
0.21 0.28 0.35 0.34 0.35 0.43 0.49 0.62 0.78 1.02 1.26 1.36 1.18 1.28 1.29 1.33 0.94 0.60 0.41 0.20 0.23 0.20 0.15 0.05 0.11 0.31 0.44 0.36 0.36 0.39 0.71 0.77 0.79 1.14 0.93 0.65 0.49 0.37
0.09 0.18 0.24 0.32 0.33 0.42 0.57 0.82 1.04 1.09 1.16 1.14 1.24 1.25 1.09 0.89 0.69 0.38 0.20 0.26 0.17 0.19 0.18 0.10 0.05 0.11 0.16 0.33 0.36 0.35 0.45 0.47 0.41 0.40 0.62 0.91 1.05 1.17
0.07 0.12 0.21 0.32 0.38 0.47 0.65 0.84 1.09 1.15 1.18 1.30 1.17 0.95 0.76 0.54 0.24 0.21 0.19 0.19 0.26 0.28 0.15 0.10 0.05 0.06 0.12 0.27 0.30 0.32 0.26 0.31 0.24 0.27 0.68 0.62 0.64 0.81

GFSNE_prec_precacc_075.txt.gz
Total_Precipitation_Accumulation
0.16 0.17 0.21 0.20 0.24 0.28 0.38 0.43 0.54 0.43 0.22 0.11 0.07 0.07 0.07 0.07 0.06 0.09 0.08 0.06 0.07 0.07 0.09 0.09 0.10 0.13 0.19 0.28 0.41 0.54 0.64 0.73 0.79 0.87 1.05 1.23 1.35 1.39
0.21 0.26 0.28 0.32 0.35 0.38 0.33 0.25 0.30 0.39 0.30 0.13 0.13 0.17 0.19 0.19 0.17 0.15 0.11 0.13 0.11 0.09 0.12 0.12 0.11 0.13 0.16 0.19 0.25 0.31 0.39 0.53 0.66 0.78 0.87 0.96 1.03 1.13
0.16 0.22 0.27 0.33 0.41 0.45 0.50 0.52 0.52 0.59 0.56 0.29 0.29 0.29 0.23 0.16 0.10 0.10 0.08 0.05 0.04 0.05 0.08 0.10 0.13 0.15 0.15 0.15 0.18 0.21 0.29 0.38 0.47 0.56 0.71 0.87 1.07 1.14
0.08 0.16 0.21 0.28 0.36 0.42 0.47 0.47 0.44 0.41 0.44 0.29 0.15 0.16 0.12 0.11 0.11 0.12 0.12 0.13 0.14 0.12 0.13 0.12 0.14 0.18 0.22 0.23 0.23 0.25 0.24 0.28 0.36 0.49 0.58 0.64 0.72 0.86
0.11 0.16 0.17 0.21 0.25 0.25 0.24 0.25 0.26 0.31 0.35 0.41 0.22 0.15 0.10 0.12 0.16 0.20 0.20 0.19 0.18 0.22 0.27 0.26 0.28 0.32 0.36 0.37 0.37 0.43 0.51 0.54 0.54 0.51 0.55 0.66 0.77 0.89
0.10 0.13 0.17 0.22 0.21 0.17 0.15 0.19 0.24 0.34 0.36 0.34 0.40 0.28 0.21 0.19 0.26 0.28 0.25 0.26 0.29 0.30 0.33 0.32 0.31 0.31 0.32 0.37 0.43 0.45 0.46 0.48 0.54 0.62 0.69 0.71 0.72 0.77
0.22 0.24 0.22 0.17 0.11 0.09 0.13 0.16 0.32 0.41 0.55 0.73 0.66 0.60 0.56 0.44 0.39 0.40 0.46 0.38 0.32 0.25 0.21 0.22 0.27 0.32 0.33 0.35 0.40 0.37 0.41 0.51 0.60 0.65 0.68 0.78 0.85 0.91
0.28 0.21 0.12 0.08 0.05 0.07 0.11 0.18 0.33 0.65 0.85 0.93 0.94 0.72 0.45 0.41 0.38 0.45 0.59 0.71 0.63 0.29 0.28 0.36 0.40 0.47 0.46 0.46 0.45 0.43 0.44 0.46 0.50 0.56 0.65 0.69 0.71 0.77
0.20 0.12 0.07 0.04 0.03 0.04 0.08 0.16 0.33 0.61 0.70 0.59 0.51 0.43 0.40 0.36 0.53 0.66 0.66 0.76 0.64 0.34 0.40 0.48 0.38 0.40 0.41 0.46 0.54 0.47 0.48 0.48 0.49 0.52 0.55 0.59 0.59 0.65
0.05 0.02 0.02 0.02 0.03 0.06 0.14 0.39 0.35 0.21 0.20 0.26 0.33 0.36 0.46 0.57 0.82 1.12 1.09 0.99 0.69 0.45 0.42 0.56 0.31 0.35 0.37 0.44 0.57 0.47 0.40 0.42 0.46 0.49 0.50 0.53 0.58 0.64
0.01 0.01 0.05 0.03 0.03 0.13 0.37 0.41 0.19 0.13 0.19 0.27 0.39 0.45 0.43 0.38 0.41 0.77 0.90 0.83 0.72 0.39 0.31 0.43 0.36 0.37 0.41 0.39 0.45 0.46 0.42 0.45 0.51 0.53 0.53 0.59 0.63 0.65
0.02 0.02 0.03 0.04 0.10 0.37 0.27 0.24 0.26 0.17 0.33 0.34 0.35 0.39 0.39 0.38 0.44 0.50 0.95 1.63 1.14 0.90 0.38 0.83 0.65 0.55 0.89 0.38 0.39 0.53 0.49 0.43 0.42 0.41 0.40 0.41 0.47 0.49
0.11 0.03 0.03 0.14 0.35 0.21 0.16 0.19 0.22 0.27 0.33 0.30 0.32 0.37 0.39 0.40 0.45 0.61 0.98 1.82 2.06 1.47 0.56 1.39 1.45 0.63 1.00 0.57 0.41 0.50 0.42 0.45 0.47 0.45 0.41 0.39 0.37 0.40
0.05 0.02 0.09 0.23 0.09 0.05 0.09 0.18 0.32 0.31 0.24 0.33 0.47 0.52 0.51 0.52 0.59 0.66 0.72 0.85 1.04 1.41 0.85 1.07 1.91 0.94 1.18 0.83 0.53 0.55 0.54 0.49 0.53 0.46 0.39 0.44 0.53 0.59
0.05 0.16 0.15 0.03 0.03 0.04 0.10 0.17 0.16 0.15 0.35 0.66 0.81 0.82 0.75 0.80 0.84 0.76 0.68 0.64 0.69 0.74 0.86 0.87 1.19 1.06 1.10 0.99 0.74 0.52 0.68 0.70 0.76 0.81 0.64 0.47 0.42 0.43
0.17 0.14 0.02 0.03 0.05 0.06 0.08 0.07 0.07 0.17 0.42 0.62 0.68 0.61 0.70 0.74 0.73 0.84 1.06 0.96 1.04 0.84 0.70 0.63 0.77 0.93 0.90 0.56 0.84 0.71 0.60 1.06 1.04 1.09 1.05 0.62 0.49 0.40
0.07 0.01 0.01 0.02 0.02 0.02 0.04 0.06 0.11 0.24 0.41 0.41 0.57 0.62 0.72 0.81 0.83 0.93 1.21 1.16 1.01 0.76 0.62 0.47 0.39 0.40 0.48 0.59 0.66 0.65 0.87 0.84 1.10 1.48 1.27 0.84 0.69 0.55
0.05 0.03 0.04 0.05 0.08 0.09 0.11 0.15 0.20 0.32 0.39 0.55 0.62 0.69 0.85 0.92 1.10 1.21 1.23 1.03 0.83 0.61 0.53 0.42 0.37 0.34 0.31 0.30 0.61 0.92 0.82 0.90 1.19 1.36 1.36 0.78 0.75 0.81
0.08 0.12 0.15 0.16 0.15 0.16 0.22 0.36 0.48 0.53 0.77 0.91 0.92 0.94 1.00 1.07 1.13 1.15 0.94 0.70 0.51 0.36 0.21 0.16 0.34 0.56 0.61 0.29 0.29 0.70 1.21 1.07 0.83 0.88 0.91 0.63 0.71 0.88
0.20 0.25 0.28 0.25 0.24 0.31 0.38 0.56 0.71 0.74 0.78 0.87 1.01 1.07 1.21 1.37 1.23 1.04 0.73 0.55 0.40 0.23 0.10 0.05 0.14 0.48 1.00 0.92 0.77 0.80 0.85 1.15 0.90 0.84 0.67 0.53 0.72 0.73
0.21 0.28 0.35 0.34 0.35 0.43 0.49 0.62 0.78 1.03 1.26 1.37 1.19 1.29 1.29 1.34 0.94 0.61 0.41 0.20 0.23 0.21 0.16 0.05 0.11 0.31 0.45 0.39 0.39 0.39 0.71 0.77 0.80 1.17 0.94 0.67 0.49 0.37
0.09 0.18 0.24 0.32 0.33 0.42 0.57 0.82 1.04 1.09 1.16 1.15 1.24 1.25 1.09 0.90 0.70 0.39 0.20 0.27 0.17 0.19 0.19 0.10 0.05 0.11 0.17 0.36 0.38 0.35 0.45 0.47 0.41 0.40 0.62 0.93 1.09 1.22
0.07 0.12 0.21 0.32 0.38 0.47 0.65 0.84 1.09 1.15 1.18 1.31 1.18 0.95 0.76 0.54 0.25 0.22 0.20 0.19 0.27 0.30 0.16 0.11 0.05 0.06 0.12 0.29 0.32 0.33 0.26 0.31 0.24 0.27 0.68 0.62 0.65 0.82

GFSNE_prec_precacc_078.txt.gz
Total_Precipitation_Accumulation
0.21 0.22 0.24 0.23 0.27 0.31 0.41 0.56 0.79 0.83 0.68 0.53 0.42 0.31 0.23 0.20 0.14 0.12 0.09 0.06 0.08 0.08 0.10 0.09 0.10 0.13 0.19 0.28 0.41 0.54 0.64 0.73 0.79 0.87 1.05 1.23 1.35 1.39
0.27 0.32 0.34 0.36 0.40 0.44 0.47 0.51 0.65 0.80 0.71 0.47 0.42 0.44 0.39 0.29 0.20 0.16 0.11 0.13 0.11 0.09 0.12 0.12 0.11 0.13 0.16 0.19 0.25 0.31 0.39 0.53 0.66 0.78 0.87 0.96 1.03 1.13
0.22 0.29 0.33 0.36 0.47 0.56 0.63 0.74 0.83 0.91 0.88 0.51 0.39 0.32 0.24 0.16 0.10 0.10 0.08 0.05 0.04 0.05 0.08 0.10 0.13 0.15 0.15 0.15 0.18 0.21 0.29 0.38 0.47 0.57 0.71 0.87 1.07 1.15
0.10 0.19 0.26 0.33 0.42 0.47 0.51 0.50 0.48 0.45 0.47 0.29 0.15 0.16 0.12 0.11 0.11 0.12 0.12 0.13 0.14 0.12 0.13 0.12 0.14 0.18 0.22 0.23 0.23 0.25 0.25 0.28 0.36 0.49 0.58 0.65 0.72 0.86
0.12 0.18 0.19 0.23 0.28 0.27 0.26 0.27 0.27 0.31 0.35 0.41 0.22 0.15 0.10 0.12 0.16 0.20 0.20 0.19 0.18 0.22 0.27 0.26 0.28 0.32 0.36 0.37 0.37 0.43 0.51 0.54 0.54 0.51 0.56 0.66 0.78 0.89
0.10 0.13 0.18 0.23 0.24 0.20 0.16 0.19 0.24 0.34 0.36 0.34 0.40 0.28 0.21 0.19 0.26 0.28 0.25 0.26 0.29 0.30 0.33 0.32 0.31 0.31 0.32 0.37 0.43 0.45 0.46 0.48 0.54 0.62 0.70 0.71 0.72 0.77
0.22 0.26 0.26 0.23 0.16 0.14 0.15 0.17 0.32 0.41 0.55 0.73 0.66 0.60 0.56 0.44 0.39 0.40 0.46 0.38 0.32 0.25 0.21 0.22 0.27 0.32 0.33 0.35 0.40 0.37 0.41 0.51 0.60 0.65 0.68 0.78 0.85 0.91
0.34 0.31 0.26 0.21 0.14 0.12 0.13 0.19 0.34 0.65 0.85 0.93 0.94 0.72 0.45 0.41 0.38 0.45 0.59 0.71 0.63 0.29 0.28 0.36 0.40 0.47 0.46 0.46 0.45 0.43 0.44 0.46 0.50 0.56 0.65 0.70 0.71 0.77
0.33 0.22 0.12 0.08 0.06 0.05 0.09 0.16 0.33 0.61 0.70 0.59 0.51 0.43 0.40 0.36 0.53 0.66 0.66 0.76 0.64 0.34 0.40 0.48 0.38 0.40 0.41 0.46 0.54 0.47 0.48 0.48 0.49 0.52 0.56 0.59 0.59 0.66
0.05 0.02 0.02 0.02 0.04 0.06 0.14 0.39 0.35 0.21 0.20 0.26 0.33 0.36 0.46 0.57 0.82 1.12 1.09 0.99 0.69 0.45 0.42 0.56 0.31 0.35 0.37 0.44 0.57 0.47 0.40 0.42 0.46 0.49 0.50 0.53 0.58 0.64
0.01 0.01 0.05 0.03 0.03 0.13 0.37 0.41 0.19 0.13 0.19 0.27 0.39 0.45 0.43 0.38 0.41 0.77 0.90 0.83 0.72 0.39 0.31 0.43 0.36 0.37 0.41 0.39 0.45 0.46 0.42 0.45 0.51 0.53 0.53 0.59 0.63 0.65
0.02 0.02 0.03 0.04 0.10 0.37 0.27 0.24 0.26 0.17 0.33 0.34 0.35 0.39 0.39 0.38 0.44 0.50 0.95 1.63 1.14 0.90 0.38 0.83 0.65 0.55 0.90 0.38 0.39 0.53 0.49 0.43 0.42 0.41 0.40 0.41 0.47 0.49
0.11 0.03 0.03 0.14 0.35 0.21 0.16 0.19 0.22 0.27 0.33 0.30 0.32 0.37 0.39 0.40 0.45 0.61 0.98 1.82 2.06 1.47 0.56 1.41 1.46 0.63 1.01 0.57 0.41 0.50 0.42 0.45 0.47 0.45 0.41 0.39 0.37 0.40
0.05 0.02 0.09 0.23 0.09 0.05 0.09 0.18 0.32 0.31 0.24 0.33 0.47 0.52 0.51 0.52 0.59 0.66 0.72 0.85 1.04 1.41 0.85 1.08 1.93 0.94 1.20 0.84 0.53 0.55 0.54 0.49 0.53 0.46 0.39 0.44 0.53 0.59
0.05 0.16 0.15 0.03 0.03 0.04 0.10 0.17 0.16 0.15 0.35 0.66 0.81 0.82 0.75 0.80 0.84 0.76 0.68 0.64 0.69 0.74 0.86 0.87 1.20 1.07 1.13 1.01 0.74 0.52 0.68 0.70 0.76 0.81 0.64 0.47 0.42 0.43
0.17 0.14 0.02 0.03 0.05 0.06 0.08 0.07 0.07 0.17 0.42 0.62 0.68 0.61 0.70 0.74 0.73 0.84 1.06 0.96 1.04 0.84 0.70 0.63 0.77 0.95 0.92 0.57 0.85 0.72 0.60 1.06 1.04 1.09 1.05 0.62 0.49 0.40
0.07 0.01 0.01 0.02 0.02 0.02 0.04 0.06 0.11 0.24 0.41 0.41 0.57 0.62 0.72 0.81 0.83 0.93 1.21 1.16 1.01 0.76 0.62 0.47 0.39 0.40 0.48 0.60 0.67 0.65 0.87 0.84 1.10 1.48 1.27 0.85 0.69 0.55
0.05 0.03 0.04 0.05 0.08 0.09 0.11 0.15 0.20 0.32 0.39 0.55 0.62 0.69 0.85 0.92 1.10 1.21 1.23 1.03 0.84 0.61 0.53 0.42 0.37 0.35 0.32 0.30 0.61 0.92 0.82 0.91 1.19 1.36 1.36 0.79 0.76 0.81
0.08 0.12 0.15 0.16 0.15 0.16 0.22 0.36 0.48 0.53 0.77 0.91 0.93 0.94 1.00 1.08 1.14 1.15 0.94 0.71 0.51 0.36 0.21 0.16 0.34 0.57 0.63 0.30 0.29 0.70 1.21 1.07 0.83 0.88 0.91 0.63 0.71 0.88
0.20 0.25 0.28 0.25 0.24 0.31 0.38 0.57 0.71 0.74 0.78 0.87 1.02 1.07 1.21 1.38 1.23 1.04 0.73 0.55 0.40 0.23 0.10 0.05 0.14 0.48 1.02 0.93 0.79 0.80 0.85 1.15 0.92 0.87 0.67 0.53 0.72 0.73
0.21 0.28 0.35 0.34 0.35 0.43 0.49 0.62 0.78 1.03 1.26 1.37 1.19 1.29 1.29 1.35 0.95 0.61 0.42 0.21 0.23 0.21 0.16 0.05 0.11 0.31 0.45 0.40 0.41 0.39 0.71 0.77 0.81 1.21 0.97 0.70 0.50 0.37
0.09 0.18 0.24 0.32 0.33 0.42 0.57 0.82 1.04 1.09 1.16 1.15 1.24 1.26 1.09 0.90 0.70 0.39 0.21 0.27 0.17 0.20 0.19 0.10 0.05 0.11 0.17 0.37 0.39 0.35 0.45 0.47 0.41 0.40 0.62 0.96 1.15 1.27
0.07 0.12 0.21 0.32 0.38 0.47 0.65 0.84 1.09 1.15 1.18 1.31 1.18 0.95 0.77 0.55 0.25 0.22 0.20 0.20 0.27 0.30 0.17 0.11 0.05 0.06 0.13 0.29 0.33 0.33 0.26 0.31 0.24 0.27 0.68 0.63 0.65 0.82

GFSNE_prec_precacc_081.txt.gz
Total_Precipitation_Accumulation
0.26 0.29 0.32 0.29 0.31 0.35 0.45 0.60 0.85 0.89 0.74 0.63 0.58 0.52 0.47 0.41 0.37 0.32 0.23 0.13 0.09 0.08 0.10 0.09 0.10 0.13 0.19 0.28 0.41 0.54 0.64 0.73 0.79 0.87 1.05 1.23 1.35 1.39
0.29 0.36 0.41 0.44 0.47 0.50 0.53 0.57 0.73 0.92 0.85 0.67 0.68 0.69 0.57 0.43 0.30 0.20 0.12 0.14 0.12 0.09 0.12 0.12 0.11 0.13 0.16 0.19 0.25 0.31 0.39 0.53 0.66 0.78 0.87 0.96 1.03 1.14
0.24 0.32 0.37 0.41 0.51 0.59 0.66 0.79 0.91 0.99 0.96 0.63 0.50 0.37 0.26 0.17 0.10 0.10 0.08 0.05 0.04 0.05 0.08 0.10 0.13 0.15 0.15 0.15 0.18 0.21 0.29 0.39 0.47 0.57 0.71 0.88 1.07 1.16
0.11 0.20 0.27 0.34 0.43 0.48 0.53 0.54 0.54 0.52 0.56 0.37 0.19 0.16 0.12 0.11 0.11 0.12 0.12 0.13 0.14 0.12 0.13 0.12 0.14 0.18 0.22 0.23 0.23 0.25 0.25 0.28 0.36 0.49 0.59 0.65 0.73 0.86
0.12 0.18 0.19 0.23 0.29 0.28 0.28 0.29 0.31 0.36 0.38 0.43 0.23 0.15 0.10 0.12 0.16 0.20 0.20 0.19 0.18 0.22 0.27 0.26 0.28 0.32 0.36 0.37 0.37 0.43 0.51 0.54 0.54 0.51 0.56 0.66 0.78 0.89
0.10 0.13 0.18 0.23 0.24 0.21 0.19 0.24 0.27 0.35 0.36 0.34 0.40 0.29 0.22 0.19 0.26 0.28 0.25 0.26 0.29 0.30 0.33 0.32 0.31 0.31 0.32 0.37 0.43 0.45 0.46 0.48 0.54 0.62 0.70 0.71 0.72 0.77
0.22 0.26 0.26 0.26 0.21 0.20 0.21 0.20 0.34 0.41 0.55 0.73 0.66 0.60 0.56 0.44 0.39 0.40 0.46 0.38 0.32 0.25 0.21 0.22 0.27 0.32 0.33 0.35 0.40 0.37 0.41 0.51 0.60 0.65 0.68 0.78 0.85 0.92
0.34 0.31 0.28 0.25 0.18 0.16 0.16 0.20 0.34 0.65 0.85 0.93 0.94 0.72 0.45 0.41 0.38 0.45 0.59 0.71 0.63 0.29 0.28 0.36 0.40 0.47 0.46 0.46 0.45 0.43 0.44 0.46 0.50 0.56 0.65 0.70 0.71 0.77
0.33 0.23 0.14 0.08 0.06 0.05 0.09 0.16 0.33 0.61 0.70 0.59 0.51 0.43 0.40 0.36 0.53 0.66 0.66 0.76 0.64 0.34 0.40 0.48 0.38 0.40 0.41 0.46 0.54 0.47 0.48 0.48 0.49 0.52 0.56 0.59 0.59 0.66
0.05 0.02 0.02 0.02 0.04 0.06 0.14 0.39 0.35 0.21 0.20 0.26 0.33 0.36 0.46 0.57 0.82 1.12 1.09 0.99 0.69 0.45 0.42 0.56 0.31 0.35 0.37 0.44 0.57 0.47 0.40 0.42 0.46 0.49 0.50 0.53 0.58 0.64
0.01 0.01 0.05 0.03 0.03 0.13 0.37 0.41 0.19 0.13 0.19 0.27 0.39 0.45 0.43 0.38 0.41 0.77 0.90 0.83 0.72 0.39 0.31 0.43 0.36 0.37 0.41 0.39 0.45 0.46 0.42 0.45 0.51 0.53 0.53 0.59 0.63 0.65
0.02 0.02 0.03 0.04 0.10 0.37 0.27 0.24 0.26 0.17 0.33 0.34 0.35 0.39 0.39 0.38 0.44 0.50 0.95 1.63 1.14 0.90 0.38 0.83 0.65 0.55 0.90 0.38 0.39 0.53 0.49 0.43 0.42 0.41 0.40 0.41 0.47 0.49
0.11 0.03 0.03 0.14 0.35 0.21 0.16 0.19 0.22 0.27 0.33 0.30 0.32 0.37 0.39 0.40 0.45 0.61 0.98 1.82 2.07 1.47 0.56 1.42 1.47 0.63 1.02 0.58 0.41 0.50 0.42 0.45 0.47 0.45 0.41 0.39 0.37 0.40
0.05 0.02 0.09 0.23 0.09 0.05 0.09 0.18 0.32 0.31 0.24 0.33 0.47 0.52 0.51 0.52 0.59 0.66 0.72 0.85 1.04 1.41 0.85 1.09 1.95 0.95 1.22 0.85 0.53 0.55 0.54 0.49 0.53 0.46 0.39 0.44 0.53 0.59
0.05 0.16 0.15 0.03 0.03 0.04 0.10 0.17 0.16 0.15 0.35 0.66 0.81 0.82 0.75 0.80 0.84 0.76 0.68 0.64 0.69 0.74 0.86 0.87 1.21 1.08 1.15 1.03 0.75 0.52 0.68 0.70 0.76 0.81 0.64 0.47 0.42 0.43
0.17 0.14 0.02 0.03 0.05 0.06 0.08 0.07 0.07 0.17 0.42 0.62 0.68 0.61 0.70 0.74 0.73 0.84 1.06 0.96 1.04 0.84 0.70 0.63 0.77 0.95 0.93 0.58 0.86 0.72 0.60 1.07 1.04 1.09 1.05 0.62 0.49 0.40
0.07 0.01 0.01 0.02 0.02 0.02 0.04 0.06 0.11 0.24 0.41 0.41 0.57 0.62 0.72 0.81 0.83 0.93 1.21 1.16 1.01 0.76 0.62 0.47 0.39 0.40 0.48 0.60 0.67 0.65 0.87 0.84 1.10 1.48 1.27 0.85 0.69 0.55
0.05 0.03 0.04 0.05 0.08 0.09 0.11 0.15 0.20 0.32 0.39 0.55 0.62 0.69 0.85 0.92 1.10 1.22 1.23 1.04 0.84 0.61 0.53 0.42 0.37 0.35 0.32 0.30 0.61 0.92 0.82 0.91 1.19 1.36 1.36 0.79 0.76 0.81
0.08 0.12 0.15 0.16 0.15 0.16 0.22 0.36 0.48 0.53 0.77 0.91 0.93 0.94 1.00 1.08 1.14 1.15 0.94 0.71 0.52 0.36 0.21 0.16 0.34 0.57 0.64 0.30 0.29 0.70 1.21 1.07 0.83 0.88 0.91 0.63 0.71 0.88
0.20 0.25 0.28 0.25 0.24 0.31 0.38 0.57 0.71 0.74 0.78 0.87 1.02 1.07 1.21 1.38 1.23 1.04 0.73 0.55 0.41 0.23 0.11 0.05 0.14 0.48 1.03 0.95 0.81 0.81 0.85 1.15 0.92 0.88 0.67 0.53 0.72 0.73
0.21 0.28 0.35 0.34 0.35 0.43 0.49 0.62 0.78 1.03 1.26 1.37 1.19 1.29 1.30 1.35 0.95 0.61 0.42 0.21 0.24 0.21 0.16 0.05 0.11 0.31 0.45 0.41 0.43 0.39 0.71 0.77 0.81 1.22 0.97 0.71 0.51 0.37
0.09 0.18 0.24 0.32 0.33 0.42 0.57 0.82 1.04 1.09 1.16 1.15 1.25 1.26 1.10 0.91 0.71 0.40 0.21 0.28 0.18 0.20 0.19 0.10 0.05 0.11 0.18 0.39 0.40 0.35 0.45 0.47 0.41 0.40 0.62 0.97 1.19 1.32
0.07 0.12 0.21 0.32 0.38 0.47 0.65 0.84 1.09 1.15 1.18 1.31 1.18 0.96 0.77 0.56 0.25 0.23 0.21 0.20 0.28 0.31 0.17 0.12 0.05 0.06 0.13 0.29 0.33 0.34 0.26 0.31 0.24 0.27 0.68 0.63 0.65 0.82

GFSNE_prec_precacc_084.txt.gz
Total_Precipitation_Accumulation
0.26 0.30 0.33 0.31 0.35 0.41 0.51 0.67 0.96 0.97 0.77 0.63 0.58 0.55 0.52 0.48 0.44 0.40 0.30 0.19 0.13 0.10 0.11 0.10 0.10 0.13 0.19 0.28 0.41 0.54 0.64 0.73 0.79 0.88 1.06 1.23 1.35 1.39
0.30 0.36 0.42 0.45 0.49 0.54 0.58 0.62 0.77 0.95 0.89 0.68 0.72 0.76 0.70 0.57 0.43 0.29 0.17 0.16 0.12 0.10 0.12 0.13 0.12 0.13 0.16 0.19 0.25 0.31 0.39 0.53 0.66 0.78 0.87 0.96 1.04 1.14
0.24 0.32 0.38 0.42 0.52 0.60 0.67 0.80 0.92 1.00 0.97 0.64 0.53 0.45 0.34 0.25 0.15 0.12 0.08 0.05 0.04 0.05 0.08 0.10 0.13 0.15 0.15 0.15 0.18 0.21 0.29 0.39 0.47 0.57 0.71 0.88 1.08 1.16
0.11 0.20 0.27 0.34 0.43 0.48 0.53 0.54 0.54 0.53 0.58 0.39 0.23 0.22 0.17 0.15 0.12 0.13 0.12 0.13 0.14 0.12 0.13 0.12 0.14 0.18 0.22 0.23 0.23 0.25 0.25 0.28 0.36 0.49 0.59 0.65 0.73 0.86
0.12 0.18 0.19 0.23 0.29 0.28 0.28 0.29 0.31 0.36 0.39 0.45 0.25 0.16 0.11 0.12 0.16 0.20 0.20 0.19 0.18 0.22 0.27 0.26 0.28 0.32 0.36 0.37 0.37 0.43 0.51 0.54 0.54 0.51 0.56 0.66 0.78 0.89
0.10 0.13 0.18 0.23 0.24 0.21 0.20 0.24 0.28 0.36 0.37 0.35 0.40 0.29 0.22 0.19 0.26 0.28 0.25 0.26 0.29 0.30 0.33 0.32 0.31 0.31 0.32 0.37 0.43 0.45 0.46 0.48 0.54 0.62 0.70 0.71 0.72 0.77
0.22 0.26 0.27 0.26 0.22 0.20 0.21 0.21 0.34 0.41 0.55 0.74 0.66 0.60 0.56 0.44 0.39 0.40 0.46 0.38 0.32 0.25 0.21 0.22 0.27 0.32 0.33 0.35 0.40 0.37 0.41 0.51 0.60 0.65 0.68 0.78 0.85 0.92
0.34 0.31 0.29 0.25 0.18 0.16 0.16 0.20 0.34 0.65 0.85 0.93 0.94 0.72 0.45 0.41 0.38 0.45 0.59 0.71 0.63 0.29 0.28 0.36 0.40 0.47 0.46 0.46 0.45 0.43 0.44 0.46 0.50 0.56 0.66 0.70 0.71 0.77
0.33 0.23 0.14 0.08 0.06 0.05 0.09 0.16 0.33 0.61 0.70 0.59 0.51 0.43 0.40 0.36 0.53 0.66 0.66 0.76 0.64 0.34 0.40 0.48 0.38 0.40 0.41 0.46 0.54 0.47 0.48 0.48 0.49 0.52 0.56 0.59 0.60 0.66
0.05 0.02 0.02 0.02 0.04 0.06 0.14 0.39 0.35 0.21 0.20 0.26 0.33 0.36 0.46 0.57 0.82 1.12 1.09 0.99 0.69 0.45 0.42 0.56 0.31 0.35 0.37 0.44 0.57 0.47 0.40 0.42 0.46 0.49 0.50 0.53 0.58 0.64
0.01 0.01 0.05 0.03 0.03 0.13 0.37 0.41 0.19 0.13 0.19 0.27 0.39 0.45 0.43 0.38 0.41 0.77 0.90 0.83 0.72 0.39 0.31 0.43 0.36 0.37 0.41 0.39 0.45 0.46 0.42 0.45 0.51 0.53 0.53 0.59 0.63 0.65
0.02 0.02 0.03 0.04 0.10 0.37 0.27 0.24 0.26 0.17 0.33 0.34 0.35 0.39 0.39 0.38 0.44 0.50 0.95 1.63 1.14 0.90 0.38 0.84 0.65 0.55 0.90 0.38 0.39 0.53 0.49 0.43 0.42 0.41 0.40 0.41 0.47 0.49
0.11 0.03 0.03 0.14 0.35 0.21 0.16 0.19 0.22 0.27 0.33 0.30 0.32 0.37 0.39 0.40 0.45 0.61 0.98 1.82 2.07 1.47 0.56 1.43 1.48 0.63 1.02 0.58 0.41 0.50 0.42 0.45 0.47 0.45 0.41 0.39 0.37 0.40
0.05 0.02 0.09 0.23 0.09 0.05 0.09 0.18 0.32 0.31 0.24 0.33 0.47 0.52 0.51 0.52 0.59 0.66 0.72 0.85 1.04 1.41 0.85 1.09 1.96 0.96 1.23 0.86 0.53 0.55 0.54 0.49 0.53 0.46 0.39 0.44 0.53 0.59
0.05 0.16 0.15 0.03 0.03 0.04 0.10 0.17 0.16 0.15 0.35 0.66 0.81 0.82 0.75 0.80 0.84 0.76 0.68 0.64 0.69 0.74 0.86 0.87 1.21 1.08 1.15 1.03 0.75 0.52 0.68 0.70 0.76 0.81 0.64 0.47 0.42 0.43
0.17 0.14 0.02 0.03 0.05 0.06 0.08 0.07 0.07 0.17 0.42 0.62 0.68 0.61 0.70 0.74 0.73 0.84 1.06 0.96 1.04 0.84 0.70 0.63 0.77 0.95 0.93 0.58 0.86 0.73 0.60 1.07 1.04 1.09 1.05 0.62 0.49 0.40
0.07 0.01 0.01 0.02 0.02 0.02 0.04 0.06 0.11 0.24 0.41 0.41 0.57 0.62 0.72 0.81 0.83 0.93 1.21 1.16 1.02 0.76 0.62 0.47 0.39 0.40 0.48 0.60 0.67 0.65 0.87 0.84 1.10 1.48 1.28 0.85 0.69 0.55
0.05 0.03 0.04 0.05 0.08 0.09 0.11 0.15 0.20 0.32 0.39 0.55 0.62 0.69 0.85 0.92 1.10 1.22 1.23 1.04 0.84 0.61 0.53 0.42 0.37 0.35 0.32 0.30 0.61 0.92 0.82 0.91 1.19 1.36 1.36 0.79 0.76 0.81
0.08 0.12 0.15 0.16 0.15 0.16 0.22 0.36 0.48 0.53 0.77 0.91 0.93 0.94 1.00 1.08 1.14 1.16 0.94 0.71 0.52 0.36 0.21 0.16 0.34 0.57 0.66 0.30 0.29 0.70 1.21 1.07 0.83 0.88 0.91 0.64 0.72 0.88
0.20 0.25 0.28 0.25 0.24 0.31 0.38 0.57 0.71 0.74 0.78 0.87 1.02 1.07 1.22 1.38 1.24 1.04 0.73 0.56 0.41 0.24 0.11 0.05 0.14 0.48 1.04 0.95 0.83 0.81 0.85 1.15 0.92 0.88 0.67 0.53 0.72 0.73
0.21 0.28 0.35 0.34 0.35 0.43 0.49 0.62 0.78 1.03 1.26 1.37 1.19 1.29 1.30 1.36 0.96 0.61 0.42 0.21 0.24 0.22 0.17 0.05 0.11 0.31 0.45 0.43 0.45 0.40 0.71 0.77 0.81 1.22 0.97 0.72 0.52 0.37
0.09 0.18 0.24 0.32 0.33 0.42 0.57 0.82 1.04 1.09 1.16 1.15 1.25 1.26 1.10 0.91 0.71 0.40 0.21 0.28 0.18 0.20 0.20 0.10 0.05 0.11 0.18 0.40 0.41 0.36 0.45 0.47 0.41 0.40 0.62 0.97 1.20 1.34
0.07 0.12 0.21 0.32 0.38 0.47 0.65 0.84 1.09 1.15 1.18 1.31 1.19 0.96 0.77 0.56 0.25 0.23 0.21 0.21 0.28 0.31 0.17 0.12 0.05 0.06 0.13 0.30 0.34 0.34 0.26 0.31 0.24 0.27 0.68 0.63 0.65 0.82

GFSNE_prec_precacc_087.txt.gz
Total_Precipitation_Accumulation
0.27 0.30 0.33 0.31 0.36 0.42 0.52 0.69 0.98 1.00 0.79 0.63 0.59 0.55 0.53 0.49 0.46 0.43 0.34 0.26 0.17 0.13 0.14 0.12 0.11 0.14 0.20 0.29 0.41 0.54 0.64 0.73 0.79 0.88 1.06 1.23 1.35 1.39
0.30 0.36 0.42 0.46 0.50 0.54 0.58 0.63 0.78 0.98 0.91 0.69 0.72 0.76 0.70 0.57 0.44 0.30 0.19 0.20 0.16 0.13 0.14 0.13 0.12 0.13 0.16 0.19 0.25 0.31 0.39 0.53 0.66 0.78 0.88 0.97 1.04 1.15
0.24 0.33 0.38 0.42 0.52 0.60 0.67 0.80 0.92 1.00 0.97 0.64 0.53 0.45 0.34 0.25 0.16 0.13 0.09 0.06 0.05 0.05 0.08 0.10 0.13 0.15 0.15 0.15 0.18 0.21 0.29 0.39 0.47 0.57 0.72 0.89 1.09 1.17
0.11 0.20 0.27 0.34 0.43 0.48 0.53 0.54 0.54 0.53 0.58 0.39 0.23 0.22 0.17 0.15 0.12 0.13 0.12 0.13 0.14 0.12 0.13 0.12 0.14 0.18 0.22 0.23 0.23 0.25 0.25 0.28 0.36 0.49 0.59 0.66 0.74 0.87
0.12 0.18 0.19 0.23 0.29 0.28 0.28 0.29 0.31 0.36 0.39 0.45 0.25 0.16 0.11 0.12 0.16 0.20 0.20 0.19 0.18 0.22 0.27 0.26 0.28 0.32 0.36 0.37 0.37 0.43 0.51 0.54 0.54 0.51 0.56 0.66 0.78 0.89
0.10 0.13 0.18 0.23 0.24 0.21 0.20 0.24 0.28 0.36 0.37 0.35 0.40 0.29 0.22 0.19 0.26 0.28 0.25 0.26 0.29 0.30 0.33 0.32 0.31 0.31 0.32 0.37 0.43 0.45 0.46 0.48 0.54 0.62 0.70 0.71 0.72 0.77
0.22 0.26 0.27 0.26 0.22 0.20 0.21 0.21 0.34 0.41 0.55 0.74 0.66 0.60 0.56 0.44 0.39 0.40 0.46 0.38 0.32 0.25 0.21 0.22 0.27 0.32 0.33 0.35 0.40 0.37 0.41 0.51 0.60 0.65 0.68 0.78 0.85 0.92
0.34 0.31 0.29 0.25 0.18 0.16 0.16 0.20 0.34 0.65 0.85 0.93 0.94 0.72 0.45 0.41 0.38 0.45 0.59 0.71 0.63 0.29 0.28 0.36 0.40 0.47 0.46 0.46 0.45 0.43 0.44 0.46 0.50 0.56 0.66 0.70 0.71 0.77
0.33 0.23 0.14 0.08 0.06 0.05 0.09 0.16 0.33 0.61 0.70 0.59 0.51 0.43 0.40 0.36 0.53 0.66 0.66 0.76 0.64 0.34 0.40 0.48 0.38 0.40 0.41 0.46 0.54 0.47 0.48 0.48 0.49 0.52 0.56 0.59 0.60 0.66
0.05 0.02 0.02 0.02 0.04 0.06 0.14 0.39 0.35 0.21 0.20 0.26 0.33 0.36 0.46 0.57 0.82 1.12 1.09 0.99 0.69 0.45 0.42 0.56 0.31 0.35 0.37 0.44 0.57 0.47 0.40 0.42 0.46 0.49 0.50 0.53 0.58 0.64
0.01 0.01 0.05 0.03 0.03 0.13 0.37 0.41 0.19 0.13 0.19 0.27 0.39 0.45 0.43 0.38 0.41 0.77 0.90 0.83 0.72 0.39 0.31 0.43 0.36 0.37 0.41 0.39 0.45 0.46 0.42 0.45 0.51 0.53 0.53 0.59 0.63 0.65
0.02 0.02 0.03 0.04 0.10 0.37 0.27 0.24 0.26 0.17 0.33 0.34 0.35 0.39 0.39 0.38 0.44 0.50 0.95 1.63 1.14 0.90 0.38 0.84 0.65 0.55 0.90 0.38 0.39 0.53 0.49 0.43 0.42 0.41 0.40 0.41 0.47 0.49
0.11 0.03 0.03 0.14 0.35 0.21 0.16 0.19 0.22 0.27 0.33 0.30 0.32 0.37 0.39 0.40 0.45 0.61 0.98 1.82 2.07 1.47 0.56 1.43 1.48 0.64 1.03 0.58 0.41 0.50 0.42 0.45 0.47 0.45 0.41 0.39 0.37 0.40
0.05 0.02 0.09 0.23 0.09 0.05 0.09 0.18 0.32 0.31 0.24 0.33 0.47 0.52 0.51 0.52 0.59 0.66 0.72 0.85 1.04 1.41 0.85 1.09 1.97 0.96 1.23 0.86 0.53 0.55 0.54 0.49 0.53 0.46 0.39 0.44 0.53 0.59
0.05 0.16 0.15 0.03 0.03 0.04 0.10 0.17 0.16 0.15 0.35 0.66 0.81 0.82 0.75 0.80 0.84 0.76 0.68 0.64 0.69 0.74 0.86 0.87 1.21 1.08 1.16 1.05 0.76 0.52 0.68 0.70 0.76 0.81 0.64 0.47 0.42 0.43
0.17 0.14 0.02 0.03 0.05 0.06 0.08 0.07 0.07 0.17 0.42 0.62 0.68 0.61 0.70 0.74 0.73 0.84 1.06 0.96 1.04 0.84 0.70 0.63 0.77 0.95 0.93 0.58 0.87 0.73 0.60 1.07 1.04 1.09 1.05 0.62 0.49 0.40
0.07 0.01 0.01 0.02 0.02 0.02 0.04 0.06 0.11 0.24 0.41 0.41 0.57 0.62 0.72 0.81 0.83 0.93 1.21 1.16 1.02 0.76 0.62 0.47 0.39 0.40 0.48 0.60 0.67 0.65 0.87 0.84 1.10 1.48 1.28 0.85 0.69 0.55
0.05 0.03 0.04 0.05 0.08 0.09 0.11 0.15 0.20 0.32 0.39 0.55 0.62 0.69 0.85 0.92 1.10 1.22 1.23 1.04 0.85 0.61 0.53 0.42 0.37 0.35 0.32 0.30 0.61 0.92 0.82 0.91 1.19 1.36 1.36 0.80 0.76 0.81
0.08 0.12 0.15 0.16 0.15 0.16 0.22 0.36 0.48 0.53 0.77 0.91 0.93 0.94 1.01 1.08 1.14 1.16 0.94 0.71 0.52 0.36 0.21 0.16 0.34 0.58 0.67 0.31 0.29 0.70 1.21 1.07 0.83 0.88 0.91 0.64 0.72 0.88
0.20 0.25 0.28 0.25 0.24 0.31 0.38 0.57 0.71 0.74 0.78 0.87 1.02 1.08 1.22 1.39 1.24 1.05 0.74 0.56 0.41 0.24 0.11 0.05 0.14 0.48 1.05 0.96 0.84 0.81 0.85 1.15 0.92 0.88 0.67 0.53 0.72 0.73
0.21 0.28 0.35 0.34 0.35 0.43 0.49 0.62 0.78 1.03 1.26 1.37 1.19 1.29 1.30 1.36 0.96 0.62 0.43 0.21 0.25 0.22 0.17 0.05 0.11 0.31 0.46 0.44 0.47 0.40 0.71 0.77 0.81 1.22 0.97 0.72 0.52 0.38
0.09 0.18 0.24 0.32 0.33 0.42 0.57 0.82 1.04 1.09 1.16 1.15 1.25 1.26 1.10 0.91 0.71 0.40 0.22 0.29 0.18 0.20 0.20 0.10 0.05 0.11 0.19 0.42 0.41 0.36 0.45 0.47 0.41 0.40 0.62 0.97 1.21 1.35
0.07 0.12 0.21 0.32 0.38 0.47 0.65 0.84 1.09 1.15 1.18 1.31 1.19 0.96 0.77 0.56 0.25 0.23 0.22 0.21 0.28 0.31 0.18 0.12 0.05 0.06 0.13 0.30 0.34 0.34 0.26 0.31 0.24 0.27 0.68 0.63 0.65 0.82

GFSNE_prec_precacc_090.txt.gz
Total_Precipitation_Accumulation
0.27 0.30 0.33 0.31 0.36 0.42 0.53 0.69 0.99 1.00 0.79 0.63 0.59 0.55 0.53 0.49 0.46 0.44 0.34 0.26 0.17 0.14 0.15 0.13 0.12 0.15 0.20 0.29 0.41 0.54 0.64 0.73 0.79 0.88 1.06 1.23 1.35 1.40
0.30 0.36 0.42 0.46 0.50 0.54 0.59 0.63 0.78 0.98 0.91 0.69 0.72 0.76 0.70 0.57 0.44 0.30 0.19 0.20 0.16 0.13 0.14 0.13 0.12 0.14 0.16 0.19 0.25 0.31 0.39 0.53 0.66 0.78 0.88 0.97 1.04 1.15
0.24 0.33 0.38 0.42 0.52 0.60 0.67 0.80 0.92 1.00 0.97 0.64 0.53 0.45 0.34 0.25 0.16 0.13 0.09 0.06 0.05 0.06 0.08 0.10 0.13 0.15 0.15 0.15 0.18 0.21 0.29 0.39 0.47 0.57 0.72 0.89 1.09 1.18
0.11 0.20 0.27 0.34 0.43 0.48 0.53 0.54 0.54 0.53 0.58 0.39 0.23 0.22 0.17 0.15 0.12 0.13 0.12 0.13 0.14 0.12 0.13 0.12 0.14 0.18 0.22 0.23 0.23 0.25 0.25 0.28 0.36 0.50 0.59 0.66 0.74 0.87
0.12 0.18 0.19 0.23 0.29 0.28 0.28 0.29 0.31 0.36 0.39 0.45 0.25 0.16 0.11 0.12 0.16 0.20 0.20 0.19 0.18 0.22 0.27 0.26 0.28 0.32 0.36 0.37 0.37 0.43 0.51 0.54 0.54 0.51 0.56 0.66 0.78 0.89
0.10 0.13 0.18 0.23 0.24 0.21 0.20 0.24 0.28 0.36 0.37 0.35 0.40 0.29 0.22 0.19 0.26 0.28 0.25 0.26 0.29 0.30 0.33 0.32 0.31 0.31 0.32 0.37 0.43 0.45 0.46 0.48 0.54 0.62 0.70 0.71 0.72 0.77
0.22 0.26 0.27 0.26 0.22 0.20 0.21 0.21 0.34 0.41 0.55 0.74 0.66 0.60 0.56 0.44 0.39 0.40 0.46 0.38 0.32 0.25 0.21 0.22 0.27 0.32 0.33 0.35 0.40 0.37 0.41 0.51 0.60 0.65 0.68 0.78 0.85 0.92
0.34 0.31 0.29 0.25 0.18 0.16 0.16 0.20 0.34 0.65 0.85 0.93 0.94 0.72 0.45 0.41 0.38 0.45 0.59 0.71 0.63 0.29 0.28 0.36 0.40 0.47 0.46 0.46 0.45 0.43 0.44 0.46 0.50 0.56 0.66 0.70 0.71 0.77
0.33 0.23 0.14 0.08 0.06 0.05 0.09 0.16 0.33 0.61 0.70 0.59 0.51 0.43 0.40 0.36 0.53 0.66 0.66 0.76 0.64 0.34 0.40 0.48 0.38 0.40 0.41 0.46 0.54 0.47 0.48 0.48 0.49 0.52 0.56 0.59 0.60 0.66
0.05 0.02 0.02 0.02 0.04 0.06 0.14 0.39 0.35 0.21 0.20 0.26 0.33 0.36 0.46 0.57 0.82 1.12 1.09 0.99 0.69 0.45 0.42 0.56 0.31 0.35 0.37 0.44 0.57 0.47 0.40 0.42 0.46 0.49 0.50 0.53 0.58 0.64
0.01 0.01 0.05 0.03 0.03 0.13 0.37 0.41 0.19 0.13 0.19 0.27 0.39 0.45 0.43 0.38 0.41 0.77 0.90 0.83 0.72 0.39 0.31 0.43 0.36 0.37 0.41 0.39 0.45 0.46 0.42 0.45 0.51 0.53 0.53 0.59 0.63 0.65
0.02 0.02 0.03 0.04 0.10 0.37 0.27 0.24 0.26 0.17 0.33 0.34 0.35 0.39 0.39 0.38 0.44 0.50 0.95 1.63 1.14 0.90 0.38 0.84 0.65 0.55 0.90 0.38 0.39 0.53 0.49 0.43 0.42 0.41 0.40 0.41 0.47 0.49
0.11 0.03 0.03 0.14 0.35 0.21 0.16 0.19 0.22 0.27 0.33 0.30 0.32 0.37 0.39 0.40 0.45 0.61 0.98 1.82 2.07 1.47 0.56 1.44 1.48 0.64 1.03 0.58 0.41 0.50 0.42 0.45 0.47 0.45 0.41 0.39 0.37 0.40
0.05 0.02 0.09 0.23 0.09 0.05 0.09 0.18 0.32 0.31 0.24 0.33 0.47 0.52 0.51 0.52 0.59 0.66 0.72 0.85 1.04 1.42 0.85 1.09 1.97 0.96 1.24 0.87 0.53 0.55 0.54 0.49 0.53 0.46 0.39 0.44 0.53 0.59
0.05 0.16 0.15 0.03 0.03 0.04 0.10 0.17 0.16 0.15 0.35 0.66 0.81 0.82 0.75 0.80 0.84 0.76 0.68 0.64 0.69 0.74 0.86 0.87 1.21 1.08 1.17 1.06 0.76 0.52 0.68 0.70 0.76 0.81 0.64 0.47 0.42 0.43
0.17 0.14 0.02 0.03 0.05 0.06 0.08 0.07 0.07 0.17 0.42 0.62 0.68 0.61 0.70 0.74 0.73 0.84 1.06 0.96 1.04 0.84 0.70 0.63 0.77 0.95 0.93 0.59 0.87 0.73 0.60 1.07 1.04 1.09 1.05 0.62 0.49 0.40
0.07 0.01 0.01 0.02 0.02 0.02 0.04 0.06 0.11 0.24 0.41 0.41 0.57 0.62 0.72 0.81 0.83 0.93 1.21 1.16 1.02 0.77 0.62 0.47 0.39 0.40 0.48 0.60 0.67 0.65 0.87 0.84 1.10 1.48 1.28 0.85 0.69 0.55
0.05 0.03 0.04 0.05 0.08 0.09 0.11 0.15 0.20 0.32 0.39 0.55 0.62 0.69 0.85 0.93 1.11 1.22 1.23 1.04 0.85 0.62 0.53 0.42 0.37 0.35 0.32 0.30 0.61 0.92 0.82 0.91 1.19 1.36 1.36 0.80 0.76 0.81
0.08 0.12 0.15 0.16 0.15 0.16 0.22 0.36 0.48 0.53 0.77 0.91 0.93 0.94 1.01 1.09 1.15 1.16 0.94 0.71 0.52 0.36 0.21 0.16 0.34 0.58 0.67 0.31 0.29 0.70 1.21 1.07 0.83 0.88 0.91 0.64 0.72 0.88
0.20 0.25 0.28 0.25 0.24 0.31 0.38 0.57 0.71 0.74 0.78 0.87 1.02 1.08 1.22 1.39 1.24 1.05 0.74 0.56 0.41 0.24 0.11 0.05 0.14 0.48 1.06 0.96 0.84 0.81 0.85 1.15 0.92 0.88 0.67 0.53 0.72 0.73
0.21 0.28 0.35 0.34 0.35 0.43 0.49 0.62 0.78 1.03 1.26 1.37 1.19 1.29 1.30 1.36 0.96 0.62 0.43 0.22 0.25 0.23 0.17 0.05 0.11 0.31 0.46 0.46 0.48 0.40 0.71 0.77 0.81 1.22 0.97 0.72 0.52 0.38
0.09 0.18 0.24 0.32 0.33 0.42 0.57 0.82 1.04 1.09 1.16 1.15 1.25 1.26 1.10 0.92 0.72 0.41 0.22 0.29 0.18 0.20 0.20 0.10 0.05 0.11 0.19 0.43 0.42 0.36 0.45 0.47 0.41 0.40 0.62 0.97 1.21 1.36
0.07 0.12 0.21 0.32 0.38 0.47 0.65 0.84 1.09 1.15 1.18 1.31 1.19 0.96 0.77 0.56 0.25 0.23 0.22 0.21 0.29 0.31 0.18 0.12 0.05 0.06 0.14 0.30 0.35 0.35 0.27 0.31 0.24 0.27 0.68 0.63 0.65 0.82

GFSNE_prec_precacc_093.txt.gz
Total_Precipitation_Accumulation
0.27 0.30 0.33 0.31 0.36 0.42 0.53 0.69 0.99 1.00 0.79 0.64 0.59 0.55 0.53 0.49 0.46 0.44 0.34 0.26 0.17 0.14 0.15 0.13 0.12 0.15 0.20 0.29 0.41 0.54 0.64 0.73 0.79 0.88 1.06 1.23 1.35 1.40
0.30 0.36 0.42 0.46 0.50 0.54 0.59 0.63 0.78 0.98 0.91 0.69 0.72 0.76 0.70 0.57 0.44 0.30 0.19 0.20 0.16 0.13 0.14 0.13 0.12 0.14 0.16 0.19 0.25 0.31 0.39 0.53 0.66 0.78 0.88 0.97 1.04 1.15
0.24 0.33 0.38 0.42 0.52 0.60 0.67 0.80 0.92 1.00 0.97 0.64 0.53 0.45 0.34 0.25 0.16 0.13 0.09 0.06 0.05 0.06 0.08 0.10 0.13 0.15 0.15 0.15 0.18 0.21 0.29 0.39 0.47 0.57 0.72 0.89 1.09 1.18
0.11 0.20 0.27 0.34 0.43 0.48 0.53 0.54 0.54 0.53 0.58 0.39 0.23 0.22 0.17 0.15 0.12 0.13 0.12 0.13 0.14 0.12 0.13 0.12 0.14 0.18 0.22 0.23 0.23 0.25 0.25 0.28 0.36 0.50 0.59 0.66 0.74 0.87
0.12 0.18 0.19 0.23 0.29 0.28 0.28 0.29 0.31 0.36 0.39 0.45 0.25 0.16 0.11 0.12 0.16 0.20 0.20 0.19 0.18 0.22 0.27 0.26 0.28 0.32 0.36 0.37 0.37 0.43 0.51 0.54 0.54 0.51 0.56 0.66 0.78 0.89
0.10 0.13 0.18 0.23 0.24 0.21 0.20 0.24 0.28 0.36 0.37 0.35 0.40 0.29 0.22 0.19 0.26 0.28 0.25 0.26 0.29 0.30 0.33 0.32 0.31 0.31 0.32 0.37 0.43 0.45 0.46 0.48 0.54 0.62 0.70 0.71 0.72 0.77
0.22 0.26 0.27 0.26 0.22 0.20 0.21 0.21 0.34 0.41 0.55 0.74 0.66 0.60 0.56 0.44 0.39 0.40 0.46 0.38 0.32 0.25 0.21 0.22 0.27 0.32 0.33 0.35 0.40 0.37 0.41 0.51 0.60 0.65 0.68 0.78 0.85 0.92
0.34 0.31 0.29 0.25 0.18 0.16 0.16 0.20 0.34 0.65 0.85 0.93 0.94 0.72 0.45 0.41 0.38 0.45 0.59 0.71 0.63 0.29 0.28 0.36 0.40 0.47 0.46 0.46 0.45 0.43 0.44 0.46 0.50 0.56 0.66 0.70 0.71 0.77
0.33 0.23 0.14 0.08 0.06 0.05 0.09 0.16 0.33 0.61 0.70 0.59 0.51 0.43 0.40 0.36 0.53 0.66 0.66 0.76 0.64 0.34 0.40 0.48 0.38 0.40 0.41 0.46 0.54 0.47 0.48 0.48 0.49 0.52 0.56 0.59 0.60 0.66
0.05 0.02 0.02 0.02 0.04 0.06 0.14 0.39 0.35 0.21 0.20 0.26 0.33 0.36 0.46 0.57 0.82 1.12 1.09 0.99 0.69 0.45 0.42 0.56 0.31 0.35 0.37 0.44 0.57 0.47 0.40 0.42 0.46 0.49 0.50 0.53 0.58 0.64
0.01 0.01 0.05 0.03 0.03 0.13 0.37 0.41 0.19 0.13 0.19 0.27 0.39 0.45 0.43 0.38 0.41 0.77 0.90 0.83 0.72 0.39 0.31 0.43 0.36 0.37 0.41 0.39 0.45 0.46 0.42 0.45 0.51 0.53 0.53 0.59 0.63 0.65
0.02 0.02 0.03 0.04 0.10 0.37 0.27 0.24 0.26 0.17 0.33 0.34 0.35 0.39 0.39 0.38 0.44 0.50 0.95 1.63 1.14 0.90 0.38 0.84 0.65 0.55 0.90 0.38 0.39 0.53 0.49 0.43 0.42 0.41 0.40 0.41 0.47 0.49
0.11 0.03 0.03 0.14 0.35 0.21 0.16 0.19 0.22 0.27 0.33 0.30 0.32 0.37 0.39 0.40 0.45 0.61 0.98 1.82 2.07 1.47 0.56 1.44 1.48 0.64 1.03 0.58 0.41 0.50 0.42 0.45 0.47 0.45 0.41 0.39 0.37 0.40
0.05 0.02 0.09 0.23 0.09 0.05 0.09 0.18 0.32 0.31 0.24 0.33 0.47 0.52 0.51 0.52 0.59 0.66 0.72 0.85 1.04 1.42 0.85 1.09 1.98 0.96 1.24 0.87 0.53 0.55 0.54 0.49 0.53 0.46 0.39 0.44 0.53 0.59
0.05 0.16 0.15 0.03 0.03 0.04 0.10 0.17 0.16 0.15 0.35 0.66 0.81 0.82 0.75 0.80 0.84 0.76 0.68 0.64 0.69 0.74 0.86 0.87 1.22 1.08 1.18 1.06 0.76 0.52 0.68 0.70 0.76 0.81 0.64 0.47 0.42 0.43
0.17 0.14 0.02 0.03 0.05 0.06 0.08 0.07 0.07 0.17 0.42 0.62 0.68 0.61 0.70 0.74 0.73 0.84 1.06 0.96 1.04 0.84 0.70 0.63 0.77 0.95 0.93 0.59 0.87 0.73 0.60 1.07 1.04 1.09 1.05 0.62 0.49 0.40
0.07 0.01 0.01 0.02 0.02 0.02 0.04 0.06 0.11 0.24 0.41 0.41 0.57 0.62 0.72 0.81 0.83 0.93 1.21 1.16 1.02 0.77 0.62 0.47 0.39 0.40 0.48 0.60 0.67 0.65 0.87 0.84 1.10 1.48 1.28 0.85 0.69 0.55
0.05 0.03 0.04 0.05 0.08 0.09 0.11 0.15 0.20 0.32 0.39 0.55 0.62 0.69 0.85 0.93 1.11 1.22 1.23 1.04 0.85 0.62 0.53 0.42 0.37 0.35 0.32 0.30 0.61 0.92 0.82 0.91 1.19 1.36 1.36 0.80 0.76 0.81
0.08 0.12 0.15 0.16 0.15 0.16 0.22 0.36 0.48 0.53 0.77 0.91 0.93 0.94 1.01 1.09 1.15 1.16 0.95 0.71 0.52 0.37 0.21 0.16 0.34 0.58 0.68 0.31 0.29 0.70 1.21 1.07 0.83 0.88 0.91 0.64 0.72 0.88
0.20 0.25 0.28 0.25 0.24 0.31 0.38 0.57 0.71 0.74 0.78 0.87 1.02 1.08 1.22 1.39 1.24 1.05 0.74 0.56 0.41 0.24 0.11 0.05 0.14 0.48 1.06 0.97 0.85 0.81 0.85 1.15 0.92 0.88 0.67 0.53 0.72 0.73
0.21 0.28 0.35 0.34 0.35 0.43 0.49 0.62 0.78 1.03 1.26 1.37 1.19 1.29 1.30 1.36 0.96 0.62 0.43 0.22 0.25 0.23 0.18 0.05 0.11 0.31 0.47 0.48 0.49 0.40 0.71 0.77 0.81 1.22 0.98 0.73 0.52 0.38
0.09 0.18 0.24 0.32 0.33 0.42 0.57 0.82 1.04 1.09 1.16 1.15 1.25 1.26 1.10 0.92 0.72 0.41 0.22 0.29 0.18 0.20 0.20 0.10 0.05 0.11 0.19 0.44 0.42 0.36 0.45 0.47 0.41 0.40 0.62 0.97 1.21 1.36
0.07 0.12 0.21 0.32 0.38 0.47 0.65 0.84 1.09 1.15 1.18 1.31 1.19 0.96 0.77 0.56 0.25 0.23 0.22 0.21 0.29 0.31 0.18 0.12 0.05 0.06 0.14 0.31 0.35 0.35 0.27 0.31 0.24 0.27 0.68 0.63 0.65 0.82

GFSNE_prec_precacc_096.txt.gz
Total_Precipitation_Accumulation
0.27 0.30 0.33 0.31 0.36 0.42 0.53 0.69 0.99 1.01 0.80 0.64 0.59 0.55 0.53 0.49 0.46 0.44 0.34 0.26 0.17 0.14 0.15 0.13 0.12 0.15 0.20 0.29 0.41 0.54 0.64 0.73 0.79 0.88 1.06 1.23 1.35 1.40
0.30 0.36 0.42 0.46 0.50 0.54 0.59 0.63 0.78 0.98 0.91 0.69 0.72 0.76 0.70 0.57 0.44 0.30 0.19 0.20 0.16 0.13 0.14 0.13 0.12 0.14 0.16 0.19 0.25 0.31 0.39 0.53 0.66 0.78 0.88 0.97 1.04 1.15
0.25 0.33 0.38 0.42 0.52 0.60 0.67 0.80 0.92 1.00 0.97 0.64 0.53 0.45 0.34 0.25 0.16 0.13 0.09 0.06 0.05 0.06 0.08 0.10 0.13 0.15 0.15 0.15 0.18 0.21 0.29 0.39 0.47 0.57 0.72 0.89 1.09 1.18
0.13 0.22 0.27 0.34 0.43 0.48 0.53 0.54 0.54 0.53 0.58 0.39 0.23 0.22 0.17 0.15 0.12 0.13 0.12 0.13 0.14 0.12 0.13 0.12 0.14 0.18 0.22 0.23 0.23 0.25 0.25 0.28 0.36 0.50 0.59 0.66 0.74 0.87
0.13 0.18 0.19 0.23 0.29 0.28 0.28 0.29 0.31 0.36 0.39 0.45 0.25 0.16 0.11 0.12 0.16 0.20 0.20 0.19 0.18 0.22 0.27 0.26 0.28 0.32 0.36 0.37 0.37 0.43 0.51 0.54 0.54 0.51 0.56 0.66 0.78 0.89
0.10 0.13 0.18 0.23 0.24 0.21 0.20 0.24 0.28 0.36 0.37 0.35 0.40 0.29 0.22 0.19 0.26 0.28 0.25 0.26 0.29 0.30 0.33 0.32 0.31 0.31 0.32 0.37 0.43 0.45 0.46 0.48 0.54 0.62 0.70 0.71 0.72 0.77
0.22 0.26 0.27 0.26 0.22 0.20 0.21 0.21 0.34 0.41 0.55 0.74 0.66 0.60 0.56 0.44 0.39 0.40 0.46 0.38 0.32 0.25 0.21 0.22 0.27 0.32 0.33 0.35 0.40 0.37 0.41 0.51 0.60 0.65 0.68 0.78 0.85 0.92
0.34 0.31 0.29 0.25 0.18 0.16 0.16 0.20 0.34 0.65 0.85 0.93 0.94 0.72 0.45 0.41 0.38 0.45 0.59 0.71 0.63 0.29 0.28 0.36 0.40 0.47 0.46 0.46 0.45 0.43 0.44 0.46 0.50 0.56 0.66 0.70 0.71 0.77
0.33 0.23 0.14 0.08 0.06 0.05 0.09 0.16 0.33 0.61 0.70 0.59 0.51 0.43 0.40 0.36 0.53 0.66 0.66 0.76 0.64 0.34 0.40 0.48 0.38 0.40 0.41 0.46 0.54 0.47 0.48 0.48 0.49 0.52 0.56 0.59 0.60 0.66
0.05 0.02 0.02 0.02 0.04 0.06 0.14 0.39 0.35 0.21 0.20 0.26 0.33 0.36 0.46 0.57 0.82 1.12 1.09 0.99 0.69 0.45 0.42 0.56 0.31 0.35 0.37 0.44 0.57 0.47 0.40 0.42 0.46 0.49 0.50 0.53 0.58 0.64
0.01 0.01 0.05 0.03 0.03 0.13 0.37 0.41 0.19 0.13 0.19 0.27 0.39 0.45 0.43 0.38 0.41 0.77 0.90 0.83 0.72 0.39 0.31 0.43 0.36 0.37 0.41 0.39 0.45 0.46 0.42 0.45 0.51 0.53 0.53 0.59 0.63 0.65
0.02 0.02 0.03 0.04 0.10 0.37 0.27 0.24 0.26 0.17 0.33 0.34 0.35 0.39 0.39 0.38 0.44 0.50 0.95 1.63 1.14 0.90 0.38 0.84 0.65 0.55 0.90 0.38 0.39 0.53 0.49 0.43 0.42 0.41 0.40 0.41 0.47 0.49
0.11 0.03 0.03 0.14 0.35 0.21 0.16 0.19 0.22 0.27 0.33 0.30 0.32 0.37 0.39 0.40 0.45 0.61 0.98 1.82 2.07 1.47 0.56 1.44 1.48 0.64 1.03 0.58 0.41 0.50 0.42 0.45 0.47 0.45 0.41 0.39 0.37 0.40
0.05 0.02 0.09 0.23 0.09 0.05 0.09 0.18 0.32 0.31 0.24 0.33 0.47 0.52 0.51 0.52 0.59 0.66 0.72 0.85 1.04 1.42 0.85 1.10 1.98 0.97 1.25 0.87 0.53 0.55 0.54 0.49 0.53 0.46 0.39 0.44 0.53 0.59
0.05 0.16 0.15 0.03 0.03 0.04 0.10 0.17 0.16 0.15 0.35 0.66 0.81 0.82 0.75 0.80 0.84 0.76 0.68 0.64 0.69 0.74 0.86 0.87 1.22 1.09 1.18 1.07 0.77 0.52 0.68 0.70 0.76 0.81 0.64 0.47 0.42 0.43
0.17 0.14 0.02 0.03 0.05 0.06 0.08 0.07 0.07 0.17 0.42 0.62 0.68 0.61 0.70 0.74 0.73 0.84 1.07 0.97 1.04 0.84 0.70 0.63 0.77 0.95 0.94 0.59 0.87 0.73 0.60 1.07 1.04 1.09 1.05 0.62 0.49 0.40
0.07 0.01 0.01 0.02 0.02 0.02 0.04 0.06 0.11 0.24 0.41 0.41 0.57 0.62 0.72 0.81 0.83 0.94 1.21 1.17 1.03 0.77 0.62 0.47 0.39 0.40 0.48 0.60 0.68 0.65 0.87 0.84 1.10 1.48 1.28 0.85 0.69 0.55
0.05 0.03 0.04 0.05 0.08 0.09 0.11 0.15 0.20 0.32 0.39 0.55 0.62 0.69 0.85 0.93 1.11 1.22 1.24 1.05 0.86 0.62 0.53 0.42 0.37 0.36 0.32 0.30 0.61 0.92 0.82 0.91 1.19 1.36 1.37 0.80 0.76 0.81
0.08 0.12 0.15 0.16 0.15 0.16 0.22 0.36 0.48 0.53 0.77 0.91 0.93 0.94 1.01 1.09 1.15 1.16 0.95 0.72 0.52 0.37 0.21 0.16 0.34 0.59 0.68 0.31 0.29 0.70 1.21 1.07 0.83 0.88 0.91 0.64 0.72 0.88
0.20 0.25 0.28 0.25 0.24 0.31 0.38 0.57 0.71 0.74 0.78 0.87 1.02 1.08 1.22 1.39 1.24 1.05 0.74 0.56 0.41 0.24 0.11 0.05 0.15 0.49 1.07 0.97 0.86 0.81 0.85 1.15 0.92 0.88 0.67 0.53 0.72 0.73
0.21 0.28 0.35 0.34 0.35 0.43 0.49 0.62 0.78 1.03 1.26 1.37 1.19 1.29 1.30 1.36 0.96 0.62 0.43 0.22 0.25 0.23 0.18 0.05 0.11 0.31 0.47 0.48 0.50 0.40 0.71 0.77 0.81 1.22 0.98 0.74 0.53 0.38
0.09 0.18 0.24 0.32 0.33 0.42 0.57 0.82 1.04 1.09 1.16 1.15 1.25 1.26 1.10 0.92 0.72 0.41 0.22 0.29 0.18 0.20 0.20 0.10 0.05 0.11 0.19 0.45 0.43 0.36 0.45 0.47 0.41 0.40 0.62 0.98 1.22 1.37
0.07 0.12 0.21 0.32 0.38 0.47 0.65 0.84 1.09 1.15 1.18 1.31 1.19 0.96 0.77 0.56 0.25 0.23 0.22 0.21 0.29 0.31 0.18 0.12 0.05 0.06 0.14 0.31 0.35 0.35 0.27 0.31 0.24 0.27 0.68 0.63 0.65 0.82

GFSNE_prec_precacc_099.txt.gz
Total_Precipitation_Accumulation
0.27 0.30 0.33 0.31 0.36 0.42 0.53 0.69 0.99 1.01 0.80 0.64 0.59 0.55 0.53 0.49 0.46 0.44 0.34 0.26 0.17 0.14 0.15 0.13 0.12 0.15 0.20 0.29 0.41 0.54 0.64 0.73 0.79 0.88 1.06 1.23 1.35 1.40
0.30 0.37 0.43 0.46 0.50 0.54 0.59 0.63 0.78 0.98 0.91 0.69 0.72 0.76 0.70 0.57 0.44 0.30 0.19 0.20 0.16 0.13 0.14 0.13 0.12 0.14 0.16 0.19 0.25 0.31 0.39 0.53 0.66 0.78 0.88 0.97 1.04 1.15
0.26 0.33 0.39 0.43 0.54 0.61 0.68 0.80 0.92 1.00 0.97 0.64 0.53 0.45 0.34 0.25 0.16 0.13 0.09 0.06 0.05 0.06 0.08 0.10 0.13 0.15 0.15 0.15 0.18 0.21 0.29 0.39 0.47 0.57 0.72 0.89 1.09 1.18
0.13 0.22 0.28 0.35 0.43 0.48 0.53 0.54 0.54 0.53 0.58 0.39 0.23 0.22 0.17 0.15 0.12 0.13 0.12 0.13 0.14 0.12 0.13 0.12 0.14 0.18 0.22 0.23 0.23 0.25 0.25 0.28 0.36 0.50 0.59 0.66 0.74 0.87
0.13 0.19 0.20 0.24 0.30 0.29 0.28 0.29 0.31 0.36 0.39 0.45 0.25 0.16 0.11 0.12 0.16 0.20 0.20 0.19 0.18 0.22 0.27 0.26 0.28 0.32 0.36 0.37 0.37 0.43 0.51 0.54 0.54 0.51 0.56 0.66 0.78 0.89
0.10 0.13 0.18 0.23 0.24 0.21 0.20 0.24 0.28 0.36 0.37 0.35 0.40 0.29 0.22 0.19 0.26 0.28 0.25 0.26 0.29 0.30 0.33 0.32 0.31 0.31 0.32 0.37 0.43 0.45 0.46 0.48 0.54 0.62 0.70 0.71 0.72 0.77
0.22 0.26 0.27 0.26 0.22 0.20 0.21 0.21 0.34 0.41 0.55 0.74 0.66 0.60 0.56 0.44 0.39 0.40 0.46 0.38 0.32 0.25 0.21 0.22 0.27 0.32 0.33 0.35 0.40 0.37 0.41 0.51 0.60 0.65 0.68 0.78 0.85 0.92
0.34 0.31 0.29 0.25 0.18 0.16 0.16 0.20 0.34 0.65 0.85 0.93 0.94 0.72 0.45 0.41 0.38 0.45 0.59 0.71 0.63 0.29 0.28 0.36 0.40 0.47 0.46 0.46 0.45 0.43 0.44 0.46 0.50 0.56 0.66 0.70 0.71 0.77
0.33 0.23 0.14 0.08 0.06 0.05 0.09 0.16 0.33 0.61 0.70 0.59 0.51 0.43 0.40 0.36 0.53 0.66 0.66 0.76 0.64 0.34 0.40 0.48 0.38 0.40 0.41 0.46 0.54 0.47 0.48 0.48 0.49 0.52 0.56 0.59 0.60 0.66
0.05 0.02 0.02 0.02 0.04 0.06 0.14 0.39 0.35 0.21 0.20 0.26 0.33 0.36 0.46 0.57 0.82 1.12 1.09 0.99 0.69 0.45 0.42 0.56 0.31 0.35 0.37 0.44 0.57 0.47 0.40 0.42 0.46 0.49 0.50 0.53 0.58 0.64
0.01 0.01 0.05 0.03 0.03 0.13 0.37 0.41 0.19 0.13 0.19 0.27 0.39 0.45 0.43 0.38 0.41 0.77 0.90 0.83 0.72 0.39 0.31 0.43 0.36 0.37 0.41 0.39 0.45 0.46 0.42 0.45 0.51 0.53 0.53 0.59 0.63 0.65
0.02 0.02 0.03 0.04 0.10 0.37 0.27 0.24 0.26 0.17 0.33 0.34 0.35 0.39 0.39 0.38 0.44 0.50 0.95 1.63 1.14 0.90 0.38 0.84 0.65 0.55 0.90 0.38 0.39 0.53 0.49 0.43 0.42 0.41 0.40 0.41 0.47 0.49
0.11 0.03 0.03 0.14 0.35 0.21 0.16 0.19 0.22 0.27 0.33 0.30 0.32 0.37 0.39 0.40 0.45 0.61 0.98 1.82 2.07 1.47 0.56 1.44 1.48 0.64 1.03 0.58 0.41 0.50 0.42 0.45 0.47 0.45 0.41 0.39 0.37 0.40
0.05 0.02 0.09 0.23 0.09 0.05 0.09 0.18 0.32 0.31 0.24 0.33 0.47 0.52 0.51 0.52 0.59 0.66 0.72 0.85 1.04 1.42 0.85 1.10 1.99 0.97 1.25 0.87 0.53 0.55 0.54 0.49 0.53 0.46 0.39 0.44 0.53 0.59
0.05 0.16 0.15 0.03 0.03 0.04 0.10 0.17 0.16 0.15 0.35 0.66 0.81 0.82 0.75 0.80 0.84 0.76 0.68 0.64 0.69 0.74 0.86 0.87 1.22 1.09 1.18 1.07 0.77 0.52 0.68 0.70 0.76 0.81 0.64 0.47 0.42 0.43
0.17 0.14 0.02 0.03 0.05 0.06 0.08 0.07 0.07 0.17 0.42 0.62 0.68 0.61 0.70 0.74 0.73 0.84 1.07 0.97 1.04 0.84 0.70 0.63 0.77 0.96 0.94 0.59 0.87 0.73 0.60 1.07 1.04 1.09 1.05 0.62 0.49 0.40
0.07 0.01 0.01 0.02 0.02 0.02 0.04 0.06 0.11 0.24 0.41 0.41 0.57 0.62 0.72 0.81 0.83 0.94 1.22 1.17 1.03 0.77 0.62 0.47 0.39 0.40 0.48 0.60 0.68 0.65 0.87 0.84 1.10 1.48 1.28 0.85 0.69 0.55
0.05 0.03 0.04 0.05 0.08 0.09 0.11 0.15 0.20 0.32 0.39 0.55 0.62 0.69 0.85 0.93 1.11 1.22 1.24 1.05 0.86 0.62 0.53 0.42 0.37 0.36 0.32 0.30 0.61 0.92 0.82 0.91 1.19 1.36 1.37 0.80 0.76 0.81
0.08 0.12 0.15 0.16 0.15 0.16 0.22 0.36 0.48 0.53 0.77 0.91 0.93 0.94 1.01 1.09 1.15 1.16 0.95 0.72 0.52 0.37 0.21 0.16 0.34 0.59 0.69 0.31 0.29 0.70 1.21 1.07 0.83 0.88 0.91 0.64 0.73 0.88
0.20 0.25 0.28 0.25 0.24 0.31 0.38 0.57 0.71 0.74 0.78 0.87 1.02 1.08 1.22 1.39 1.24 1.05 0.74 0.56 0.41 0.24 0.11 0.05 0.15 0.49 1.07 0.97 0.86 0.81 0.85 1.15 0.92 0.88 0.67 0.53 0.72 0.73
0.21 0.28 0.35 0.34 0.35 0.43 0.49 0.62 0.78 1.03 1.26 1.37 1.19 1.29 1.30 1.36 0.96 0.62 0.43 0.22 0.25 0.23 0.18 0.05 0.11 0.31 0.47 0.48 0.51 0.40 0.71 0.77 0.81 1.22 0.98 0.74 0.53 0.38
0.09 0.18 0.24 0.32 0.33 0.42 0.57 0.82 1.04 1.09 1.16 1.15 1.25 1.26 1.10 0.92 0.72 0.41 0.22 0.29 0.18 0.20 0.20 0.10 0.05 0.11 0.19 0.45 0.43 0.36 0.45 0.47 0.41 0.40 0.62 0.98 1.23 1.38
0.07 0.12 0.21 0.32 0.38 0.47 0.65 0.84 1.09 1.15 1.18 1.31 1.19 0.96 0.77 0.56 0.25 0.23 0.22 0.21 0.29 0.31 0.18 0.12 0.05 0.06 0.14 0.31 0.35 0.36 0.27 0.31 0.24 0.27 0.68 0.63 0.65 0.82

GFSNE_prec_precacc_102.txt.gz
Total_Precipitation_Accumulation
0.28 0.30 0.33 0.31 0.36 0.42 0.53 0.69 0.99 1.01 0.80 0.64 0.59 0.55 0.53 0.49 0.46 0.44 0.34 0.26 0.17 0.14 0.15 0.13 0.12 0.15 0.20 0.29 0.41 0.54 0.64 0.73 0.79 0.88 1.06 1.23 1.35 1.40
0.31 0.38 0.43 0.46 0.50 0.54 0.59 0.63 0.79 0.98 0.91 0.69 0.72 0.76 0.70 0.57 0.44 0.30 0.19 0.20 0.16 0.13 0.14 0.13 0.12 0.14 0.16 0.19 0.25 0.31 0.39 0.53 0.66 0.78 0.88 0.97 1.04 1.15
0.26 0.34 0.39 0.43 0.54 0.62 0.70 0.82 0.93 1.01 0.97 0.64 0.53 0.45 0.34 0.25 0.16 0.13 0.09 0.06 0.05 0.06 0.08 0.10 0.13 0.15 0.15 0.15 0.18 0.21 0.29 0.39 0.47 0.57 0.72 0.89 1.09 1.18
0.13 0.22 0.29 0.36 0.45 0.49 0.54 0.55 0.55 0.53 0.58 0.39 0.23 0.22 0.17 0.15 0.12 0.13 0.12 0.13 0.14 0.12 0.13 0.12 0.14 0.18 0.22 0.23 0.23 0.25 0.25 0.28 0.36 0.50 0.59 0.66 0.74 0.87
0.13 0.19 0.20 0.24 0.31 0.30 0.30 0.31 0.32 0.36 0.39 0.45 0.25 0.16 0.11 0.12 0.16 0.20 0.20 0.19 0.18 0.22 0.27 0.26 0.28 0.32 0.36 0.37 0.37 0.43 0.51 0.54 0.54 0.51 0.56 0.66 0.78 0.89
0.10 0.13 0.19 0.23 0.24 0.21 0.21 0.25 0.29 0.36 0.37 0.35 0.40 0.29 0.22 0.19 0.26 0.28 0.25 0.26 0.29 0.30 0.33 0.32 0.31 0.31 0.32 0.37 0.43 0.45 0.46 0.48 0.54 0.62 0.70 0.71 0.72 0.77
0.22 0.26 0.27 0.27 0.23 0.20 0.21 0.21 0.34 0.41 0.55 0.74 0.66 0.60 0.56 0.44 0.39 0.40 0.46 0.38 0.32 0.25 0.21 0.22 0.27 0.32 0.33 0.35 0.40 0.37 0.41 0.51 0.60 0.65 0.68 0.78 0.85 0.92
0.34 0.31 0.29 0.26 0.18 0.16 0.16 0.20 0.34 0.65 0.85 0.93 0.94 0.72 0.45 0.41 0.38 0.45 0.59 0.71 0.63 0.29 0.28 0.36 0.40 0.47 0.46 0.46 0.45 0.43 0.44 0.46 0.50 0.56 0.66 0.70 0.71 0.77
0.33 0.23 0.15 0.09 0.07 0.05 0.09 0.16 0.33 0.61 0.70 0.59 0.51 0.43 0.40 0.36 0.53 0.66 0.66 0.76 0.64 0.34 0.40 0.48 0.38 0.40 0.41 0.46 0.54 0.47 0.48 0.48 0.49 0.52 0.56 0.59 0.60 0.66
0.05 0.02 0.02 0.02 0.04 0.06 0.14 0.39 0.35 0.21 0.20 0.26 0.33 0.36 0.46 0.57 0.82 1.12 1.09 0.99 0.69 0.45 0.42 0.56 0.31 0.35 0.37 0.44 0.57 0.47 0.40 0.42 0.46 0.49 0.50 0.53 0.58 0.64
0.01 0.01 0.05 0.03 0.03 0.13 0.37 0.41 0.19 0.13 0.19 0.27 0.39 0.45 0.43 0.38 0.41 0.77 0.90 0.83 0.72 0.39 0.31 0.43 0.36 0.37 0.41 0.39 0.45 0.46 0.42 0.45 0.51 0.53 0.53 0.59 0.63 0.65
0.02 0.02 0.03 0.04 0.10 0.37 0.27 0.24 0.26 0.17 0.33 0.34 0.35 0.39 0.39 0.38 0.44 0.50 0.95 1.63 1.14 0.90 0.38 0.84 0.65 0.55 0.90 0.38 0.39 0.53 0.49 0.43 0.42 0.41 0.40 0.41 0.47 0.49
0.11 0.03 0.03 0.14 0.35 0.21 0.16 0.19 0.22 0.27 0.33 0.30 0.32 0.37 0.39 0.40 0.45 0.61 0.98 1.82 2.07 1.47 0.56 1.44 1.48 0.64 1.03 0.58 0.41 0.50 0.42 0.45 0.47 0.45 0.41 0.39 0.37 0.40
0.05 0.02 0.09 0.23 0.09 0.05 0.09 0.18 0.32 0.31 0.24 0.33 0.47 0.52 0.51 0.52 0.59 0.66 0.72 0.85 1.04 1.42 0.85 1.10 1.99 0.97 1.25 0.88 0.53 0.55 0.54 0.49 0.53 0.46 0.39 0.44 0.53 0.59
0.05 0.16 0.15 0.03 0.03 0.04 0.10 0.17 0.16 0.15 0.35 0.66 0.81 0.82 0.75 0.80 0.84 0.76 0.68 0.64 0.69 0.74 0.86 0.87 1.22 1.09 1.19 1.07 0.77 0.52 0.68 0.70 0.76 0.81 0.64 0.47 0.42 0.43
0.17 0.14 0.02 0.03 0.05 0.06 0.08 0.07 0.07 0.17 0.42 0.62 0.68 0.61 0.70 0.74 0.73 0.84 1.07 0.97 1.04 0.84 0.70 0.63 0.77 0.96 0.94 0.59 0.87 0.74 0.60 1.07 1.04 1.09 1.05 0.62 0.49 0.40
0.07 0.01 0.01 0.02 0.02 0.02 0.04 0.06 0.11 0.24 0.41 0.41 0.57 0.62 0.72 0.81 0.83 0.94 1.22 1.17 1.03 0.77 0.62 0.47 0.39 0.40 0.48 0.60 0.68 0.65 0.87 0.84 1.10 1.48 1.28 0.85 0.69 0.55
0.05 0.03 0.04 0.05 0.08 0.09 0.11 0.15 0.20 0.32 0.39 0.55 0.62 0.69 0.85 0.93 1.11 1.22 1.24 1.05 0.86 0.62 0.54 0.42 0.37 0.36 0.32 0.30 0.61 0.92 0.82 0.91 1.19 1.36 1.37 0.80 0.76 0.81
0.08 0.12 0.15 0.16 0.15 0.16 0.22 0.36 0.48 0.53 0.77 0.91 0.93 0.94 1.01 1.09 1.15 1.16 0.95 0.72 0.52 0.37 0.21 0.16 0.34 0.59 0.69 0.31 0.29 0.70 1.21 1.07 0.83 0.88 0.91 0.64 0.73 0.88
0.20 0.25 0.28 0.25 0.24 0.31 0.38 0.57 0.71 0.74 0.78 0.87 1.02 1.08 1.22 1.39 1.24 1.05 0.74 0.56 0.41 0.24 0.11 0.05 0.15 0.49 1.07 0.97 0.86 0.81 0.85 1.15 0.92 0.88 0.67 0.53 0.72 0.73
0.21 0.28 0.35 0.34 0.35 0.43 0.49 0.62 0.78 1.03 1.26 1.37 1.19 1.29 1.30 1.36 0.96 0.62 0.43 0.22 0.25 0.23 0.18 0.05 0.11 0.31 0.47 0.48 0.51 0.40 0.71 0.77 0.81 1.22 0.98 0.75 0.53 0.38
0.09 0.18 0.24 0.32 0.33 0.42 0.57 0.82 1.04 1.09 1.16 1.15 1.25 1.26 1.10 0.92 0.72 0.41 0.22 0.29 0.18 0.20 0.20 0.10 0.05 0.11 0.19 0.45 0.43 0.36 0.45 0.47 0.41 0.40 0.62 0.99 1.23 1.38
0.07 0.12 0.21 0.32 0.38 0.47 0.65 0.84 1.09 1.15 1.18 1.31 1.19 0.96 0.77 0.56 0.25 0.23 0.22 0.21 0.29 0.31 0.18 0.12 0.05 0.06 0.14 0.31 0.36 0.36 0.27 0.31 0.24 0.27 0.68 0.63 0.65 0.82

GFSNE_prec_precacc_105.txt.gz
Total_Precipitation_Accumulation
0.30 0.33 0.36 0.33 0.36 0.42 0.54 0.70 1.01 1.02 0.80 0.64 0.59 0.55 0.53 0.49 0.46 0.44 0.34 0.26 0.17 0.14 0.15 0.13 0.13 0.15 0.20 0.29 0.41 0.54 0.64 0.73 0.79 0.88 1.06 1.23 1.35 1.40
0.31 0.38 0.44 0.47 0.50 0.55 0.60 0.64 0.80 1.00 0.92 0.69 0.72 0.76 0.70 0.57 0.44 0.30 0.19 0.20 0.16 0.13 0.14 0.13 0.12 0.14 0.16 0.19 0.25 0.31 0.39 0.53 0.66 0.78 0.88 0.97 1.04 1.15
0.26 0.34 0.39 0.43 0.54 0.62 0.70 0.83 0.94 1.02 1.00 0.66 0.54 0.45 0.34 0.25 0.16 0.13 0.09 0.06 0.05 0.06 0.08 0.10 0.13 0.15 0.15 0.15 0.18 0.21 0.29 0.39 0.47 0.57 0.72 0.89 1.09 1.18
0.13 0.22 0.29 0.36 0.45 0.49 0.54 0.55 0.55 0.54 0.60 0.42 0.24 0.22 0.17 0.15 0.12 0.13 0.12 0.13 0.14 0.12 0.13 0.12 0.14 0.18 0.22 0.23 0.23 0.25 0.25 0.28 0.36 0.50 0.59 0.66 0.74 0.87
0.13 0.19 0.20 0.24 0.31 0.30 0.30 0.31 0.32 0.37 0.40 0.45 0.25 0.16 0.11 0.12 0.16 0.20 0.20 0.19 0.18 0.22 0.27 0.26 0.28 0.32 0.36 0.37 0.37 0.43 0.51 0.54 0.54 0.51 0.56 0.66 0.78 0.89
0.10 0.13 0.19 0.23 0.24 0.21 0.21 0.25 0.29 0.37 0.38 0.36 0.41 0.29 0.22 0.19 0.26 0.28 0.25 0.26 0.29 0.30 0.33 0.32 0.31 0.31 0.32 0.37 0.43 0.45 0.46 0.48 0.54 0.62 0.70 0.71 0.72 0.77
0.22 0.26 0.27 0.27 0.23 0.20 0.21 0.21 0.34 0.41 0.56 0.74 0.66 0.60 0.56 0.44 0.39 0.40 0.46 0.38 0.32 0.25 0.21 0.22 0.27 0.32 0.33 0.35 0.40 0.37 0.41 0.51 0.60 0.65 0.68 0.78 0.85 0.92
0.34 0.31 0.29 0.26 0.19 0.16 0.17 0.21 0.35 0.65 0.85 0.93 0.94 0.72 0.45 0.41 0.38 0.45 0.59 0.71 0.63 0.29 0.28 0.36 0.40 0.47 0.46 0.46 0.45 0.43 0.44 0.46 0.50 0.56 0.66 0.70 0.71 0.77
0.33 0.23 0.15 0.09 0.07 0.05 0.09 0.16 0.33 0.61 0.70 0.59 0.51 0.43 0.40 0.36 0.53 0.66 0.66 0.76 0.64 0.34 0.40 0.48 0.38 0.40 0.41 0.46 0.54 0.47 0.48 0.48 0.49 0.52 0.56 0.59 0.60 0.66
0.05 0.02 0.02 0.03 0.04 0.06 0.14 0.39 0.35 0.21 0.20 0.26 0.33 0.36 0.46 0.57 0.82 1.12 1.09 0.99 0.69 0.45 0.42 0.56 0.31 0.35 0.37 0.44 0.57 0.47 0.40 0.42 0.46 0.49 0.50 0.53 0.58 0.64
0.02 0.02 0.05 0.03 0.04 0.14 0.37 0.41 0.19 0.13 0.19 0.27 0.39 0.45 0.43 0.38 0.41 0.77 0.90 0.83 0.72 0.39 0.31 0.43 0.36 0.37 0.41 0.39 0.45 0.46 0.42 0.45 0.51 0.53 0.53 0.59 0.63 0.65
0.02 0.03 0.04 0.04 0.11 0.37 0.27 0.24 0.26 0.17 0.33 0.34 0.35 0.39 0.39 0.38 0.44 0.50 0.95 1.63 1.14 0.90 0.38 0.84 0.65 0.55 0.90 0.38 0.39 0.53 0.49 0.43 0.42 0.41 0.40 0.41 0.47 0.49
0.11 0.03 0.03 0.15 0.35 0.21 0.16 0.19 0.22 0.27 0.33 0.30 0.32 0.37 0.39 0.40 0.45 0.61 0.98 1.82 2.07 1.47 0.56 1.44 1.48 0.64 1.03 0.58 0.41 0.50 0.42 0.45 0.47 0.45 0.41 0.39 0.37 0.40
0.05 0.02 0.10 0.23 0.09 0.05 0.09 0.18 0.32 0.31 0.24 0.33 0.47 0.52 0.51 0.52 0.59 0.66 0.72 0.85 1.04 1.42 0.85 1.10 1.99 0.97 1.25 0.88 0.53 0.55 0.54 0.49 0.53 0.46 0.39 0.44 0.53 0.59
0.05 0.16 0.15 0.03 0.03 0.04 0.10 0.17 0.16 0.15 0.35 0.66 0.81 0.82 0.75 0.80 0.84 0.76 0.68 0.64 0.69 0.74 0.86 0.87 1.22 1.09 1.19 1.07 0.77 0.52 0.68 0.70 0.76 0.81 0.64 0.47 0.42 0.43
0.17 0.14 0.02 0.03 0.05 0.06 0.08 0.07 0.07 0.17 0.42 0.62 0.68 0.61 0.70 0.74 0.73 0.84 1.07 0.97 1.04 0.84 0.70 0.63 0.77 0.96 0.94 0.59 0.87 0.74 0.60 1.07 1.04 1.09 1.05 0.62 0.49 0.40
0.07 0.01 0.01 0.02 0.02 0.02 0.04 0.06 0.11 0.24 0.41 0.41 0.57 0.62 0.72 0.81 0.83 0.94 1.22 1.17 1.03 0.77 0.62 0.47 0.39 0.40 0.48 0.60 0.68 0.65 0.87 0.84 1.10 1.48 1.28 0.85 0.69 0.55
0.05 0.03 0.04 0.05 0.08 0.09 0.11 0.15 0.20 0.32 0.39 0.55 0.62 0.69 0.85 0.93 1.11 1.22 1.24 1.05 0.86 0.62 0.54 0.42 0.37 0.36 0.32 0.30 0.61 0.92 0.82 0.91 1.19 1.36 1.37 0.80 0.76 0.81
0.08 0.12 0.15 0.16 0.16 0.16 0.22 0.36 0.48 0.53 0.77 0.91 0.93 0.94 1.01 1.09 1.15 1.16 0.95 0.72 0.52 0.37 0.21 0.16 0.34 0.59 0.69 0.31 0.29 0.70 1.21 1.07 0.83 0.88 0.91 0.64 0.73 0.88
0.20 0.25 0.28 0.25 0.24 0.31 0.38 0.57 0.71 0.74 0.78 0.87 1.02 1.08 1.22 1.39 1.24 1.05 0.74 0.56 0.41 0.24 0.11 0.05 0.15 0.49 1.07 0.97 0.86 0.81 0.85 1.15 0.92 0.88 0.67 0.53 0.72 0.73
0.21 0.28 0.35 0.34 0.35 0.43 0.49 0.62 0.78 1.03 1.26 1.37 1.19 1.29 1.30 1.36 0.96 0.62 0.43 0.22 0.25 0.23 0.18 0.05 0.11 0.31 0.47 0.49 0.51 0.40 0.71 0.77 0.81 1.22 0.98 0.75 0.53 0.38
0.10 0.19 0.25 0.32 0.33 0.42 0.57 0.82 1.04 1.09 1.16 1.15 1.25 1.26 1.10 0.92 0.72 0.41 0.22 0.29 0.18 0.20 0.20 0.10 0.05 0.11 0.19 0.45 0.43 0.36 0.45 0.47 0.41 0.40 0.62 0.99 1.23 1.38
0.11 0.16 0.23 0.32 0.38 0.47 0.65 0.84 1.09 1.15 1.18 1.31 1.19 0.96 0.77 0.56 0.25 0.23 0.22 0.21 0.29 0.31 0.18 0.12 0.05 0.06 0.14 0.31 0.36 0.36 0.27 0.31 0.24 0.27 0.68 0.63 0.65 0.82

GFSNE_prec_precacc_108.txt.gz
Total_Precipitation_Accumulation
0.37 0.39 0.43 0.41 0.41 0.49 0.63 0.77 1.05 1.03 0.80 0.64 0.59 0.55 0.53 0.49 0.46 0.44 0.34 0.26 0.17 0.14 0.15 0.14 0.13 0.15 0.22 0.33 0.44 0.55 0.64 0.73 0.79 0.88 1.06 1.23 1.35 1.40
0.32 0.39 0.45 0.50 0.58 0.60 0.63 0.67 0.82 1.02 0.93 0.69 0.72 0.76 0.70 0.57 0.44 0.30 0.19 0.20 0.16 0.13 0.14 0.13 0.12 0.14 0.16 0.19 0.25 0.31 0.39 0.53 0.66 0.78 0.88 0.97 1.04 1.15
0.28 0.35 0.40 0.44 0.54 0.62 0.70 0.83 0.94 1.03 1.01 0.66 0.55 0.47 0.35 0.25 0.16 0.13 0.09 0.06 0.05 0.06 0.08 0.10 0.13 0.15 0.15 0.15 0.18 0.21 0.29 0.39 0.47 0.57 0.72 0.89 1.09 1.18
0.14 0.22 0.29 0.36 0.45 0.49 0.54 0.55 0.55 0.54 0.60 0.42 0.25 0.23 0.19 0.16 0.13 0.13 0.12 0.13 0.14 0.12 0.13 0.12 0.14 0.18 0.22 0.23 0.23 0.25 0.25 0.28 0.36 0.50 0.59 0.66 0.74 0.87
0.13 0.19 0.20 0.24 0.31 0.30 0.30 0.31 0.32 0.37 0.40 0.46 0.26 0.17 0.11 0.12 0.16 0.20 0.20 0.19 0.18 0.22 0.27 0.26 0.28 0.32 0.36 0.37 0.37 0.43 0.51 0.54 0.54 0.51 0.56 0.66 0.78 0.89
0.10 0.13 0.19 0.23 0.24 0.21 0.21 0.25 0.29 0.37 0.39 0.37 0.42 0.31 0.24 0.21 0.27 0.28 0.25 0.26 0.29 0.30 0.33 0.32 0.31 0.31 0.32 0.37 0.43 0.45 0.46 0.48 0.54 0.62 0.70 0.71 0.72 0.77
0.22 0.26 0.27 0.27 0.23 0.20 0.21 0.21 0.34 0.42 0.56 0.75 0.67 0.61 0.57 0.44 0.39 0.40 0.46 0.38 0.32 0.25 0.21 0.22 0.27 0.32 0.33 0.35 0.40 0.37 0.41 0.51 0.60 0.65 0.68 0.78 0.85 0.92
0.34 0.31 0.29 0.26 0.19 0.17 0.17 0.21 0.36 0.66 0.86 0.95 0.95 0.72 0.45 0.42 0.38 0.45 0.59 0.71 0.63 0.29 0.28 0.36 0.40 0.47 0.46 0.46 0.45 0.43 0.44 0.46 0.50 0.56 0.66 0.70 0.71 0.77
0.33 0.23 0.15 0.09 0.07 0.05 0.09 0.16 0.34 0.62 0.71 0.59 0.51 0.43 0.40 0.36 0.53 0.66 0.66 0.76 0.64 0.34 0.40 0.48 0.38 0.40 0.41 0.46 0.54 0.47 0.48 0.48 0.49 0.52 0.56 0.59 0.60 0.66
0.05 0.02 0.02 0.03 0.04 0.06 0.14 0.40 0.35 0.21 0.20 0.26 0.33 0.36 0.46 0.57 0.82 1.12 1.09 0.99 0.69 0.45 0.42 0.56 0.31 0.35 0.37 0.44 0.57 0.47 0.40 0.42 0.46 0.49 0.50 0.53 0.58 0.64
0.02 0.02 0.06 0.03 0.05 0.14 0.37 0.41 0.19 0.14 0.19 0.27 0.39 0.45 0.43 0.38 0.41 0.77 0.90 0.83 0.72 0.39 0.31 0.43 0.36 0.37 0.41 0.39 0.45 0.46 0.42 0.45 0.51 0.53 0.53 0.59 0.63 0.65
0.02 0.03 0.05 0.04 0.12 0.37 0.27 0.24 0.26 0.17 0.33 0.34 0.35 0.39 0.39 0.38 0.44 0.50 0.95 1.63 1.14 0.90 0.38 0.84 0.65 0.55 0.90 0.38 0.39 0.53 0.49 0.43 0.42 0.41 0.40 0.41 0.47 0.49
0.11 0.03 0.04 0.16 0.36 0.21 0.16 0.19 0.23 0.27 0.33 0.30 0.32 0.37 0.39 0.40 0.45 0.61 0.98 1.82 2.07 1.47 0.56 1.44 1.48 0.64 1.03 0.58 0.41 0.50 0.42 0.45 0.47 0.45 0.41 0.39 0.37 0.40
0.05 0.02 0.10 0.24 0.09 0.05 0.09 0.18 0.32 0.31 0.24 0.33 0.47 0.52 0.51 0.52 0.59 0.66 0.72 0.85 1.04 1.42 0.85 1.10 1.99 0.97 1.25 0.88 0.53 0.55 0.54 0.49 0.53 0.46 0.39 0.44 0.53 0.59
0.05 0.16 0.15 0.03 0.03 0.04 0.10 0.17 0.16 0.15 0.35 0.66 0.81 0.82 0.75 0.80 0.84 0.76 0.68 0.64 0.69 0.74 0.86 0.87 1.22 1.09 1.19 1.07 0.77 0.52 0.68 0.70 0.76 0.81 0.64 0.47 0.42 0.43
0.17 0.14 0.02 0.03 0.05 0.06 0.08 0.07 0.07 0.17 0.42 0.62 0.68 0.61 0.70 0.74 0.73 0.84 1.07 0.97 1.04 0.84 0.70 0.63 0.77 0.96 0.94 0.59 0.87 0.74 0.60 1.07 1.04 1.09 1.05 0.62 0.49 0.40
0.07 0.01 0.01 0.02 0.02 0.02 0.04 0.06 0.11 0.24 0.41 0.41 0.57 0.62 0.72 0.81 0.83 0.94 1.22 1.17 1.03 0.77 0.62 0.47 0.39 0.40 0.48 0.60 0.68 0.65 0.87 0.84 1.10 1.48 1.28 0.85 0.69 0.55
0.05 0.03 0.04 0.05 0.08 0.09 0.11 0.15 0.20 0.32 0.39 0.55 0.62 0.69 0.85 0.93 1.11 1.22 1.24 1.05 0.86 0.62 0.54 0.42 0.37 0.36 0.32 0.30 0.61 0.92 0.82 0.91 1.19 1.36 1.37 0.80 0.76 0.81
0.08 0.12 0.15 0.16 0.16 0.16 0.22 0.36 0.48 0.53 0.77 0.91 0.93 0.94 1.01 1.09 1.15 1.16 0.95 0.72 0.52 0.37 0.21 0.16 0.34 0.59 0.69 0.31 0.29 0.70 1.21 1.07 0.83 0.88 0.91 0.64 0.73 0.88
0.20 0.25 0.28 0.25 0.24 0.31 0.38 0.57 0.71 0.74 0.78 0.87 1.02 1.08 1.22 1.39 1.24 1.05 0.74 0.56 0.41 0.24 0.11 0.05 0.15 0.49 1.07 0.97 0.86 0.81 0.85 1.15 0.92 0.88 0.67 0.53 0.72 0.73
0.23 0.30 0.36 0.35 0.35 0.43 0.49 0.62 0.78 1.03 1.27 1.37 1.19 1.29 1.30 1.36 0.96 0.62 0.43 0.22 0.25 0.23 0.18 0.05 0.11 0.31 0.47 0.49 0.51 0.40 0.71 0.77 0.81 1.22 0.98 0.75 0.53 0.38
0.14 0.23 0.29 0.35 0.34 0.42 0.57 0.82 1.04 1.09 1.16 1.15 1.25 1.26 1.10 0.92 0.72 0.41 0.22 0.29 0.18 0.20 0.20 0.10 0.05 0.11 0.19 0.45 0.43 0.36 0.45 0.47 0.41 0.40 0.62 0.99 1.23 1.39
0.14 0.20 0.27 0.36 0.40 0.47 0.65 0.84 1.09 1.15 1.18 1.31 1.19 0.96 0.77 0.56 0.25 0.23 0.22 0.21 0.29 0.31 0.18 0.12 0.05 0.06 0.14 0.31 0.36 0.36 0.27 0.31 0.24 0.27 0.68 0.63 0.65 0.82

GFSNE_prec_precacc_111.txt.gz
Total_Precipitation_Accumulation
0.49 0.57 0.65 0.59 0.56 0.60 0.71 0.85 1.17 1.09 0.81 0.64 0.59 0.55 0.53 0.49 0.46 0.44 0.34 0.26 0.18 0.14 0.15 0.14 0.13 0.15 0.22 0.34 0.47 0.59 0.66 0.73 0.79 0.88 1.06 1.23 1.35 1.40
0.32 0.41 0.48 0.56 0.68 0.75 0.78 0.81 0.98 1.10 0.94 0.69 0.72 0.76 0.70 0.57 0.44 0.30 0.20 0.20 0.16 0.13 0.14 0.13 0.12 0.14 0.16 0.20 0.26 0.32 0.40 0.53 0.66 0.78 0.88 0.97 1.04 1.15
0.29 0.37 0.41 0.45 0.55 0.64 0.72 0.87 0.98 1.04 1.02 0.66 0.55 0.47 0.35 0.25 0.16 0.13 0.09 0.06 0.05 0.06 0.08 0.10 0.13 0.15 0.15 0.15 0.18 0.21 0.29 0.39 0.47 0.57 0.72 0.89 1.09 1.18
0.15 0.24 0.29 0.36 0.45 0.49 0.54 0.55 0.55 0.54 0.60 0.42 0.26 0.24 0.19 0.16 0.13 0.14 0.12 0.13 0.14 0.12 0.13 0.12 0.14 0.18 0.22 0.23 0.23 0.25 0.25 0.28 0.36 0.50 0.59 0.66 0.74 0.87
0.13 0.19 0.20 0.24 0.31 0.30 0.30 0.31 0.32 0.37 0.40 0.46 0.27 0.17 0.12 0.13 0.16 0.21 0.20 0.19 0.18 0.22 0.27 0.26 0.28 0.32 0.36 0.37 0.37 0.43 0.51 0.54 0.54 0.51 0.56 0.66 0.78 0.89
0.10 0.13 0.19 0.23 0.24 0.21 0.21 0.26 0.29 0.38 0.39 0.38 0.43 0.32 0.25 0.22 0.29 0.30 0.26 0.26 0.29 0.30 0.33 0.32 0.31 0.31 0.32 0.37 0.43 0.45 0.46 0.48 0.54 0.62 0.70 0.71 0.72 0.77
0.22 0.26 0.27 0.27 0.23 0.20 0.21 0.21 0.34 0.42 0.57 0.75 0.68 0.62 0.58 0.46 0.41 0.41 0.46 0.38 0.32 0.25 0.21 0.22 0.27 0.32 0.33 0.35 0.40 0.37 0.41 0.51 0.60 0.65 0.68 0.78 0.85 0.92
0.34 0.31 0.29 0.26 0.19 0.17 0.17 0.21 0.36 0.66 0.86 0.95 0.96 0.73 0.46 0.42 0.38 0.45 0.60 0.72 0.63 0.29 0.28 0.36 0.40 0.47 0.46 0.46 0.45 0.43 0.44 0.46 0.50 0.56 0.66 0.70 0.71 0.77
0.33 0.23 0.15 0.09 0.07 0.05 0.09 0.17 0.34 0.63 0.72 0.60 0.52 0.44 0.41 0.37 0.54 0.66 0.66 0.76 0.64 0.34 0.40 0.48 0.38 0.40 0.41 0.46 0.54 0.47 0.48 0.48 0.49 0.52 0.56 0.59 0.60 0.66
0.05 0.02 0.02 0.03 0.04 0.06 0.14 0.40 0.35 0.22 0.21 0.27 0.33 0.36 0.46 0.57 0.82 1.12 1.09 0.99 0.69 0.45 0.42 0.56 0.31 0.35 0.37 0.44 0.57 0.47 0.40 0.42 0.46 0.49 0.50 0.53 0.58 0.64
0.02 0.02 0.06 0.03 0.05 0.14 0.37 0.41 0.19 0.14 0.19 0.27 0.39 0.45 0.43 0.38 0.41 0.77 0.90 0.83 0.72 0.39 0.31 0.43 0.36 0.37 0.41 0.39 0.45 0.46 0.42 0.45 0.51 0.53 0.53 0.59 0.63 0.65
0.02 0.03 0.05 0.04 0.12 0.37 0.27 0.24 0.26 0.17 0.33 0.34 0.35 0.39 0.39 0.38 0.44 0.50 0.95 1.63 1.14 0.90 0.38 0.84 0.65 0.55 0.90 0.38 0.39 0.53 0.49 0.43 0.42 0.41 0.40 0.41 0.47 0.49
0.11 0.03 0.04 0.16 0.36 0.22 0.16 0.19 0.23 0.27 0.33 0.30 0.33 0.37 0.39 0.40 0.45 0.61 0.98 1.82 2.07 1.47 0.56 1.44 1.48 0.64 1.03 0.58 0.41 0.50 0.42 0.45 0.47 0.45 0.41 0.39 0.37 0.40
0.05 0.02 0.10 0.24 0.09 0.05 0.09 0.18 0.32 0.31 0.24 0.33 0.47 0.52 0.51 0.52 0.59 0.66 0.72 0.85 1.04 1.42 0.85 1.10 1.99 0.97 1.25 0.88 0.53 0.55 0.54 0.49 0.53 0.46 0.39 0.44 0.53 0.59
0.05 0.16 0.15 0.03 0.03 0.04 0.10 0.17 0.16 0.15 0.35 0.66 0.81 0.82 0.75 0.80 0.84 0.76 0.68 0.64 0.69 0.74 0.86 0.87 1.22 1.09 1.19 1.07 0.77 0.52 0.68 0.70 0.76 0.81 0.64 0.47 0.42 0.43
0.17 0.14 0.02 0.03 0.05 0.06 0.08 0.07 0.07 0.17 0.42 0.62 0.68 0.61 0.70 0.74 0.73 0.84 1.07 0.97 1.04 0.84 0.70 0.63 0.77 0.96 0.94 0.59 0.87 0.74 0.60 1.07 1.04 1.09 1.05 0.62 0.49 0.40
0.07 0.01 0.01 0.02 0.02 0.02 0.04 0.06 0.11 0.24 0.41 0.41 0.57 0.62 0.72 0.81 0.83 0.94 1.22 1.17 1.03 0.77 0.62 0.47 0.39 0.40 0.48 0.60 0.68 0.65 0.87 0.84 1.10 1.48 1.28 0.85 0.69 0.55
0.05 0.03 0.04 0.05 0.08 0.09 0.11 0.15 0.20 0.32 0.39 0.55 0.62 0.69 0.85 0.93 1.11 1.22 1.24 1.05 0.86 0.62 0.54 0.42 0.37 0.37 0.32 0.30 0.61 0.92 0.82 0.91 1.19 1.36 1.37 0.80 0.76 0.81
0.09 0.12 0.15 0.16 0.16 0.16 0.22 0.36 0.48 0.53 0.77 0.91 0.93 0.94 1.01 1.09 1.15 1.17 0.95 0.72 0.52 0.37 0.21 0.16 0.34 0.59 0.69 0.31 0.29 0.70 1.21 1.07 0.83 0.88 0.91 0.64 0.73 0.88
0.20 0.25 0.28 0.25 0.24 0.31 0.38 0.57 0.71 0.74 0.78 0.87 1.02 1.08 1.22 1.39 1.24 1.05 0.74 0.56 0.41 0.24 0.11 0.05 0.15 0.49 1.07 0.97 0.86 0.81 0.85 1.15 0.92 0.88 0.67 0.53 0.72 0.73
0.23 0.30 0.36 0.36 0.35 0.43 0.49 0.62 0.78 1.03 1.27 1.37 1.19 1.29 1.30 1.36 0.96 0.62 0.43 0.22 0.25 0.23 0.18 0.05 0.11 0.31 0.47 0.49 0.51 0.40 0.71 0.77 0.81 1.22 0.98 0.75 0.53 0.38
0.14 0.23 0.29 0.36 0.35 0.42 0.57 0.82 1.04 1.09 1.16 1.15 1.25 1.26 1.10 0.92 0.72 0.41 0.22 0.29 0.18 0.20 0.20 0.10 0.05 0.11 0.19 0.45 0.43 0.36 0.45 0.47 0.41 0.40 0.62 0.99 1.23 1.39
0.14 0.20 0.28 0.37 0.41 0.48 0.66 0.85 1.09 1.15 1.18 1.31 1.19 0.96 0.77 0.56 0.25 0.23 0.22 0.21 0.29 0.31 0.18 0.12 0.05 0.06 0.14 0.31 0.36 0.36 0.27 0.31 0.24 0.27 0.68 0.63 0.65 0.82

GFSNE_prec_precacc_114.txt.gz
Total_Precipitation_Accumulation
0.51 0.59 0.67 0.65 0.70 0.78 0.94 1.09 1.41 1.24 0.87 0.66 0.60 0.55 0.53 0.49 0.46 0.44 0.34 0.26 0.18 0.14 0.15 0.14 0.13 0.16 0.23 0.34 0.47 0.60 0.66 0.74 0.79 0.88 1.06 1.23 1.35 1.40
0.32 0.41 0.48 0.57 0.72 0.82 0.90 0.95 1.17 1.36 1.10 0.71 0.73 0.77 0.71 0.57 0.44 0.30 0.20 0.21 0.17 0.14 0.14 0.14 0.13 0.14 0.16 0.20 0.26 0.34 0.43 0.55 0.67 0.78 0.88 0.97 1.04 1.15
0.29 0.37 0.42 0.45 0.56 0.66 0.76 0.93 1.08 1.16 1.08 0.67 0.55 0.47 0.35 0.25 0.16 0.13 0.10 0.06 0.05 0.06 0.08 0.10 0.13 0.15 0.15 0.15 0.18 0.21 0.29 0.39 0.47 0.57 0.72 0.89 1.09 1.18
0.15 0.24 0.29 0.36 0.45 0.49 0.54 0.55 0.55 0.54 0.60 0.43 0.26 0.24 0.19 0.17 0.14 0.14 0.13 0.13 0.14 0.12 0.14 0.12 0.14 0.18 0.22 0.23 0.23 0.25 0.25 0.28 0.36 0.50 0.59 0.66 0.74 0.87
0.13 0.19 0.20 0.24 0.31 0.30 0.30 0.31 0.32 0.37 0.40 0.46 0.27 0.18 0.12 0.13 0.16 0.21 0.21 0.19 0.18 0.22 0.27 0.26 0.28 0.32 0.36 0.37 0.37 0.43 0.51 0.54 0.54 0.51 0.56 0.66 0.78 0.89
0.10 0.13 0.19 0.23 0.24 0.21 0.21 0.26 0.29 0.38 0.39 0.38 0.44 0.32 0.25 0.23 0.29 0.31 0.26 0.26 0.29 0.30 0.33 0.32 0.31 0.31 0.32 0.37 0.43 0.45 0.46 0.48 0.54 0.62 0.70 0.71 0.72 0.77
0.22 0.26 0.27 0.27 0.23 0.20 0.21 0.21 0.34 0.42 0.57 0.76 0.69 0.63 0.59 0.46 0.41 0.41 0.47 0.39 0.33 0.25 0.21 0.22 0.27 0.32 0.33 0.35 0.40 0.37 0.41 0.51 0.60 0.65 0.68 0.78 0.85 0.92
0.34 0.31 0.29 0.26 0.19 0.17 0.17 0.21 0.36 0.66 0.86 0.95 0.96 0.74 0.47 0.43 0.39 0.46 0.60 0.72 0.63 0.29 0.28 0.36 0.40 0.47 0.46 0.46 0.45 0.43 0.44 0.46 0.50 0.56 0.66 0.70 0.71 0.77
0.33 0.23 0.15 0.09 0.07 0.05 0.09 0.17 0.34 0.63 0.72 0.60 0.52 0.45 0.42 0.37 0.54 0.68 0.67 0.77 0.65 0.34 0.40 0.48 0.38 0.40 0.41 0.46 0.54 0.47 0.48 0.48 0.49 0.52 0.56 0.59 0.60 0.66
0.05 0.02 0.02 0.03 0.04 0.06 0.14 0.40 0.35 0.22 0.21 0.27 0.33 0.37 0.47 0.59 0.83 1.13 1.10 0.99 0.69 0.45 0.42 0.56 0.31 0.35 0.37 0.44 0.57 0.47 0.40 0.42 0.46 0.49 0.50 0.53 0.58 0.64
0.02 0.02 0.06 0.03 0.05 0.14 0.37 0.41 0.19 0.14 0.19 0.28 0.39 0.46 0.44 0.39 0.42 0.77 0.90 0.83 0.72 0.39 0.31 0.43 0.36 0.37 0.41 0.39 0.45 0.46 0.42 0.45 0.51 0.53 0.53 0.59 0.63 0.65
0.02 0.03 0.05 0.04 0.12 0.37 0.27 0.24 0.26 0.17 0.33 0.34 0.35 0.39 0.39 0.38 0.44 0.50 0.95 1.63 1.14 0.90 0.38 0.84 0.65 0.55 0.90 0.38 0.39 0.53 0.49 0.43 0.42 0.41 0.40 0.41 0.47 0.49
0.11 0.03 0.04 0.16 0.36 0.22 0.16 0.19 0.23 0.27 0.33 0.30 0.33 0.37 0.39 0.40 0.45 0.61 0.98 1.82 2.07 1.47 0.56 1.44 1.48 0.64 1.03 0.58 0.41 0.50 0.42 0.45 0.47 0.45 0.41 0.39 0.37 0.40
0.05 0.02 0.10 0.24 0.09 0.06 0.09 0.18 0.32 0.31 0.24 0.33 0.47 0.52 0.51 0.52 0.59 0.66 0.72 0.85 1.04 1.42 0.85 1.10 1.99 0.97 1.25 0.88 0.53 0.55 0.54 0.49 0.53 0.46 0.39 0.44 0.53 0.59
0.05 0.16 0.15 0.03 0.03 0.04 0.10 0.17 0.16 0.15 0.35 0.66 0.81 0.82 0.75 0.80 0.84 0.76 0.68 0.64 0.69 0.74 0.86 0.87 1.22 1.09 1.19 1.07 0.77 0.52 0.68 0.70 0.76 0.81 0.64 0.47 0.42 0.43
0.17 0.14 0.02 0.03 0.05 0.06 0.08 0.07 0.07 0.17 0.42 0.62 0.68 0.61 0.70 0.74 0.73 0.84 1.07 0.97 1.04 0.84 0.70 0.63 0.77 0.96 0.94 0.59 0.87 0.74 0.60 1.07 1.04 1.09 1.05 0.62 0.49 0.40
0.07 0.01 0.01 0.02 0.02 0.02 0.04 0.06 0.11 0.24 0.41 0.41 0.57 0.62 0.72 0.81 0.83 0.94 1.22 1.17 1.03 0.77 0.62 0.47 0.39 0.40 0.48 0.60 0.68 0.65 0.87 0.84 1.10 1.48 1.28 0.85 0.69 0.55
0.05 0.03 0.04 0.05 0.08 0.09 0.11 0.15 0.20 0.32 0.39 0.55 0.62 0.69 0.85 0.93 1.11 1.22 1.24 1.05 0.86 0.62 0.54 0.42 0.37 0.37 0.33 0.30 0.61 0.92 0.82 0.91 1.19 1.36 1.37 0.81 0.76 0.81
0.09 0.12 0.15 0.16 0.16 0.16 0.22 0.36 0.48 0.53 0.77 0.91 0.93 0.94 1.01 1.09 1.15 1.17 0.95 0.72 0.52 0.37 0.21 0.16 0.34 0.59 0.70 0.31 0.29 0.70 1.21 1.07 0.83 0.88 0.91 0.64 0.73 0.88
0.20 0.25 0.28 0.25 0.24 0.31 0.38 0.57 0.71 0.74 0.78 0.87 1.02 1.08 1.22 1.39 1.24 1.05 0.74 0.57 0.41 0.24 0.11 0.05 0.15 0.49 1.07 0.97 0.86 0.81 0.85 1.15 0.92 0.88 0.67 0.53 0.72 0.73
0.23 0.30 0.36 0.36 0.36 0.44 0.50 0.62 0.78 1.03 1.27 1.37 1.19 1.29 1.30 1.36 0.96 0.62 0.43 0.22 0.25 0.23 0.18 0.05 0.11 0.31 0.47 0.49 0.51 0.40 0.71 0.77 0.81 1.22 0.98 0.75 0.53 0.38
0.14 0.23 0.29 0.36 0.35 0.43 0.58 0.83 1.06 1.10 1.16 1.15 1.25 1.26 1.10 0.92 0.72 0.41 0.22 0.29 0.18 0.20 0.20 0.10 0.05 0.11 0.20 0.45 0.43 0.36 0.45 0.47 0.41 0.40 0.62 0.99 1.23 1.39
0.14 0.20 0.28 0.38 0.41 0.48 0.67 0.86 1.11 1.16 1.19 1.31 1.19 0.96 0.77 0.56 0.25 0.23 0.22 0.21 0.29 0.31 0.18 0.12 0.05 0.06 0.14 0.31 0.36 0.36 0.27 0.31 0.24 0.27 0.68 0.63 0.65 0.82

GFSNE_prec_precacc_117.txt.gz
Total_Precipitation_Accumulation
0.51 0.59 0.68 0.67 0.71 0.81 1.00 1.17 1.47 1.28 0.91 0.71 0.67 0.61 0.58 0.53 0.48 0.44 0.34 0.27 0.19 0.14 0.15 0.14 0.13 0.16 0.23 0.34 0.48 0.60 0.67 0.74 0.79 0.88 1.06 1.23 1.35 1.40
0.32 0.41 0.48 0.58 0.73 0.83 0.92 0.98 1.21 1.41 1.16 0.73 0.76 0.79 0.72 0.59 0.45 0.31 0.20 0.22 0.17 0.14 0.15 0.14 0.13 0.14 0.16 0.20 0.26 0.34 0.43 0.55 0.67 0.78 0.88 0.97 1.04 1.15
0.29 0.37 0.42 0.45 0.56 0.66 0.76 0.94 1.08 1.17 1.09 0.67 0.55 0.47 0.35 0.25 0.16 0.13 0.10 0.06 0.05 0.07 0.08 0.10 0.14 0.15 0.15 0.15 0.18 0.21 0.30 0.39 0.48 0.58 0.72 0.89 1.09 1.18
0.15 0.24 0.29 0.36 0.45 0.49 0.54 0.55 0.55 0.54 0.60 0.43 0.26 0.24 0.19 0.17 0.14 0.14 0.13 0.13 0.14 0.12 0.14 0.12 0.14 0.18 0.22 0.23 0.23 0.25 0.25 0.28 0.36 0.50 0.59 0.66 0.74 0.87
0.13 0.19 0.20 0.24 0.31 0.30 0.30 0.31 0.32 0.37 0.40 0.46 0.27 0.18 0.12 0.13 0.16 0.21 0.21 0.19 0.18 0.23 0.27 0.26 0.28 0.32 0.36 0.37 0.37 0.43 0.51 0.54 0.54 0.51 0.56 0.66 0.78 0.89
0.10 0.13 0.19 0.23 0.24 0.21 0.21 0.26 0.29 0.38 0.39 0.38 0.44 0.32 0.25 0.23 0.29 0.31 0.26 0.26 0.29 0.30 0.33 0.32 0.31 0.31 0.32 0.37 0.43 0.45 0.46 0.48 0.54 0.62 0.70 0.71 0.72 0.77
0.22 0.26 0.27 0.27 0.23 0.20 0.21 0.21 0.34 0.42 0.57 0.76 0.69 0.63 0.59 0.47 0.41 0.41 0.47 0.39 0.33 0.25 0.22 0.23 0.27 0.32 0.33 0.35 0.40 0.37 0.41 0.51 0.60 0.65 0.68 0.78 0.85 0.92
0.34 0.31 0.29 0.26 0.19 0.17 0.17 0.21 0.36 0.66 0.86 0.95 0.96 0.74 0.47 0.43 0.40 0.47 0.62 0.74 0.64 0.29 0.28 0.36 0.40 0.47 0.46 0.46 0.45 0.43 0.44 0.46 0.50 0.56 0.66 0.70 0.71 0.77
0.33 0.23 0.15 0.09 0.07 0.05 0.09 0.17 0.34 0.63 0.72 0.60 0.52 0.45 0.42 0.38 0.56 0.69 0.68 0.78 0.67 0.35 0.41 0.49 0.38 0.40 0.41 0.46 0.54 0.47 0.48 0.48 0.49 0.52 0.56 0.59 0.60 0.66
0.05 0.02 0.02 0.03 0.04 0.06 0.14 0.40 0.35 0.22 0.21 0.27 0.33 0.37 0.47 0.59 0.84 1.16 1.13 1.02 0.71 0.46 0.42 0.56 0.31 0.35 0.37 0.44 0.57 0.47 0.40 0.42 0.46 0.49 0.50 0.53 0.58 0.64
0.02 0.02 0.06 0.03 0.05 0.14 0.37 0.41 0.19 0.14 0.19 0.28 0.39 0.46 0.44 0.39 0.42 0.78 0.92 0.85 0.74 0.39 0.31 0.43 0.36 0.37 0.41 0.39 0.45 0.46 0.42 0.45 0.51 0.53 0.53 0.59 0.63 0.65
0.02 0.03 0.05 0.04 0.12 0.37 0.27 0.24 0.26 0.17 0.33 0.34 0.35 0.39 0.39 0.38 0.44 0.50 0.95 1.63 1.14 0.90 0.38 0.84 0.65 0.55 0.90 0.38 0.39 0.53 0.49 0.43 0.42 0.41 0.40 0.41 0.47 0.49
0.11 0.03 0.04 0.16 0.36 0.22 0.16 0.19 0.23 0.27 0.33 0.30 0.33 0.37 0.39 0.40 0.45 0.61 0.98 1.82 2.07 1.47 0.56 1.44 1.48 0.64 1.03 0.58 0.41 0.50 0.42 0.45 0.47 0.45 0.41 0.39 0.37 0.40
0.05 0.02 0.10 0.24 0.09 0.06 0.09 0.18 0.32 0.31 0.24 0.33 0.47 0.52 0.51 0.52 0.59 0.66 0.72 0.85 1.04 1.42 0.85 1.10 1.99 0.97 1.25 0.88 0.53 0.55 0.54 0.49 0.53 0.46 0.39 0.44 0.53 0.59
0.05 0.16 0.15 0.03 0.03 0.04 0.10 0.17 0.16 0.15 0.35 0.66 0.81 0.82 0.75 0.80 0.84 0.76 0.68 0.64 0.69 0.74 0.86 0.87 1.22 1.09 1.19 1.07 0.77 0.52 0.68 0.70 0.76 0.81 0.64 0.47 0.42 0.43
0.17 0.14 0.03 0.03 0.05 0.06 0.08 0.07 0.07 0.17 0.42 0.62 0.68 0.61 0.70 0.74 0.73 0.84 1.07 0.97 1.04 0.84 0.70 0.63 0.77 0.96 0.94 0.59 0.87 0.74 0.60 1.07 1.04 1.09 1.05 0.62 0.49 0.40
0.07 0.01 0.01 0.02 0.02 0.02 0.04 0.06 0.11 0.24 0.41 0.41 0.57 0.62 0.72 0.81 0.83 0.94 1.22 1.17 1.03 0.77 0.62 0.47 0.39 0.40 0.48 0.60 0.68 0.65 0.87 0.84 1.10 1.48 1.28 0.85 0.69 0.55
0.05 0.03 0.04 0.05 0.08 0.09 0.11 0.15 0.20 0.32 0.39 0.55 0.62 0.69 0.85 0.93 1.11 1.22 1.24 1.05 0.86 0.62 0.54 0.42 0.37 0.37 0.33 0.30 0.61 0.92 0.82 0.91 1.19 1.36 1.37 0.81 0.76 0.81
0.09 0.12 0.15 0.16 0.16 0.16 0.22 0.36 0.48 0.53 0.77 0.91 0.93 0.94 1.01 1.09 1.15 1.17 0.95 0.72 0.52 0.37 0.21 0.16 0.34 0.59 0.70 0.31 0.29 0.70 1.21 1.07 0.83 0.88 0.91 0.64 0.73 0.88
0.20 0.25 0.28 0.25 0.24 0.31 0.38 0.57 0.71 0.74 0.78 0.87 1.02 1.08 1.22 1.39 1.24 1.05 0.74 0.57 0.41 0.24 0.11 0.05 0.15 0.49 1.07 0.97 0.86 0.81 0.85 1.15 0.92 0.88 0.67 0.53 0.72 0.73
0.23 0.30 0.36 0.36 0.36 0.44 0.50 0.63 0.78 1.03 1.27 1.37 1.19 1.29 1.30 1.36 0.96 0.62 0.43 0.22 0.25 0.23 0.18 0.05 0.11 0.31 0.47 0.49 0.51 0.40 0.71 0.77 0.81 1.22 0.98 0.75 0.53 0.38
0.14 0.23 0.29 0.36 0.35 0.43 0.59 0.84 1.06 1.10 1.16 1.15 1.25 1.26 1.10 0.92 0.72 0.41 0.22 0.29 0.18 0.20 0.20 0.10 0.05 0.11 0.20 0.45 0.43 0.36 0.45 0.47 0.41 0.40 0.62 0.99 1.23 1.39
0.15 0.21 0.29 0.38 0.41 0.48 0.67 0.87 1.11 1.16 1.19 1.32 1.19 0.96 0.77 0.56 0.25 0.23 0.22 0.21 0.29 0.31 0.18 0.12 0.05 0.06 0.14 0.31 0.36 0.36 0.27 0.31 0.24 0.27 0.68 0.63 0.65 0.82

GFSNE_prec_precacc_120.txt.gz
Total_Precipitation_Accumulation
0.59 0.61 0.68 0.67 0.71 0.82 1.01 1.17 1.47 1.28 0.91 0.72 0.67 0.61 0.59 0.54 0.49 0.44 0.34 0.27 0.19 0.15 0.15 0.14 0.13 0.16 0.23 0.34 0.49 0.61 0.67 0.74 0.79 0.88 1.06 1.23 1.35 1.40
0.36 0.41 0.48 0.58 0.73 0.83 0.93 0.99 1.21 1.41 1.17 0.73 0.76 0.79 0.72 0.59 0.45 0.31 0.20 0.22 0.17 0.14 0.15 0.14 0.13 0.14 0.16 0.20 0.26 0.34 0.43 0.55 0.67 0.79 0.88 0.97 1.04 1.15
0.29 0.37 0.42 0.45 0.56 0.66 0.76 0.94 1.08 1.18 1.09 0.67 0.55 0.47 0.35 0.25 0.16 0.13 0.10 0.06 0.05 0.07 0.08 0.10 0.14 0.15 0.15 0.15 0.18 0.22 0.30 0.39 0.49 0.59 0.73 0.89 1.09 1.18
0.15 0.24 0.29 0.36 0.45 0.49 0.54 0.55 0.55 0.54 0.61 0.43 0.26 0.24 0.19 0.17 0.14 0.14 0.13 0.13 0.14 0.13 0.14 0.13 0.15 0.18 0.22 0.23 0.23 0.25 0.25 0.29 0.36 0.50 0.59 0.66 0.74 0.87
0.13 0.19 0.20 0.24 0.31 0.30 0.30 0.31 0.32 0.37 0.40 0.47 0.27 0.18 0.12 0.13 0.16 0.21 0.21 0.19 0.18 0.24 0.28 0.27 0.29 0.33 0.37 0.37 0.37 0.43 0.51 0.54 0.54 0.51 0.56 0.66 0.78 0.89
0.10 0.13 0.19 0.23 0.24 0.21 0.21 0.26 0.29 0.38 0.39 0.38 0.44 0.32 0.25 0.23 0.29 0.31 0.26 0.26 0.29 0.30 0.34 0.33 0.32 0.32 0.33 0.38 0.43 0.45 0.46 0.48 0.54 0.62 0.70 0.71 0.72 0.77
0.22 0.26 0.27 0.27 0.23 0.20 0.21 0.21 0.34 0.42 0.57 0.76 0.69 0.63 0.59 0.47 0.41 0.41 0.47 0.39 0.33 0.25 0.22 0.24 0.30 0.34 0.34 0.36 0.40 0.37 0.41 0.51 0.60 0.65 0.68 0.78 0.85 0.92
0.34 0.31 0.29 0.26 0.19 0.17 0.17 0.21 0.36 0.66 0.86 0.95 0.96 0.74 0.47 0.43 0.40 0.48 0.62 0.75 0.66 0.30 0.29 0.37 0.43 0.49 0.47 0.47 0.45 0.43 0.44 0.46 0.50 0.56 0.66 0.70 0.71 0.77
0.33 0.23 0.15 0.09 0.07 0.05 0.09 0.17 0.34 0.63 0.72 0.60 0.52 0.45 0.42 0.38 0.56 0.69 0.69 0.79 0.68 0.36 0.41 0.50 0.38 0.41 0.41 0.46 0.54 0.47 0.48 0.48 0.49 0.52 0.56 0.59 0.60 0.66
0.05 0.02 0.02 0.03 0.04 0.06 0.14 0.40 0.35 0.22 0.21 0.27 0.33 0.37 0.47 0.59 0.84 1.16 1.14 1.03 0.72 0.47 0.43 0.57 0.32 0.35 0.38 0.44 0.57 0.47 0.40 0.42 0.46 0.49 0.50 0.53 0.58 0.64
0.02 0.02 0.06 0.03 0.05 0.14 0.37 0.41 0.19 0.14 0.19 0.28 0.39 0.46 0.44 0.39 0.42 0.78 0.92 0.85 0.75 0.41 0.33 0.45 0.37 0.37 0.41 0.39 0.45 0.46 0.42 0.45 0.51 0.53 0.53 0.59 0.63 0.65
0.02 0.03 0.05 0.04 0.12 0.37 0.27 0.24 0.26 0.17 0.33 0.34 0.35 0.39 0.39 0.38 0.44 0.50 0.95 1.63 1.14 0.91 0.38 0.84 0.65 0.55 0.90 0.38 0.39 0.53 0.49 0.43 0.42 0.41 0.40 0.41 0.47 0.49
0.11 0.03 0.04 0.16 0.36 0.22 0.16 0.19 0.23 0.27 0.33 0.30 0.33 0.37 0.39 0.40 0.45 0.61 0.98 1.82 2.07 1.47 0.56 1.44 1.48 0.64 1.03 0.58 0.41 0.50 0.42 0.45 0.47 0.45 0.41 0.39 0.37 0.40
0.05 0.02 0.10 0.24 0.09 0.06 0.09 0.18 0.32 0.31 0.24 0.33 0.47 0.52 0.51 0.52 0.59 0.66 0.72 0.85 1.04 1.42 0.85 1.10 1.99 0.97 1.25 0.88 0.53 0.55 0.54 0.49 0.53 0.46 0.39 0.44 0.53 0.59
0.05 0.16 0.15 0.03 0.03 0.04 0.10 0.17 0.16 0.15 0.35 0.66 0.81 0.82 0.75 0.80 0.84 0.76 0.68 0.64 0.69 0.74 0.86 0.87 1.22 1.09 1.19 1.07 0.77 0.52 0.68 0.70 0.76 0.81 0.64 0.47 0.42 0.43
0.17 0.14 0.03 0.03 0.05 0.06 0.08 0.07 0.07 0.17 0.42 0.62 0.68 0.61 0.70 0.74 0.73 0.84 1.07 0.97 1.04 0.84 0.70 0.63 0.77 0.96 0.94 0.59 0.87 0.74 0.60 1.07 1.04 1.09 1.05 0.62 0.49 0.40
0.07 0.01 0.01 0.02 0.02 0.02 0.04 0.06 0.11 0.24 0.41 0.41 0.57 0.62 0.72 0.81 0.83 0.94 1.22 1.17 1.03 0.77 0.62 0.47 0.39 0.40 0.48 0.60 0.68 0.65 0.87 0.84 1.10 1.48 1.28 0.85 0.69 0.55
0.05 0.03 0.04 0.05 0.08 0.09 0.11 0.15 0.20 0.32 0.39 0.55 0.62 0.69 0.85 0.93 1.11 1.22 1.24 1.05 0.86 0.62 0.54 0.42 0.37 0.37 0.33 0.30 0.61 0.92 0.82 0.91 1.19 1.36 1.37 0.81 0.76 0.81
0.09 0.12 0.15 0.16 0.16 0.16 0.22 0.36 0.48 0.53 0.77 0.91 0.93 0.94 1.01 1.09 1.15 1.17 0.95 0.72 0.52 0.37 0.21 0.16 0.34 0.59 0.70 0.31 0.29 0.70 1.21 1.07 0.83 0.88 0.91 0.64 0.73 0.88
0.20 0.25 0.28 0.25 0.24 0.31 0.39 0.57 0.72 0.74 0.78 0.87 1.02 1.08 1.22 1.39 1.24 1.05 0.74 0.57 0.41 0.24 0.11 0.05 0.15 0.49 1.07 0.97 0.86 0.81 0.85 1.15 0.92 0.88 0.67 0.53 0.72 0.73
0.23 0.30 0.36 0.36 0.36 0.44 0.50 0.63 0.78 1.03 1.27 1.37 1.19 1.29 1.30 1.36 0.96 0.62 0.43 0.22 0.25 0.23 0.18 0.05 0.11 0.31 0.47 0.49 0.51 0.40 0.71 0.77 0.81 1.22 0.98 0.75 0.53 0.38
0.14 0.23 0.29 0.36 0.35 0.43 0.59 0.84 1.06 1.11 1.16 1.16 1.25 1.27 1.10 0.92 0.72 0.41 0.22 0.29 0.18 0.20 0.20 0.10 0.05 0.11 0.20 0.46 0.43 0.36 0.45 0.47 0.41 0.40 0.62 0.99 1.23 1.39
0.15 0.21 0.29 0.39 0.42 0.49 0.68 0.87 1.12 1.17 1.19 1.32 1.20 0.97 0.79 0.57 0.26 0.23 0.22 0.21 0.29 0.31 0.18 0.12 0.05 0.06 0.14 0.31 0.36 0.36 0.27 0.31 0.24 0.27 0.68 0.63 0.65 0.82

GFSNE_prec_precacc_123.txt.gz
Total_Precipitation_Accumulation
0.65 0.66 0.71 0.68 0.72 0.82 1.01 1.17 1.47 1.29 0.91 0.72 0.67 0.61 0.59 0.54 0.49 0.44 0.34 0.27 0.19 0.15 0.16 0.14 0.13 0.16 0.23 0.34 0.49 0.61 0.67 0.74 0.79 0.88 1.06 1.24 1.36 1.40
0.46 0.50 0.55 0.60 0.73 0.83 0.93 0.99 1.21 1.42 1.17 0.73 0.76 0.79 0.72 0.59 0.45 0.31 0.20 0.22 0.17 0.14 0.15 0.14 0.13 0.14 0.16 0.20 0.26 0.34 0.43 0.55 0.67 0.79 0.88 0.98 1.05 1.15
0.30 0.37 0.42 0.45 0.56 0.66 0.76 0.94 1.08 1.18 1.09 0.67 0.55 0.47 0.35 0.25 0.16 0.13 0.10 0.06 0.05 0.07 0.08 0.10 0.14 0.15 0.15 0.16 0.18 0.22 0.30 0.40 0.49 0.59 0.73 0.90 1.10 1.18
0.15 0.24 0.29 0.36 0.45 0.49 0.54 0.55 0.55 0.54 0.61 0.43 0.26 0.24 0.19 0.17 0.14 0.14 0.13 0.13 0.14 0.13 0.14 0.13 0.15 0.18 0.22 0.23 0.25 0.26 0.26 0.29 0.37 0.50 0.60 0.67 0.75 0.88
0.13 0.19 0.20 0.24 0.31 0.30 0.30 0.31 0.32 0.37 0.40 0.47 0.27 0.18 0.12 0.13 0.16 0.21 0.21 0.19 0.18 0.25 0.29 0.28 0.30 0.34 0.38 0.39 0.38 0.44 0.52 0.54 0.54 0.51 0.56 0.66 0.78 0.89
0.10 0.13 0.19 0.23 0.24 0.21 0.21 0.26 0.29 0.38 0.39 0.38 0.44 0.32 0.25 0.23 0.29 0.31 0.26 0.26 0.29 0.30 0.35 0.34 0.33 0.32 0.34 0.39 0.44 0.46 0.46 0.48 0.54 0.62 0.70 0.71 0.72 0.77
0.22 0.26 0.27 0.27 0.23 0.20 0.21 0.21 0.34 0.42 0.57 0.76 0.69 0.63 0.59 0.47 0.41 0.41 0.47 0.39 0.33 0.25 0.22 0.25 0.31 0.35 0.35 0.37 0.41 0.38 0.41 0.51 0.60 0.65 0.68 0.78 0.85 0.92
0.34 0.31 0.29 0.26 0.19 0.17 0.17 0.21 0.36 0.66 0.86 0.95 0.96 0.74 0.47 0.43 0.40 0.48 0.62 0.75 0.66 0.30 0.29 0.37 0.43 0.50 0.48 0.48 0.47 0.45 0.45 0.46 0.50 0.56 0.66 0.70 0.71 0.77
0.33 0.23 0.15 0.09 0.07 0.05 0.09 0.17 0.34 0.63 0.72 0.60 0.52 0.45 0.42 0.38 0.56 0.69 0.69 0.79 0.68 0.36 0.42 0.51 0.41 0.43 0.43 0.47 0.55 0.47 0.49 0.48 0.49 0.52 0.56 0.59 0.60 0.66
0.05 0.02 0.02 0.03 0.04 0.06 0.14 0.40 0.35 0.22 0.21 0.27 0.33 0.37 0.47 0.59 0.84 1.16 1.14 1.03 0.72 0.47 0.43 0.57 0.32 0.36 0.38 0.45 0.59 0.47 0.41 0.42 0.46 0.49 0.50 0.53 0.58 0.64
0.02 0.02 0.06 0.03 0.05 0.14 0.37 0.41 0.19 0.14 0.19 0.28 0.39 0.46 0.44 0.39 0.42 0.78 0.92 0.85 0.75 0.41 0.33 0.46 0.38 0.39 0.42 0.41 0.46 0.46 0.42 0.45 0.51 0.53 0.53 0.59 0.63 0.65
0.02 0.03 0.05 0.04 0.12 0.37 0.27 0.24 0.26 0.17 0.33 0.34 0.35 0.39 0.39 0.38 0.44 0.50 0.95 1.63 1.14 0.91 0.39 0.85 0.65 0.56 0.91 0.38 0.39 0.53 0.49 0.43 0.42 0.41 0.40 0.41 0.47 0.49
0.11 0.03 0.04 0.16 0.36 0.22 0.16 0.19 0.23 0.27 0.33 0.30 0.33 0.37 0.39 0.40 0.45 0.61 0.98 1.82 2.07 1.47 0.56 1.44 1.48 0.64 1.03 0.58 0.41 0.50 0.42 0.45 0.47 0.45 0.41 0.39 0.37 0.41
0.05 0.02 0.10 0.24 0.09 0.06 0.09 0.18 0.32 0.31 0.24 0.33 0.47 0.52 0.51 0.52 0.59 0.66 0.72 0.85 1.04 1.42 0.85 1.10 1.99 0.97 1.25 0.88 0.53 0.55 0.54 0.49 0.53 0.46 0.39 0.44 0.53 0.60
0.05 0.16 0.15 0.03 0.03 0.04 0.10 0.17 0.16 0.15 0.35 0.66 0.81 0.82 0.75 0.80 0.84 0.76 0.68 0.64 0.69 0.74 0.86 0.87 1.22 1.09 1.19 1.07 0.77 0.52 0.68 0.70 0.76 0.81 0.64 0.47 0.42 0.43
0.17 0.14 0.03 0.03 0.05 0.06 0.08 0.07 0.07 0.17 0.42 0.62 0.68 0.61 0.70 0.74 0.73 0.84 1.07 0.97 1.04 0.84 0.70 0.63 0.77 0.96 0.94 0.59 0.87 0.74 0.60 1.07 1.04 1.09 1.05 0.62 0.49 0.40
0.07 0.01 0.01 0.02 0.02 0.02 0.04 0.06 0.11 0.24 0.41 0.41 0.57 0.62 0.72 0.81 0.83 0.94 1.22 1.17 1.03 0.77 0.62 0.47 0.39 0.40 0.48 0.60 0.68 0.65 0.87 0.84 1.10 1.48 1.28 0.85 0.69 0.55
0.05 0.03 0.04 0.05 0.08 0.09 0.11 0.15 0.20 0.32 0.39 0.55 0.62 0.69 0.85 0.93 1.11 1.22 1.24 1.05 0.86 0.62 0.54 0.42 0.37 0.37 0.33 0.30 0.61 0.92 0.82 0.91 1.19 1.36 1.37 0.81 0.76 0.81
0.09 0.12 0.15 0.16 0.16 0.16 0.22 0.36 0.48 0.53 0.77 0.91 0.93 0.94 1.01 1.09 1.15 1.17 0.95 0.72 0.52 0.37 0.21 0.16 0.34 0.59 0.70 0.31 0.29 0.70 1.21 1.07 0.83 0.88 0.91 0.64 0.73 0.88
0.20 0.25 0.28 0.25 0.24 0.31 0.39 0.57 0.72 0.74 0.78 0.87 1.02 1.08 1.22 1.39 1.24 1.05 0.74 0.57 0.41 0.24 0.11 0.05 0.15 0.49 1.07 0.97 0.86 0.81 0.85 1.15 0.92 0.88 0.67 0.53 0.72 0.73
0.23 0.30 0.36 0.36 0.36 0.44 0.50 0.63 0.78 1.03 1.27 1.38 1.20 1.30 1.31 1.37 0.97 0.62 0.43 0.22 0.25 0.23 0.18 0.05 0.11 0.31 0.47 0.49 0.51 0.40 0.71 0.77 0.81 1.22 0.98 0.75 0.53 0.38
0.14 0.23 0.29 0.36 0.36 0.44 0.59 0.84 1.07 1.12 1.17 1.16 1.26 1.28 1.12 0.94 0.73 0.41 0.22 0.29 0.18 0.20 0.20 0.10 0.05 0.11 0.20 0.46 0.43 0.36 0.45 0.47 0.41 0.40 0.62 0.99 1.23 1.39
0.15 0.21 0.29 0.40 0.43 0.50 0.69 0.88 1.13 1.18 1.21 1.33 1.21 0.98 0.80 0.59 0.26 0.24 0.22 0.21 0.29 0.31 0.18 0.12 0.05 0.06 0.14 0.31 0.36 0.36 0.27 0.31 0.24 0.27 0.68 0.63 0.65 0.82

GFSNE_prec_precacc_126.txt.gz
Total_Precipitation_Accumulation
0.65 0.66 0.71 0.69 0.72 0.83 1.01 1.17 1.47 1.29 0.91 0.72 0.67 0.61 0.59 0.54 0.49 0.44 0.34 0.27 0.19 0.15 0.16 0.14 0.14 0.16 0.23 0.34 0.50 0.61 0.67 0.74 0.79 0.88 1.07 1.25 1.37 1.42
0.46 0.52 0.55 0.61 0.73 0.83 0.93 0.99 1.21 1.42 1.18 0.73 0.76 0.79 0.72 0.59 0.45 0.31 0.20 0.22 0.18 0.15 0.16 0.15 0.14 0.14 0.16 0.20 0.26 0.34 0.43 0.55 0.67 0.79 0.89 0.98 1.05 1.17
0.31 0.38 0.43 0.46 0.56 0.66 0.76 0.94 1.08 1.18 1.09 0.67 0.55 0.47 0.35 0.25 0.16 0.13 0.10 0.06 0.05 0.07 0.08 0.10 0.15 0.16 0.16 0.16 0.20 0.23 0.30 0.40 0.49 0.59 0.73 0.90 1.12 1.20
0.16 0.24 0.29 0.36 0.45 0.49 0.54 0.55 0.55 0.54 0.61 0.43 0.26 0.24 0.19 0.17 0.14 0.14 0.13 0.13 0.14 0.13 0.14 0.13 0.15 0.19 0.23 0.25 0.27 0.29 0.28 0.30 0.37 0.50 0.60 0.67 0.76 0.88
0.13 0.19 0.20 0.24 0.31 0.30 0.30 0.31 0.32 0.37 0.40 0.47 0.27 0.18 0.12 0.13 0.16 0.21 0.21 0.19 0.18 0.25 0.29 0.29 0.30 0.34 0.39 0.39 0.39 0.46 0.54 0.55 0.55 0.51 0.56 0.66 0.78 0.89
0.10 0.13 0.19 0.23 0.24 0.21 0.21 0.26 0.29 0.38 0.39 0.38 0.44 0.32 0.25 0.23 0.29 0.31 0.26 0.26 0.29 0.30 0.35 0.34 0.34 0.33 0.35 0.40 0.45 0.46 0.47 0.49 0.55 0.63 0.70 0.71 0.72 0.77
0.22 0.26 0.27 0.27 0.23 0.20 0.21 0.21 0.34 0.42 0.57 0.76 0.69 0.63 0.59 0.47 0.41 0.41 0.47 0.39 0.33 0.25 0.22 0.25 0.31 0.35 0.36 0.39 0.42 0.40 0.43 0.53 0.61 0.66 0.68 0.78 0.85 0.92
0.34 0.31 0.29 0.26 0.19 0.17 0.17 0.21 0.36 0.66 0.86 0.95 0.96 0.74 0.47 0.43 0.40 0.48 0.62 0.75 0.66 0.30 0.29 0.37 0.43 0.50 0.48 0.48 0.49 0.46 0.47 0.48 0.51 0.57 0.66 0.70 0.71 0.77
0.33 0.23 0.15 0.09 0.07 0.05 0.09 0.17 0.34 0.63 0.72 0.60 0.52 0.45 0.42 0.38 0.56 0.69 0.69 0.79 0.68 0.36 0.42 0.51 0.41 0.44 0.44 0.50 0.59 0.50 0.50 0.49 0.49 0.52 0.56 0.59 0.60 0.66
0.05 0.02 0.02 0.03 0.04 0.06 0.14 0.40 0.35 0.22 0.21 0.27 0.33 0.37 0.47 0.59 0.84 1.16 1.14 1.03 0.72 0.47 0.43 0.57 0.32 0.36 0.39 0.47 0.62 0.49 0.42 0.43 0.47 0.49 0.50 0.53 0.58 0.64
0.02 0.02 0.06 0.03 0.05 0.14 0.37 0.41 0.19 0.14 0.19 0.28 0.39 0.46 0.44 0.39 0.42 0.78 0.92 0.85 0.75 0.41 0.33 0.46 0.38 0.39 0.43 0.41 0.47 0.48 0.43 0.45 0.51 0.53 0.53 0.59 0.63 0.65
0.02 0.03 0.05 0.04 0.12 0.37 0.27 0.24 0.26 0.17 0.33 0.34 0.35 0.39 0.39 0.38 0.44 0.50 0.95 1.63 1.14 0.91 0.39 0.85 0.65 0.57 0.91 0.39 0.40 0.54 0.49 0.43 0.42 0.41 0.40 0.41 0.48 0.49
0.11 0.03 0.04 0.16 0.36 0.22 0.16 0.19 0.23 0.27 0.33 0.30 0.33 0.37 0.39 0.40 0.45 0.61 0.98 1.82 2.07 1.47 0.56 1.44 1.48 0.64 1.03 0.58 0.41 0.50 0.42 0.45 0.47 0.45 0.41 0.39 0.37 0.41
0.05 0.02 0.10 0.24 0.09 0.06 0.09 0.18 0.32 0.31 0.24 0.33 0.47 0.52 0.51 0.52 0.59 0.66 0.72 0.85 1.04 1.42 0.85 1.10 1.99 0.97 1.25 0.88 0.53 0.55 0.54 0.49 0.53 0.46 0.39 0.44 0.54 0.60
0.05 0.16 0.15 0.03 0.03 0.04 0.10 0.17 0.16 0.15 0.35 0.66 0.81 0.82 0.75 0.80 0.84 0.76 0.68 0.64 0.69 0.74 0.86 0.87 1.22 1.09 1.19 1.07 0.77 0.52 0.68 0.70 0.76 0.81 0.64 0.47 0.42 0.43
0.17 0.14 0.03 0.03 0.05 0.06 0.08 0.07 0.07 0.17 0.42 0.62 0.68 0.61 0.70 0.74 0.73 0.84 1.07 0.97 1.04 0.84 0.70 0.63 0.77 0.96 0.94 0.59 0.87 0.74 0.60 1.07 1.04 1.09 1.05 0.62 0.49 0.40
0.07 0.01 0.01 0.02 0.02 0.02 0.04 0.06 0.11 0.24 0.41 0.41 0.57 0.62 0.72 0.81 0.83 0.94 1.22 1.17 1.03 0.77 0.62 0.47 0.39 0.40 0.48 0.60 0.68 0.65 0.87 0.84 1.10 1.48 1.28 0.85 0.69 0.55
0.05 0.03 0.04 0.05 0.08 0.09 0.11 0.15 0.20 0.32 0.39 0.55 0.62 0.69 0.85 0.93 1.11 1.22 1.24 1.05 0.86 0.62 0.54 0.42 0.37 0.37 0.33 0.30 0.61 0.92 0.82 0.91 1.19 1.36 1.37 0.81 0.76 0.81
0.09 0.12 0.15 0.16 0.16 0.16 0.22 0.36 0.48 0.53 0.77 0.91 0.93 0.94 1.01 1.09 1.15 1.17 0.95 0.72 0.52 0.37 0.21 0.16 0.34 0.59 0.70 0.31 0.29 0.70 1.21 1.07 0.83 0.88 0.91 0.64 0.73 0.88
0.21 0.26 0.28 0.25 0.24 0.31 0.39 0.57 0.72 0.74 0.78 0.87 1.02 1.08 1.22 1.39 1.24 1.05 0.74 0.57 0.41 0.24 0.11 0.05 0.15 0.49 1.07 0.97 0.86 0.81 0.85 1.15 0.92 0.88 0.67 0.53 0.72 0.73
0.26 0.33 0.38 0.36 0.36 0.44 0.50 0.63 0.78 1.03 1.27 1.38 1.20 1.30 1.31 1.37 0.97 0.62 0.43 0.22 0.25 0.23 0.18 0.05 0.11 0.31 0.47 0.49 0.51 0.40 0.71 0.77 0.81 1.22 0.98 0.75 0.53 0.38
0.16 0.24 0.30 0.36 0.36 0.44 0.59 0.84 1.07 1.12 1.17 1.16 1.26 1.28 1.12 0.94 0.73 0.41 0.22 0.29 0.18 0.20 0.20 0.10 0.05 0.11 0.20 0.46 0.43 0.36 0.45 0.47 0.41 0.40 0.62 0.99 1.23 1.39
0.17 0.22 0.30 0.40 0.43 0.51 0.69 0.89 1.14 1.19 1.21 1.34 1.21 0.98 0.80 0.59 0.27 0.25 0.23 0.22 0.29 0.32 0.18 0.12 0.05 0.06 0.14 0.31 0.36 0.36 0.27 0.31 0.24 0.27 0.68 0.63 0.65 0.82

GFSNE_prec_precacc_129.txt.gz
Total_Precipitation_Accumulation
0.65 0.66 0.71 0.69 0.72 0.83 1.01 1.17 1.47 1.29 0.91 0.72 0.67 0.61 0.59 0.54 0.49 0.44 0.34 0.27 0.19 0.15 0.16 0.15 0.14 0.16 0.23 0.34 0.51 0.61 0.67 0.74 0.79 0.88 1.07 1.25 1.38 1.43
0.46 0.52 0.55 0.61 0.73 0.83 0.93 0.99 1.21 1.42 1.18 0.73 0.76 0.79 0.72 0.59 0.45 0.31 0.20 0.22 0.18 0.15 0.16 0.15 0.14 0.15 0.16 0.21 0.27 0.34 0.43 0.55 0.67 0.79 0.89 0.98 1.05 1.19
0.31 0.38 0.43 0.46 0.56 0.66 0.76 0.94 1.08 1.18 1.09 0.67 0.55 0.47 0.35 0.25 0.16 0.13 0.10 0.06 0.05 0.07 0.08 0.10 0.15 0.16 0.17 0.17 0.22 0.24 0.31 0.40 0.49 0.59 0.73 0.90 1.12 1.20
0.16 0.24 0.29 0.36 0.45 0.49 0.54 0.55 0.55 0.54 0.61 0.43 0.26 0.24 0.19 0.17 0.14 0.14 0.13 0.13 0.14 0.13 0.15 0.13 0.16 0.20 0.24 0.26 0.28 0.30 0.30 0.31 0.37 0.50 0.60 0.68 0.76 0.88
0.13 0.19 0.20 0.24 0.31 0.30 0.30 0.31 0.32 0.37 0.40 0.47 0.27 0.18 0.12 0.13 0.16 0.21 0.21 0.19 0.18 0.25 0.29 0.29 0.30 0.34 0.39 0.40 0.40 0.47 0.55 0.57 0.57 0.52 0.56 0.66 0.78 0.89
0.11 0.14 0.19 0.24 0.26 0.24 0.23 0.26 0.29 0.38 0.39 0.38 0.44 0.32 0.25 0.23 0.29 0.31 0.26 0.26 0.29 0.30 0.35 0.34 0.34 0.34 0.35 0.41 0.46 0.48 0.48 0.50 0.56 0.64 0.70 0.72 0.72 0.77
0.24 0.26 0.27 0.28 0.24 0.21 0.22 0.21 0.34 0.42 0.57 0.76 0.69 0.63 0.59 0.47 0.41 0.41 0.47 0.39 0.33 0.25 0.22 0.25 0.31 0.35 0.36 0.39 0.42 0.40 0.43 0.54 0.62 0.67 0.69 0.79 0.85 0.92
0.36 0.33 0.30 0.26 0.19 0.17 0.17 0.21 0.36 0.66 0.86 0.95 0.96 0.74 0.47 0.43 0.40 0.48 0.62 0.75 0.66 0.30 0.29 0.37 0.43 0.50 0.48 0.49 0.52 0.48 0.48 0.49 0.52 0.57 0.66 0.70 0.71 0.77
0.37 0.24 0.15 0.09 0.07 0.05 0.09 0.17 0.34 0.63 0.72 0.60 0.52 0.45 0.42 0.38 0.56 0.69 0.69 0.79 0.68 0.36 0.42 0.51 0.41 0.44 0.44 0.51 0.61 0.52 0.53 0.51 0.51 0.53 0.56 0.59 0.60 0.66
0.06 0.02 0.02 0.03 0.04 0.06 0.14 0.40 0.35 0.22 0.21 0.27 0.33 0.37 0.47 0.59 0.84 1.16 1.14 1.03 0.72 0.47 0.43 0.57 0.32 0.36 0.39 0.47 0.63 0.51 0.44 0.45 0.48 0.49 0.50 0.53 0.58 0.64
0.02 0.02 0.06 0.03 0.05 0.14 0.37 0.41 0.19 0.14 0.19 0.28 0.39 0.46 0.44 0.39 0.42 0.78 0.92 0.85 0.75 0.41 0.33 0.46 0.38 0.39 0.43 0.41 0.47 0.50 0.44 0.46 0.51 0.53 0.53 0.59 0.63 0.65
0.03 0.03 0.05 0.04 0.12 0.37 0.27 0.24 0.26 0.17 0.33 0.34 0.35 0.39 0.39 0.38 0.44 0.50 0.95 1.63 1.14 0.91 0.39 0.85 0.65 0.57 0.91 0.39 0.40 0.54 0.50 0.44 0.42 0.41 0.40 0.41 0.48 0.49
0.12 0.03 0.04 0.16 0.36 0.22 0.16 0.19 0.23 0.27 0.33 0.30 0.33 0.37 0.39 0.40 0.45 0.61 0.98 1.82 2.07 1.47 0.56 1.44 1.48 0.64 1.03 0.58 0.41 0.50 0.42 0.45 0.47 0.45 0.41 0.39 0.37 0.41
0.05 0.03 0.10 0.24 0.09 0.06 0.09 0.18 0.32 0.31 0.24 0.33 0.47 0.52 0.51 0.52 0.59 0.66 0.72 0.85 1.04 1.42 0.85 1.10 1.99 0.97 1.25 0.88 0.53 0.55 0.54 0.49 0.53 0.46 0.39 0.44 0.54 0.60
0.06 0.17 0.16 0.03 0.03 0.04 0.10 0.17 0.16 0.15 0.35 0.66 0.81 0.82 0.75 0.80 0.84 0.76 0.68 0.64 0.69 0.74 0.86 0.87 1.22 1.09 1.19 1.07 0.77 0.52 0.68 0.70 0.76 0.81 0.64 0.47 0.42 0.43
0.17 0.14 0.03 0.03 0.05 0.06 0.08 0.07 0.07 0.17 0.42 0.62 0.68 0.61 0.70 0.74 0.73 0.84 1.07 0.97 1.04 0.84 0.70 0.63 0.77 0.96 0.94 0.59 0.87 0.74 0.60 1.07 1.04 1.09 1.05 0.62 0.49 0.40
0.07 0.01 0.01 0.02 0.02 0.02 0.04 0.06 0.11 0.24 0.41 0.41 0.57 0.62 0.72 0.81 0.83 0.94 1.22 1.17 1.03 0.77 0.62 0.47 0.39 0.40 0.48 0.60 0.68 0.65 0.87 0.84 1.10 1.48 1.28 0.85 0.69 0.55
0.05 0.03 0.04 0.05 0.08 0.09 0.11 0.15 0.20 0.32 0.39 0.55 0.62 0.69 0.85 0.93 1.11 1.22 1.24 1.05 0.86 0.62 0.54 0.42 0.37 0.37 0.33 0.30 0.61 0.92 0.82 0.91 1.19 1.36 1.37 0.81 0.76 0.81
0.10 0.12 0.15 0.16 0.16 0.16 0.22 0.36 0.48 0.53 0.77 0.91 0.93 0.94 1.01 1.09 1.15 1.17 0.95 0.72 0.52 0.37 0.21 0.16 0.34 0.59 0.70 0.31 0.29 0.70 1.21 1.07 0.83 0.88 0.91 0.64 0.73 0.88
0.21 0.26 0.30 0.28 0.28 0.33 0.39 0.57 0.72 0.74 0.78 0.87 1.02 1.08 1.22 1.39 1.24 1.05 0.74 0.57 0.41 0.24 0.11 0.05 0.15 0.49 1.07 0.97 0.86 0.81 0.85 1.15 0.92 0.88 0.67 0.53 0.72 0.73
0.31 0.40 0.47 0.47 0.45 0.48 0.52 0.63 0.78 1.03 1.27 1.38 1.20 1.30 1.31 1.38 0.97 0.62 0.43 0.22 0.25 0.23 0.18 0.05 0.11 0.31 0.47 0.49 0.51 0.40 0.71 0.77 0.81 1.22 0.98 0.75 0.53 0.38
0.26 0.35 0.42 0.49 0.46 0.49 0.60 0.85 1.07 1.12 1.17 1.16 1.26 1.29 1.13 0.95 0.73 0.41 0.23 0.29 0.18 0.20 0.20 0.10 0.05 0.11 0.20 0.46 0.43 0.36 0.45 0.47 0.41 0.40 0.62 0.99 1.23 1.39
0.27 0.37 0.44 0.50 0.49 0.53 0.70 0.89 1.14 1.19 1.22 1.34 1.22 0.99 0.82 0.61 0.28 0.25 0.23 0.22 0.29 0.32 0.18 0.12 0.05 0.06 0.14 0.31 0.36 0.36 0.27 0.31 0.24 0.27 0.68 0.63 0.65 0.82

GFSNE_prec_precacc_132.txt.gz
Total_Precipitation_Accumulation
0.65 0.66 0.71 0.69 0.72 0.83 1.01 1.17 1.47 1.29 0.91 0.72 0.67 0.61 0.59 0.54 0.49 0.44 0.34 0.27 0.19 0.15 0.16 0.15 0.14 0.16 0.23 0.34 0.51 0.62 0.67 0.74 0.79 0.88 1.07 1.25 1.38 1.44
0.46 0.52 0.55 0.61 0.73 0.83 0.93 0.99 1.21 1.42 1.18 0.73 0.76 0.79 0.72 0.59 0.45 0.31 0.20 0.22 0.18 0.15 0.16 0.16 0.14 0.15 0.17 0.21 0.28 0.36 0.44 0.56 0.67 0.79 0.89 0.98 1.06 1.20
0.31 0.38 0.43 0.46 0.56 0.66 0.76 0.94 1.08 1.18 1.09 0.67 0.55 0.47 0.35 0.25 0.16 0.13 0.10 0.06 0.05 0.07 0.08 0.10 0.15 0.17 0.17 0.18 0.23 0.28 0.32 0.40 0.49 0.60 0.73 0.91 1.12 1.20
0.16 0.24 0.29 0.36 0.45 0.49 0.54 0.55 0.55 0.54 0.61 0.43 0.26 0.24 0.19 0.17 0.14 0.14 0.13 0.13 0.14 0.13 0.15 0.14 0.16 0.20 0.24 0.26 0.29 0.32 0.33 0.35 0.39 0.51 0.60 0.70 0.77 0.88
0.14 0.19 0.20 0.24 0.31 0.30 0.30 0.31 0.32 0.37 0.40 0.47 0.27 0.18 0.12 0.13 0.16 0.21 0.21 0.19 0.18 0.25 0.29 0.29 0.30 0.34 0.39 0.40 0.40 0.48 0.58 0.59 0.58 0.54 0.58 0.69 0.79 0.89
0.13 0.15 0.20 0.25 0.27 0.24 0.23 0.27 0.30 0.38 0.39 0.38 0.44 0.32 0.25 0.23 0.29 0.31 0.26 0.26 0.29 0.30 0.35 0.34 0.34 0.34 0.35 0.41 0.46 0.49 0.49 0.52 0.59 0.66 0.72 0.72 0.73 0.77
0.29 0.30 0.29 0.29 0.25 0.22 0.22 0.22 0.35 0.43 0.58 0.76 0.69 0.63 0.59 0.47 0.41 0.41 0.47 0.39 0.33 0.25 0.22 0.25 0.31 0.35 0.36 0.40 0.42 0.40 0.44 0.55 0.62 0.68 0.71 0.80 0.86 0.92
0.51 0.43 0.38 0.35 0.24 0.19 0.18 0.22 0.36 0.66 0.86 0.95 0.96 0.74 0.47 0.43 0.40 0.48 0.62 0.75 0.66 0.30 0.29 0.37 0.43 0.50 0.48 0.49 0.53 0.48 0.48 0.50 0.53 0.58 0.67 0.71 0.72 0.77
0.61 0.47 0.33 0.25 0.26 0.16 0.14 0.19 0.35 0.64 0.72 0.60 0.52 0.45 0.42 0.38 0.56 0.69 0.69 0.79 0.68 0.36 0.42 0.51 0.41 0.44 0.44 0.51 0.62 0.52 0.53 0.51 0.51 0.54 0.57 0.60 0.60 0.66
0.23 0.20 0.17 0.16 0.16 0.14 0.18 0.42 0.36 0.22 0.21 0.27 0.33 0.37 0.47 0.59 0.84 1.16 1.14 1.03 0.72 0.47 0.43 0.57 0.32 0.36 0.39 0.47 0.63 0.51 0.44 0.45 0.49 0.50 0.52 0.54 0.58 0.64
0.13 0.13 0.19 0.13 0.13 0.20 0.38 0.41 0.19 0.14 0.19 0.28 0.39 0.46 0.44 0.39 0.42 0.78 0.92 0.85 0.75 0.41 0.33 0.46 0.38 0.39 0.43 0.41 0.47 0.50 0.44 0.47 0.52 0.54 0.53 0.59 0.63 0.65
0.13 0.10 0.14 0.11 0.16 0.38 0.27 0.24 0.26 0.17 0.33 0.34 0.35 0.39 0.39 0.38 0.44 0.50 0.95 1.63 1.14 0.91 0.39 0.85 0.65 0.57 0.91 0.39 0.40 0.54 0.50 0.45 0.43 0.41 0.40 0.42 0.48 0.49
0.12 0.04 0.05 0.18 0.36 0.22 0.16 0.19 0.23 0.27 0.33 0.30 0.33 0.37 0.39 0.40 0.45 0.61 0.98 1.82 2.07 1.47 0.56 1.44 1.48 0.64 1.03 0.58 0.41 0.50 0.42 0.45 0.47 0.45 0.41 0.39 0.37 0.41
0.05 0.03 0.10 0.24 0.09 0.06 0.09 0.18 0.32 0.31 0.24 0.33 0.47 0.52 0.51 0.52 0.59 0.66 0.72 0.85 1.04 1.42 0.85 1.10 1.99 0.97 1.25 0.88 0.53 0.55 0.54 0.49 0.53 0.46 0.39 0.44 0.54 0.60
0.06 0.17 0.16 0.03 0.04 0.05 0.10 0.17 0.16 0.15 0.35 0.66 0.81 0.82 0.75 0.80 0.84 0.76 0.68 0.64 0.69 0.74 0.86 0.87 1.22 1.09 1.19 1.07 0.77 0.52 0.68 0.70 0.76 0.81 0.64 0.47 0.42 0.43
0.17 0.14 0.03 0.03 0.05 0.06 0.08 0.07 0.07 0.17 0.42 0.62 0.68 0.61 0.70 0.74 0.73 0.84 1.07 0.97 1.04 0.84 0.70 0.63 0.77 0.96 0.94 0.59 0.87 0.74 0.60 1.07 1.04 1.09 1.05 0.62 0.49 0.40
0.07 0.01 0.01 0.02 0.02 0.02 0.04 0.06 0.11 0.24 0.41 0.41 0.57 0.62 0.72 0.81 0.83 0.94 1.22 1.17 1.03 0.77 0.62 0.47 0.39 0.40 0.48 0.60 0.68 0.65 0.87 0.84 1.10 1.48 1.28 0.85 0.69 0.55
0.05 0.03 0.04 0.05 0.08 0.09 0.11 0.15 0.20 0.32 0.39 0.55 0.62 0.69 0.85 0.93 1.11 1.22 1.24 1.05 0.86 0.62 0.54 0.42 0.37 0.37 0.33 0.30 0.61 0.92 0.82 0.91 1.19 1.36 1.37 0.81 0.76 0.81
0.11 0.12 0.15 0.16 0.16 0.18 0.24 0.38 0.50 0.53 0.78 0.91 0.93 0.94 1.01 1.09 1.15 1.17 0.95 0.72 0.52 0.37 0.21 0.16 0.34 0.59 0.70 0.31 0.29 0.70 1.21 1.07 0.83 0.88 0.91 0.64 0.73 0.88
0.27 0.27 0.31 0.32 0.34 0.42 0.49 0.67 0.79 0.80 0.81 0.88 1.03 1.08 1.22 1.39 1.24 1.05 0.74 0.57 0.41 0.24 0.11 0.05 0.15 0.49 1.07 0.97 0.86 0.81 0.85 1.15 0.92 0.88 0.67 0.53 0.72 0.73
0.41 0.45 0.53 0.57 0.59 0.66 0.70 0.78 0.90 1.10 1.32 1.41 1.22 1.31 1.32 1.38 0.97 0.62 0.44 0.22 0.26 0.23 0.18 0.05 0.11 0.31 0.47 0.49 0.51 0.40 0.71 0.77 0.81 1.22 0.98 0.75 0.53 0.38
0.47 0.55 0.60 0.71 0.70 0.73 0.81 1.01 1.19 1.20 1.21 1.18 1.27 1.29 1.13 0.96 0.74 0.42 0.24 0.30 0.19 0.21 0.20 0.11 0.06 0.11 0.20 0.46 0.43 0.36 0.45 0.47 0.41 0.40 0.62 0.99 1.23 1.39
0.50 0.62 0.70 0.78 0.72 0.71 0.84 1.01 1.23 1.24 1.24 1.35 1.23 0.99 0.83 0.62 0.29 0.28 0.26 0.24 0.31 0.33 0.19 0.14 0.07 0.07 0.14 0.31 0.36 0.36 0.27 0.31 0.24 0.27 0.68 0.63 0.65 0.82

GFSNE_prec_precacc_135.txt.gz
Total_Precipitation_Accumulation
0.65 0.66 0.71 0.69 0.72 0.83 1.01 1.17 1.47 1.29 0.91 0.72 0.67 0.61 0.59 0.54 0.49 0.44 0.34 0.27 0.19 0.15 0.16 0.15 0.14 0.16 0.23 0.34 0.51 0.63 0.69 0.75 0.79 0.88 1.07 1.26 1.38 1.46
0.46 0.52 0.55 0.61 0.73 0.83 0.93 0.99 1.21 1.42 1.18 0.73 0.76 0.79 0.72 0.59 0.45 0.31 0.20 0.22 0.18 0.15 0.16 0.16 0.14 0.15 0.17 0.21 0.28 0.37 0.46 0.57 0.68 0.81 0.91 0.98 1.07 1.22
0.31 0.38 0.43 0.46 0.56 0.66 0.76 0.94 1.08 1.18 1.09 0.67 0.55 0.47 0.35 0.25 0.16 0.13 0.10 0.06 0.05 0.07 0.08 0.10 0.15 0.17 0.17 0.18 0.23 0.28 0.35 0.42 0.51 0.62 0.75 0.92 1.14 1.20
0.16 0.24 0.29 0.36 0.45 0.49 0.54 0.55 0.55 0.54 0.61 0.43 0.26 0.24 0.19 0.17 0.14 0.14 0.13 0.13 0.14 0.13 0.15 0.14 0.16 0.20 0.24 0.26 0.29 0.33 0.36 0.40 0.40 0.51 0.60 0.72 0.78 0.88
0.14 0.19 0.20 0.25 0.31 0.30 0.30 0.31 0.33 0.37 0.40 0.47 0.27 0.18 0.12 0.13 0.16 0.21 0.21 0.19 0.18 0.25 0.29 0.29 0.30 0.34 0.39 0.40 0.40 0.48 0.58 0.63 0.62 0.57 0.59 0.71 0.82 0.90
0.13 0.15 0.20 0.26 0.28 0.25 0.24 0.28 0.31 0.39 0.40 0.38 0.44 0.32 0.25 0.23 0.29 0.31 0.26 0.26 0.29 0.30 0.35 0.34 0.34 0.34 0.35 0.41 0.46 0.49 0.49 0.53 0.60 0.68 0.74 0.74 0.76 0.78
0.29 0.30 0.30 0.30 0.26 0.23 0.24 0.23 0.36 0.44 0.59 0.77 0.70 0.64 0.60 0.47 0.41 0.41 0.47 0.39 0.33 0.25 0.22 0.25 0.31 0.35 0.36 0.40 0.42 0.40 0.44 0.55 0.64 0.69 0.72 0.82 0.88 0.94
0.52 0.45 0.40 0.38 0.26 0.21 0.20 0.24 0.37 0.67 0.87 0.96 0.96 0.74 0.47 0.43 0.40 0.48 0.62 0.75 0.66 0.30 0.29 0.37 0.43 0.50 0.48 0.49 0.53 0.48 0.48 0.51 0.54 0.59 0.67 0.72 0.74 0.78
0.67 0.55 0.44 0.36 0.37 0.31 0.35 0.37 0.47 0.73 0.77 0.62 0.54 0.46 0.42 0.38 0.56 0.69 0.69 0.79 0.68 0.36 0.42 0.51 0.41 0.44 0.44 0.51 0.62 0.52 0.53 0.52 0.52 0.55 0.57 0.60 0.60 0.66
0.34 0.34 0.36 0.37 0.40 0.41 0.48 0.74 0.61 0.38 0.28 0.30 0.34 0.37 0.47 0.59 0.84 1.16 1.14 1.03 0.72 0.47 0.43 0.57 0.32 0.36 0.39 0.47 0.63 0.51 0.44 0.45 0.49 0.51 0.52 0.55 0.59 0.65
0.39 0.35 0.38 0.36 0.40 0.45 0.58 0.59 0.33 0.23 0.26 0.30 0.39 0.46 0.44 0.39 0.42 0.78 0.92 0.85 0.75 0.41 0.33 0.46 0.38 0.39 0.43 0.41 0.47 0.50 0.44 0.47 0.53 0.54 0.54 0.59 0.63 0.66
0.46 0.44 0.41 0.27 0.38 0.60 0.41 0.31 0.30 0.20 0.34 0.35 0.35 0.39 0.39 0.38 0.44 0.50 0.95 1.63 1.14 0.91 0.39 0.85 0.65 0.57 0.91 0.39 0.40 0.54 0.50 0.45 0.43 0.41 0.41 0.42 0.48 0.49
0.17 0.11 0.14 0.28 0.44 0.31 0.26 0.24 0.24 0.28 0.34 0.30 0.33 0.37 0.39 0.40 0.45 0.61 0.98 1.82 2.07 1.47 0.56 1.44 1.48 0.64 1.03 0.58 0.41 0.50 0.42 0.45 0.47 0.45 0.41 0.39 0.37 0.41
0.09 0.06 0.15 0.31 0.14 0.10 0.14 0.21 0.34 0.31 0.24 0.33 0.47 0.52 0.51 0.52 0.59 0.66 0.72 0.85 1.04 1.42 0.85 1.10 1.99 0.97 1.25 0.88 0.53 0.55 0.54 0.49 0.53 0.46 0.39 0.44 0.54 0.60
0.07 0.21 0.21 0.10 0.10 0.12 0.18 0.22 0.19 0.16 0.35 0.66 0.81 0.83 0.76 0.80 0.84 0.76 0.68 0.64 0.69 0.74 0.86 0.87 1.22 1.09 1.19 1.07 0.77 0.52 0.68 0.70 0.76 0.81 0.64 0.47 0.42 0.43
0.19 0.17 0.08 0.09 0.12 0.11 0.14 0.13 0.09 0.18 0.43 0.64 0.71 0.65 0.72 0.74 0.73 0.84 1.07 0.97 1.04 0.84 0.70 0.63 0.77 0.96 0.94 0.59 0.87 0.74 0.60 1.07 1.04 1.09 1.05 0.62 0.49 0.40
0.09 0.07 0.12 0.10 0.08 0.06 0.05 0.07 0.12 0.27 0.45 0.46 0.62 0.65 0.74 0.82 0.83 0.94 1.22 1.17 1.03 0.77 0.62 0.47 0.39 0.40 0.48 0.60 0.68 0.65 0.87 0.84 1.10 1.48 1.28 0.85 0.69 0.55
0.09 0.07 0.08 0.10 0.15 0.19 0.24 0.28 0.32 0.42 0.45 0.60 0.65 0.71 0.86 0.93 1.11 1.22 1.24 1.05 0.86 0.62 0.54 0.42 0.37 0.37 0.33 0.30 0.61 0.92 0.82 0.91 1.19 1.36 1.37 0.81 0.76 0.81
0.25 0.17 0.17 0.16 0.17 0.19 0.25 0.39 0.51 0.56 0.82 0.99 0.97 0.95 1.01 1.09 1.15 1.17 0.95 0.72 0.52 0.37 0.21 0.16 0.34 0.59 0.70 0.31 0.29 0.70 1.21 1.07 0.83 0.88 0.91 0.64 0.73 0.88
0.42 0.36 0.36 0.36 0.37 0.44 0.51 0.68 0.81 0.83 0.86 0.93 1.07 1.12 1.25 1.40 1.25 1.05 0.74 0.57 0.41 0.24 0.11 0.05 0.15 0.49 1.07 0.97 0.86 0.81 0.85 1.15 0.92 0.88 0.67 0.53 0.72 0.73
0.53 0.59 0.65 0.67 0.69 0.77 0.83 0.93 1.04 1.24 1.44 1.51 1.31 1.39 1.36 1.40 0.98 0.62 0.44 0.22 0.26 0.24 0.19 0.05 0.11 0.31 0.47 0.49 0.51 0.40 0.71 0.77 0.81 1.22 0.98 0.75 0.53 0.38
0.54 0.67 0.75 0.90 0.95 1.04 1.15 1.33 1.47 1.44 1.40 1.32 1.39 1.38 1.17 0.97 0.74 0.43 0.24 0.31 0.19 0.21 0.21 0.13 0.08 0.12 0.20 0.46 0.43 0.36 0.45 0.47 0.41 0.40 0.62 0.99 1.23 1.39
0.57 0.73 0.85 0.96 0.98 0.98 1.09 1.25 1.47 1.48 1.45 1.53 1.37 1.08 0.86 0.63 0.30 0.28 0.27 0.26 0.32 0.35 0.20 0.17 0.09 0.08 0.15 0.32 0.37 0.36 0.27 0.31 0.24 0.27 0.68 0.63 0.65 0.82

GFSNE_prec_precacc_138.txt.gz
Total_Precipitation_Accumulation
0.65 0.66 0.71 0.69 0.72 0.83 1.01 1.17 1.47 1.29 0.91 0.72 0.67 0.61 0.59 0.54 0.49 0.44 0.34 0.27 0.19 0.15 0.16 0.15 0.14 0.16 0.23 0.34 0.51 0.63 0.69 0.75 0.79 0.88 1.07 1.26 1.38 1.47
0.46 0.52 0.55 0.61 0.73 0.83 0.93 0.99 1.21 1.42 1.18 0.73 0.76 0.79 0.72 0.59 0.45 0.31 0.20 0.22 0.18 0.15 0.16 0.16 0.14 0.15 0.17 0.21 0.28 0.37 0.46 0.58 0.68 0.81 0.91 0.98 1.07 1.23
0.31 0.38 0.43 0.46 0.56 0.66 0.76 0.94 1.08 1.18 1.09 0.67 0.55 0.47 0.35 0.25 0.16 0.13 0.10 0.06 0.05 0.07 0.08 0.10 0.15 0.17 0.17 0.18 0.23 0.28 0.35 0.42 0.51 0.62 0.75 0.93 1.14 1.21
0.16 0.24 0.29 0.36 0.45 0.49 0.54 0.55 0.56 0.54 0.61 0.43 0.26 0.24 0.19 0.17 0.14 0.14 0.13 0.13 0.14 0.13 0.15 0.14 0.16 0.21 0.25 0.26 0.29 0.33 0.36 0.40 0.41 0.51 0.60 0.72 0.79 0.89
0.14 0.19 0.20 0.25 0.31 0.30 0.30 0.32 0.34 0.39 0.41 0.47 0.27 0.18 0.12 0.13 0.16 0.21 0.21 0.19 0.18 0.25 0.29 0.29 0.30 0.34 0.39 0.40 0.40 0.48 0.58 0.63 0.63 0.57 0.59 0.71 0.84 0.91
0.14 0.16 0.20 0.26 0.28 0.26 0.26 0.30 0.34 0.41 0.41 0.39 0.44 0.32 0.26 0.23 0.29 0.31 0.26 0.26 0.29 0.30 0.35 0.34 0.34 0.34 0.35 0.41 0.46 0.49 0.49 0.53 0.60 0.69 0.76 0.74 0.77 0.80
0.32 0.32 0.30 0.30 0.26 0.25 0.27 0.26 0.40 0.47 0.61 0.78 0.71 0.65 0.60 0.47 0.41 0.41 0.47 0.39 0.33 0.25 0.22 0.25 0.31 0.35 0.36 0.40 0.42 0.40 0.44 0.55 0.65 0.70 0.73 0.84 0.92 0.95
0.57 0.47 0.43 0.38 0.27 0.21 0.21 0.27 0.41 0.69 0.89 0.97 0.97 0.75 0.47 0.44 0.41 0.48 0.62 0.75 0.66 0.30 0.29 0.37 0.43 0.50 0.48 0.49 0.53 0.48 0.49 0.51 0.54 0.61 0.69 0.76 0.78 0.80
0.72 0.59 0.46 0.37 0.38 0.33 0.38 0.40 0.53 0.78 0.83 0.68 0.58 0.49 0.45 0.42 0.59 0.71 0.69 0.79 0.68 0.36 0.42 0.51 0.41 0.44 0.44 0.51 0.62 0.52 0.53 0.52 0.52 0.55 0.58 0.61 0.61 0.67
0.35 0.36 0.38 0.39 0.41 0.44 0.53 0.81 0.72 0.51 0.42 0.44 0.47 0.49 0.58 0.67 0.87 1.17 1.14 1.03 0.72 0.47 0.43 0.57 0.32 0.36 0.39 0.47 0.63 0.51 0.44 0.45 0.49 0.51 0.53 0.55 0.61 0.66
0.40 0.37 0.41 0.40 0.44 0.53 0.73 0.76 0.48 0.37 0.46 0.56 0.60 0.63 0.57 0.46 0.44 0.78 0.92 0.85 0.75 0.41 0.33 0.46 0.38 0.39 0.43 0.41 0.47 0.50 0.44 0.47 0.53 0.54 0.54 0.60 0.64 0.67
0.63 0.56 0.59 0.52 0.61 0.82 0.63 0.53 0.51 0.38 0.54 0.55 0.53 0.53 0.46 0.42 0.46 0.50 0.95 1.63 1.14 0.91 0.39 0.85 0.65 0.57 0.91 0.39 0.40 0.54 0.50 0.45 0.43 0.41 0.41 0.43 0.48 0.50
0.25 0.24 0.30 0.50 0.71 0.57 0.53 0.57 0.58 0.62 0.69 0.55 0.47 0.44 0.42 0.41 0.45 0.61 0.98 1.82 2.07 1.47 0.56 1.44 1.48 0.64 1.03 0.58 0.41 0.50 0.42 0.45 0.47 0.45 0.41 0.40 0.38 0.41
0.12 0.13 0.26 0.49 0.31 0.26 0.30 0.41 0.54 0.49 0.39 0.42 0.51 0.54 0.52 0.53 0.60 0.66 0.72 0.85 1.04 1.42 0.85 1.10 1.99 0.97 1.25 0.88 0.53 0.55 0.54 0.49 0.53 0.46 0.39 0.44 0.54 0.60
0.08 0.22 0.27 0.21 0.24 0.30 0.39 0.40 0.37 0.33 0.54 0.76 0.85 0.85 0.79 0.85 0.87 0.77 0.69 0.64 0.69 0.74 0.86 0.87 1.22 1.09 1.19 1.07 0.77 0.52 0.68 0.70 0.76 0.81 0.64 0.47 0.42 0.43
0.19 0.18 0.10 0.11 0.16 0.21 0.27 0.23 0.18 0.30 0.57 0.76 0.80 0.74 0.82 0.82 0.76 0.85 1.07 0.97 1.04 0.84 0.70 0.63 0.77 0.96 0.94 0.59 0.87 0.74 0.60 1.07 1.04 1.09 1.05 0.62 0.49 0.40
0.10 0.08 0.13 0.12 0.11 0.09 0.08 0.14 0.21 0.39 0.56 0.51 0.67 0.74 0.82 0.87 0.87 0.96 1.22 1.17 1.03 0.77 0.62 0.47 0.39 0.40 0.48 0.60 0.68 0.65 0.87 0.84 1.10 1.48 1.28 0.85 0.69 0.55
0.11 0.08 0.09 0.14 0.24 0.33 0.43 0.46 0.47 0.54 0.54 0.68 0.72 0.77 0.93 0.98 1.16 1.25 1.25 1.05 0.86 0.62 0.54 0.42 0.37 0.37 0.33 0.30 0.61 0.92 0.82 0.91 1.19 1.36 1.37 0.81 0.76 0.81
0.27 0.20 0.20 0.20 0.21 0.25 0.37 0.59 0.78 0.81 1.05 1.20 1.21 1.18 1.19 1.21 1.23 1.20 0.95 0.72 0.52 0.37 0.21 0.16 0.34 0.59 0.70 0.31 0.29 0.70 1.21 1.07 0.83 0.88 0.91 0.64 0.73 0.88
0.42 0.37 0.38 0.39 0.43 0.52 0.60 0.78 0.92 0.94 1.03 1.13 1.24 1.23 1.33 1.47 1.30 1.08 0.75 0.57 0.41 0.24 0.11 0.05 0.15 0.49 1.07 0.97 0.86 0.81 0.85 1.15 0.92 0.88 0.67 0.53 0.72 0.73
0.54 0.60 0.65 0.68 0.72 0.83 0.95 1.11 1.28 1.48 1.62 1.67 1.48 1.56 1.49 1.48 1.04 0.66 0.47 0.25 0.27 0.24 0.19 0.05 0.11 0.31 0.47 0.49 0.51 0.40 0.71 0.77 0.81 1.22 0.98 0.75 0.53 0.38
0.55 0.68 0.76 0.91 0.97 1.09 1.24 1.46 1.66 1.70 1.70 1.62 1.68 1.65 1.42 1.18 0.89 0.53 0.33 0.37 0.22 0.22 0.21 0.13 0.08 0.12 0.20 0.46 0.43 0.36 0.45 0.47 0.41 0.40 0.62 0.99 1.23 1.39
0.58 0.74 0.86 0.98 1.01 1.03 1.18 1.38 1.66 1.68 1.63 1.71 1.57 1.35 1.15 0.90 0.51 0.46 0.41 0.35 0.37 0.37 0.21 0.18 0.10 0.08 0.15 0.32 0.37 0.36 0.27 0.31 0.24 0.27 0.68 0.63 0.65 0.82

GFSNE_prec_precacc_141.txt.gz
Total_Precipitation_Accumulation
0.88 0.80 0.75 0.69 0.72 0.83 1.01 1.17 1.47 1.29 0.91 0.72 0.67 0.61 0.59 0.54 0.49 0.44 0.34 0.27 0.19 0.15 0.16 0.15 0.14 0.16 0.23 0.34 0.51 0.63 0.69 0.75 0.79 0.88 1.07 1.26 1.38 1.47
0.61 0.72 0.69 0.62 0.73 0.83 0.93 0.99 1.21 1.42 1.18 0.73 0.76 0.79 0.72 0.59 0.45 0.31 0.20 0.22 0.18 0.15 0.16 0.16 0.14 0.15 0.17 0.21 0.28 0.37 0.46 0.58 0.69 0.82 0.91 0.98 1.07 1.24
0.41 0.50 0.53 0.50 0.56 0.66 0.76 0.94 1.08 1.18 1.09 0.67 0.55 0.47 0.35 0.25 0.16 0.13 0.10 0.06 0.05 0.07 0.08 0.10 0.15 0.17 0.17 0.18 0.23 0.28 0.35 0.43 0.52 0.62 0.76 0.93 1.14 1.21
0.22 0.32 0.35 0.41 0.46 0.49 0.54 0.55 0.56 0.54 0.61 0.43 0.26 0.24 0.19 0.17 0.14 0.14 0.13 0.13 0.14 0.13 0.15 0.14 0.16 0.21 0.25 0.26 0.29 0.33 0.36 0.41 0.41 0.51 0.60 0.73 0.80 0.90
0.19 0.28 0.27 0.31 0.33 0.30 0.30 0.32 0.34 0.39 0.41 0.47 0.28 0.18 0.12 0.13 0.16 0.21 0.21 0.19 0.18 0.25 0.29 0.29 0.30 0.34 0.39 0.40 0.40 0.48 0.58 0.63 0.63 0.59 0.61 0.72 0.85 0.91
0.24 0.26 0.33 0.34 0.29 0.26 0.26 0.30 0.34 0.42 0.42 0.40 0.45 0.33 0.26 0.23 0.29 0.31 0.27 0.26 0.29 0.30 0.35 0.34 0.34 0.34 0.35 0.41 0.46 0.49 0.49 0.53 0.60 0.69 0.76 0.75 0.78 0.81
0.46 0.46 0.42 0.36 0.29 0.27 0.28 0.28 0.43 0.50 0.63 0.80 0.72 0.66 0.61 0.48 0.42 0.42 0.48 0.40 0.33 0.25 0.22 0.25 0.31 0.35 0.36 0.40 0.42 0.40 0.44 0.55 0.65 0.70 0.73 0.85 0.94 0.96
0.94 0.67 0.60 0.57 0.40 0.31 0.29 0.32 0.47 0.75 0.92 0.99 0.98 0.75 0.48 0.45 0.42 0.50 0.65 0.77 0.67 0.31 0.29 0.37 0.43 0.50 0.48 0.49 0.53 0.48 0.49 0.51 0.55 0.61 0.70 0.76 0.80 0.83
1.01 0.92 0.66 0.49 0.54 0.52 0.53 0.51 0.61 0.86 0.90 0.73 0.61 0.50 0.47 0.44 0.64 0.77 0.75 0.84 0.71 0.37 0.42 0.51 0.41 0.44 0.44 0.51 0.62 0.52 0.53 0.52 0.52 0.55 0.58 0.62 0.62 0.70
0.45 0.47 0.51 0.49 0.51 0.55 0.65 0.92 0.80 0.56 0.46 0.50 0.54 0.54 0.63 0.73 0.95 1.26 1.23 1.12 0.78 0.48 0.43 0.57 0.32 0.36 0.39 0.47 0.63 0.51 0.44 0.45 0.49 0.51 0.53 0.55 0.61 0.67
0.46 0.43 0.46 0.43 0.48 0.59 0.80 0.81 0.51 0.39 0.47 0.60 0.71 0.76 0.71 0.61 0.58 0.91 1.01 0.90 0.77 0.42 0.34 0.46 0.38 0.39 0.43 0.41 0.47 0.50 0.44 0.47 0.53 0.54 0.54 0.60 0.64 0.67
0.66 0.59 0.63 0.54 0.65 0.85 0.67 0.57 0.53 0.39 0.55 0.58 0.60 0.64 0.63 0.58 0.61 0.59 1.02 1.69 1.18 0.93 0.39 0.85 0.65 0.57 0.91 0.39 0.40 0.54 0.50 0.45 0.43 0.41 0.41 0.43 0.48 0.50
0.27 0.25 0.31 0.54 0.75 0.66 0.64 0.65 0.66 0.70 0.80 0.75 0.72 0.70 0.65 0.60 0.61 0.72 1.04 1.86 2.10 1.48 0.56 1.44 1.48 0.64 1.03 0.58 0.41 0.50 0.42 0.45 0.47 0.45 0.41 0.40 0.38 0.41
0.12 0.13 0.27 0.54 0.33 0.29 0.34 0.47 0.62 0.56 0.45 0.52 0.67 0.73 0.70 0.68 0.73 0.78 0.82 0.92 1.07 1.42 0.85 1.10 1.99 0.97 1.25 0.88 0.53 0.55 0.54 0.49 0.53 0.46 0.39 0.44 0.54 0.60
0.08 0.22 0.28 0.22 0.25 0.33 0.44 0.49 0.45 0.39 0.63 0.93 0.99 0.94 0.88 0.97 1.01 0.89 0.77 0.70 0.73 0.78 0.89 0.89 1.23 1.09 1.19 1.07 0.77 0.52 0.68 0.70 0.76 0.81 0.64 0.47 0.42 0.43
0.19 0.18 0.10 0.11 0.16 0.22 0.29 0.29 0.23 0.34 0.70 0.97 1.06 0.99 1.08 1.06 0.93 0.96 1.18 1.06 1.12 0.91 0.74 0.65 0.78 0.96 0.94 0.59 0.87 0.74 0.60 1.07 1.04 1.09 1.05 0.62 0.49 0.40
0.10 0.08 0.13 0.12 0.11 0.09 0.09 0.16 0.26 0.47 0.71 0.68 0.85 0.91 1.04 1.12 1.05 1.08 1.34 1.26 1.09 0.79 0.63 0.47 0.39 0.40 0.48 0.60 0.68 0.65 0.87 0.84 1.10 1.48 1.28 0.85 0.69 0.55
0.11 0.08 0.09 0.14 0.24 0.34 0.45 0.52 0.54 0.62 0.62 0.80 0.90 0.97 1.17 1.22 1.31 1.38 1.39 1.16 0.92 0.65 0.55 0.42 0.37 0.37 0.33 0.30 0.61 0.92 0.82 0.91 1.19 1.36 1.37 0.81 0.76 0.81
0.27 0.20 0.20 0.20 0.21 0.25 0.37 0.61 0.82 0.90 1.20 1.44 1.46 1.38 1.37 1.42 1.45 1.39 1.09 0.81 0.58 0.40 0.23 0.17 0.34 0.59 0.70 0.31 0.29 0.70 1.21 1.07 0.83 0.88 0.91 0.64 0.73 0.88
0.42 0.37 0.38 0.39 0.44 0.53 0.61 0.78 0.93 0.99 1.09 1.25 1.47 1.55 1.70 1.83 1.61 1.31 0.94 0.70 0.50 0.31 0.13 0.05 0.15 0.49 1.07 0.97 0.86 0.81 0.85 1.15 0.92 0.88 0.67 0.53 0.72 0.73
0.54 0.60 0.66 0.69 0.72 0.84 0.96 1.12 1.29 1.51 1.69 1.77 1.60 1.73 1.75 1.81 1.38 0.93 0.69 0.47 0.49 0.37 0.22 0.06 0.12 0.31 0.47 0.49 0.51 0.40 0.71 0.77 0.81 1.22 0.98 0.75 0.53 0.38
0.55 0.68 0.76 0.92 0.98 1.09 1.25 1.47 1.67 1.73 1.75 1.69 1.78 1.77 1.57 1.39 1.16 0.79 0.60 0.63 0.43 0.35 0.29 0.19 0.14 0.13 0.20 0.46 0.43 0.36 0.45 0.47 0.41 0.40 0.62 0.99 1.23 1.39
0.59 0.75 0.87 0.99 1.01 1.04 1.19 1.40 1.69 1.70 1.66 1.77 1.70 1.50 1.31 1.07 0.69 0.63 0.63 0.61 0.59 0.58 0.36 0.29 0.16 0.12 0.17 0.32 0.37 0.36 0.27 0.31 0.24 0.27 0.68 0.63 0.65 0.82